[[{"header":{"parameterUnit":"m.s-1","parameterCategory":1,"la1":31.0,"la2":29.5877,"lo1":-88.7671,"lo2":-86.6584,"dy":0.0162,"dx":0.0185,"nx":115,"ny":88,"refTime":"2024-06-16T18:00:00:Z","depth":0,"parameterNumber":2,"parameterNumberName":"U-component_of_WINDS"},"data":[0.0,0.0,0.0,0.0,0.0,0.0,0.0,0.0,0.0,0.0,0.0,0.0,0.0,0.0,0.0,0.0,0.0,0.0,0.0,0.0,0.0,0.0,0.0,0.0,0.0,0.0,0.0,0.0,0.0,0.0,0.0,0.0,0.0,0.0,0.0,0.0,0.0,0.0,0.0,0.0,0.0,0.0,0.0,0.0,0.0,0.0,0.0,0.0,0.0,0.0,0.0,0.0,0.0,0.0,0.0,0.0,0.0,0.0,0.0,0.0,0.0,0.0,0.0,0.0,0.0,0.0,0.0,0.0,0.0,0.0,0.0,0.0,0.0,0.0,0.0,0.0,0.0,0.0,0.0,0.0,0.0,0.0,0.0,0.0,0.0,0.0,0.0,0.0,0.0,0.0,0.0,0.0,0.0,0.0,0.0,0.0,0.0,0.0,0.0,0.0,0.0,0.0,0.0,0.0,0.0,0.0,0.0,0.0,0.0,0.0,0.0,0.0,0.0,0.0,0.0,0.0,0.0,0.0,0.0,0.0,0.0,0.0,0.0,0.0,0.0,0.0,0.0,0.0,0.0,0.0,0.0,0.0,0.0,0.0,0.0,0.0,0.0,0.0,0.0,0.0,0.0,0.0,0.0,0.0,0.0,0.0,0.0,0.0,0.0,0.0,0.0,0.0,0.0,0.0,0.0,0.0,0.0,0.0,0.0,0.0,0.0,0.0,0.0,0.0,0.0,0.0,0.0,0.0,0.0,0.0,0.0,0.0,0.0,0.0,0.0,0.0,0.0,0.0,0.0,0.0,0.0,0.0,0.0,0.0,0.0,0.0,0.0,0.0,0.0,0.0,0.0,0.0,0.0,0.0,0.0,0.0,0.0,0.0,0.0,0.0,0.0,0.0,0.0,0.0,0.0,0.0,0.0,0.0,0.0,0.0,0.0,0.0,0.0,0.0,0.0,0.0,0.0,0.0,0.0,0.0,0.0,0.0,0.0,0.0,0.0,0.0,0.0,0.0,0.0,0.0,0.0,0.0,0.0,0.0,0.0,0.0,0.0,0.0,0.0,0.0,0.0,0.0,0.0,0.0,0.0,0.0,0.0,0.0,0.0,0.0,0.0,0.0,0.0,0.0,0.0,0.0,0.0,0.0,0.0,0.0,0.0,0.0,0.0,0.0,0.0,0.0,0.0,0.0,0.0,0.0,0.0,0.0,0.0,0.0,0.0,0.0,0.0,0.0,0.0,0.0,0.0,0.0,0.0,0.0,0.0,0.0,0.0,0.0,0.0,0.0,0.0,0.0,0.0,0.0,0.0,0.0,0.0,0.0,0.0,0.0,0.0,0.0,0.0,0.0,0.0,0.0,0.0,0.0,0.0,0.0,0.0,0.0,0.0,0.0,0.0,0.0,0.0,0.0,0.0,0.0,0.0,0.0,0.0,0.0,0.0,0.0,0.0,0.0,0.0,0.0,0.0,0.0,0.0,0.0,0.0,0.0,0.0,0.0,0.0,0.0,0.0,0.0,0.0,0.0,0.0,0.0,0.0,0.0,0.0,0.0,0.0,0.0,0.0,0.0,0.0,0.0,0.0,0.0,0.0,0.0,0.0,0.0,0.0,0.0,0.0,0.0,0.0,0.0,0.0,0.0,0.0,0.0,0.0,0.0,0.0,0.0,0.0,0.0,0.0,0.0,0.0,0.0,0.0,0.0,0.0,0.0,0.0,0.0,0.0,0.0,0.0,0.0,0.0,0.0,0.0,0.0,0.0,0.0,0.0,0.0,0.0,0.0,0.0,0.0,0.0,0.0,0.0,0.0,0.0,0.0,0.0,0.0,0.0,0.0,0.0,0.0,0.0,0.0,0.0,0.0,0.0,0.0,0.0,0.0,0.0,0.0,0.0,0.0,0.0,0.0,0.0,0.0,0.0,0.0,0.0,0.0,0.0,0.0,0.0,0.0,0.0,0.0,0.0,0.0,0.0,0.0,0.0,0.0,0.0,0.0,0.0,0.0,0.0,0.0,0.0,0.0,0.0,0.0,0.0,0.0,0.0,0.0,0.0,0.0,0.0,0.0,0.0,0.0,0.0,0.0,0.0,0.0,0.0,0.0,0.0,0.0,0.0,0.0,0.0,0.0,0.0,0.0,0.0,0.0,0.0,0.0,0.0,0.0,0.0,0.0,0.0,0.0,0.0,0.0,0.0,0.0,0.0,0.0,0.0,0.0,0.0,0.0,0.0,0.0,0.0,0.0,0.0,0.0,0.0,0.0,0.0,0.0,0.0,0.0,0.0,0.0,0.0,0.0,0.0,0.0,0.0,0.0,0.0,0.0,0.0,0.0,0.0,0.0,0.0,0.0,0.0,0.0,0.0,0.0,0.0,0.0,0.0,0.0,0.0,0.0,0.0,0.0,0.0,0.0,0.0,0.0,0.0,0.0,0.0,0.0,0.0,0.0,0.0,0.0,0.0,0.0,0.0,0.0,0.0,0.0,0.0,0.0,0.0,0.0,0.0,0.0,0.0,0.0,0.0,0.0,0.0,0.0,0.0,0.0,0.0,0.0,0.0,0.0,0.0,0.0,0.0,0.0,0.0,0.0,0.0,0.0,0.0,0.0,0.0,0.0,0.0,0.0,0.0,0.0,0.0,0.0,0.0,0.0,0.0,0.0,0.0,0.0,0.0,0.0,0.0,0.0,0.0,0.0,0.0,0.0,0.0,0.0,0.0,0.0,0.0,0.0,0.0,0.0,0.0,0.0,0.0,0.0,0.0,0.0,0.0,0.0,0.0,0.0,0.0,0.0,0.0,0.0,0.0,0.0,0.0,0.0,0.0,0.0,0.0,0.0,0.0,0.0,0.0,0.0,0.0,0.0,0.0,0.0,0.0,0.0,0.0,0.0,0.0,0.0,0.0,0.0,0.0,0.0,0.0,0.0,0.0,0.0,0.0,0.0,0.0,0.0,0.0,0.0,0.0,0.0,0.0,0.0,0.0,0.0,0.0,0.0,0.0,0.0,0.0,0.0,0.0,0.0,0.0,0.0,0.0,0.0,0.0,0.0,0.0,0.0,0.0,0.0,0.0,0.0,0.0,0.0,0.0,0.0,0.0,0.0,0.0,0.0,0.0,0.0,0.0,0.0,0.0,0.0,0.0,0.0,0.0,0.0,0.0,0.0,0.0,0.0,0.0,0.0,0.0,0.0,0.0,0.0,0.0,0.0,0.0,0.0,0.0,0.0,0.0,0.0,0.0,0.0,0.0,0.0,0.0,0.0,0.0,0.0,0.0,0.0,0.0,0.0,0.0,0.0,0.0,0.0,0.0,0.0,0.0,0.0,0.0,0.0,0.0,0.0,0.0,0.0,0.0,0.0,0.0,0.0,0.0,0.0,0.0,0.0,0.0,0.0,0.0,0.0,0.0,0.0,0.0,0.0,0.0,0.0,0.0,0.0,0.0,0.0,0.0,0.0,0.0,0.0,0.0,0.0,0.0,0.0,0.0,0.0,0.0,0.0,0.0,0.0,0.0,0.0,0.0,0.0,0.0,0.0,0.0,0.0,0.0,0.0,0.0,0.0,0.0,0.0,0.0,0.0,0.0,0.0,0.0,0.0,0.0,0.0,0.0,0.0,0.0,0.0,0.0,0.0,0.0,0.0,0.0,0.0,0.0,0.0,0.0,0.0,0.0,0.0,0.0,0.0,0.0,0.0,0.0,0.0,0.0,0.0,0.0,0.0,0.0,0.0,0.0,0.0,0.0,0.0,0.0,0.0,0.0,0.0,0.0,0.0,0.0,0.0,0.0,0.0,0.0,0.0,0.0,0.0,0.0,0.0,0.0,0.0,0.0,0.0,0.0,0.0,0.0,0.0,0.0,0.0,0.0,0.0,0.0,0.0,0.0,0.0,0.0,0.0,0.0,0.0,0.0,0.0,0.0,0.0,0.0,0.0,0.0,0.0,0.0,0.0,0.0,0.0,0.0,0.0,0.0,0.0,0.0,0.0,0.0,0.0,0.0,0.0,0.0,0.0,0.0,0.0,0.0,0.0,0.0,0.0,0.0,0.0,0.0,0.0,0.0,0.0,0.0,0.0,0.0,0.0,0.0,0.0,0.0,0.0,0.0,0.0,0.0,0.0,0.0,0.0,0.0,0.0,0.0,0.0,0.0,0.0,0.0,0.0,0.0,0.0,0.0,0.0,0.0,0.0,0.0,0.0,0.0,0.0,0.0,0.0,0.0,0.0,0.0,0.0,0.0,0.0,0.0,0.0,0.0,0.0,0.0,0.0,0.0,0.0,0.0,0.0,0.0,0.0,0.0,0.0,0.0,0.0,0.0,0.0,0.0,0.0,0.0,0.0,0.0,0.0,0.0,0.0,0.0,0.0,0.0,0.0,0.0,0.0,0.0,0.0,0.0,0.0,0.0,0.0,0.0,0.0,0.0,0.0,0.0,0.0,0.0,0.0,0.0,0.0,0.0,0.0,0.0,0.0,0.0,0.0,0.0,0.0,0.0,0.0,0.0,0.0,0.0,0.0,0.0,0.0,0.0,0.0,0.0,0.0,0.0,0.0,0.0,0.0,0.0,0.0,0.0,0.0,0.0,0.0,0.0,0.0,0.0,0.0,0.0,0.0,0.0,0.0,0.0,0.0,0.0,0.0,0.0,0.0,0.0,0.0,0.0,0.0,0.0,0.0,0.0,0.0,0.0,0.0,0.0,0.0,0.0,0.0,0.0,0.0,0.0,0.0,0.0,0.0,0.0,0.0,0.0,0.0,0.0,0.0,0.0,0.1712,0.1084,0.0378,0.0,0.0,0.0,0.0,0.0,0.0,0.0,0.0,0.0,0.0,0.0,0.0,0.0,0.0,0.0,0.0,0.0,0.0,0.0,0.0,0.0,0.0,0.0,0.0,0.0,0.0,0.0,0.0,0.0,0.0,0.0,0.0,0.0,0.0,0.0,0.0,0.0,0.0,0.0,0.0,0.0,0.0,0.0,0.0,0.0,0.0,0.0,0.0,0.0,0.0,0.0,0.0,0.0,0.0,0.0,0.0,0.0,0.0,0.0,0.0,0.0,0.0,0.0,0.0,0.0,0.0,0.0,0.0,0.0,0.0,0.0,0.0,0.0,0.0,0.0,0.0,0.0,0.0,0.0,0.0,0.0,0.0,0.0,0.0,0.0,0.0,0.0,0.0,0.0,0.0,0.0,0.0,0.0,0.0,0.0,0.0,0.0,0.0,0.0,0.0,0.0,0.0,0.0,0.0,0.0,0.0,0.0,0.0,0.0,0.0,0.0,0.0,0.0,0.0,0.1052,0.0309,0.0,0.0,0.0,0.0,0.0,0.0,0.0,0.0,0.0,0.0,0.0,0.0,0.0,0.0,0.0,0.0,0.0,0.0,0.0,0.0,0.0,0.0,0.0,0.0,0.0,0.0,0.0,0.0,0.0,0.0,0.0,0.0,0.0,0.0,0.0,0.0,0.0,0.0,0.0,0.0,0.0,0.0,0.0,0.0,0.0,0.0,0.0,0.0,0.0,0.0,0.0,0.0,0.0,0.0,0.0,0.0,0.0,0.0,0.0,0.0,0.0,0.0,0.0,0.0,0.0,0.0,0.0,0.0,0.0,0.0,0.0,0.0,0.0,0.0,0.0,0.0,0.0,0.0,0.0,0.0,0.0,0.0,0.0,0.0,0.0,0.0,0.0,0.0,0.0,0.0,0.0,0.0,0.0,0.0,0.0,0.0,0.0,0.0,0.0,0.0,0.0,0.0,0.0,0.0,0.0,0.0,0.0,0.0,0.0,0.0,0.0,0.4684,0.27,0.2112,0.0,0.0,0.0,0.0,0.0,0.0,0.0,0.0,0.0,0.0,0.0,0.0,0.0,0.0,0.0,0.0,0.0,0.0,0.0,0.0,0.0,0.0,0.0,0.0,0.0,0.0,0.0,0.0,0.0,0.0,0.0,0.0,0.0,0.0,0.0,0.0,0.0,0.0,0.0,0.0,0.0,0.0,0.0,0.0,0.0,0.0,0.0,0.0,0.0,0.0,0.0,0.0,0.0,0.0,0.0,0.0,0.0,0.0,0.0,0.0,0.0,0.0,0.0,0.0,0.0,0.0,0.0,0.0,0.0,0.0,0.0,0.0,0.0,0.0,0.0,0.0,0.0,0.0,0.0,0.0,0.0,0.0,0.0,0.0,0.0,0.0,0.0,0.0,0.0,0.0,0.0,0.0,0.0,0.0,0.0,0.0,0.0,0.0,0.0,0.0,0.0,0.0,0.0,0.0,0.0,0.0,0.0,0.0,0.0,0.0,0.0,0.0,0.5991,0.5087,0.3349,0.2181,0.0,0.0,0.0,0.0,0.0,0.0,0.0,0.0,0.0,0.0,0.0,0.0,0.0,0.0,0.0,0.0,0.0,0.0,0.0,0.0,0.0,0.0,0.0,0.0,0.0,0.0,0.0,0.0,0.0,0.0,0.0,0.0,0.0,0.0,0.0,0.0,0.0,0.0,0.0,0.0,0.0,0.0,0.0,0.0,0.0,0.0,0.0,0.0,0.0,0.0,0.0,0.0,0.0,0.0,0.0,0.0,0.0,0.0,0.0,0.0,0.0,0.0,0.0,0.0,0.0,0.0,0.0,0.0,0.0,0.0,0.0,0.0,0.0,0.0,0.0,0.0,0.0,0.0,0.0,0.0,0.0,0.0,0.0,0.0,0.0,0.0,0.0,0.0,0.0,0.0,0.0,0.0,0.0,0.0,0.0,0.0,0.0,0.0,0.0,0.0,0.0,0.0,0.0,0.0,0.0,0.0,0.0,0.0,0.0,0.0,0.7636,0.7067,0.6604,0.3975,0.251,0.249,0.0,0.0,0.0,0.0,0.0,0.0,0.0,0.0,0.0,0.0,0.0,0.0,0.0,0.0,0.0,0.0,0.0,0.0,0.0,0.0,0.0,0.0,0.0,0.0,0.0,0.0,0.0,0.0,0.0,0.0,0.0,0.0,0.0,0.0,0.0,0.0,0.0,0.0,0.0,0.0,0.0,0.0,0.0,0.0,0.0,0.0,0.0,0.0,0.0,0.0,0.0,0.0,0.0,0.0,0.0,0.0,0.0,0.0,0.0,0.0,0.0,0.0,0.0,0.0,0.0,0.0,0.0,0.0,0.0,0.0,0.0,0.0,0.0,0.0,0.0,0.0,0.0,0.0,0.0,0.0,0.0,0.0,0.0,0.0,0.0,0.0,0.0,0.0,0.0,0.0,0.0,0.0,0.0,0.0,0.0,0.0,0.0,0.0,0.0,0.0,0.0,0.0,0.0,0.0,0.0,0.0,0.0,0.0,0.9245,0.883,0.7996,0.6672,0.368,0.2047,0.0,0.0,0.0,0.0,0.0,0.0,0.0,0.0,0.0,0.0,0.0,0.0,0.0,0.0,0.0,0.0,0.0,0.0,0.0,0.0,0.0,0.0,0.0,0.0,0.0,0.0,0.0,0.0,0.0,0.0,0.0,0.0,0.0,0.0,0.0,0.0,0.0,0.0,0.0,0.0,0.0,0.0,0.0,0.0,0.0,0.0,0.0,0.0,0.0,0.0,0.0,0.0,0.0,0.0,0.0,0.0,0.0,0.0,0.0,0.0,0.0,0.0,0.0,0.0,0.0,0.0,0.0,0.0,0.0,0.0,0.0,0.0,0.0,0.0,0.0,0.0,0.0,0.0,0.0,0.0,0.0,0.0,0.0,0.0,0.0,0.0,0.0,0.0,0.0,0.0,0.0,0.0,0.0,0.0,0.0,0.0,0.0,0.0,0.0,0.0,0.0,0.0,0.0,0.0,0.0,0.0,0.0,0.0,0.0,0.8453,0.78,0.6932,0.5847,0.3645,0.2824,0.0,0.0,0.0,0.0,0.0,0.0,0.0,0.0,0.0,0.0,0.0,0.0,0.0,0.0,0.0,0.0,0.0,0.0,0.0,0.0,0.0,0.0,0.0,0.0,0.0,0.0,0.0,0.0,0.0,0.0,0.0,0.0,0.0,0.0,0.0,0.0,0.0,0.0,0.0,0.0,0.0,0.0,0.0,0.0,0.0,0.0,0.0,0.0,0.0,0.0,0.0,0.0,0.0,0.0,0.0,0.0,0.0,0.0,0.0,0.0,0.0,0.0,0.0,0.0,0.0,0.0,0.0,0.0,0.0,0.0,0.0,0.0,0.0,0.0,0.0,0.0,0.0,0.0,0.0,0.0,0.0,0.0,0.0,0.0,0.0,0.0,0.0,0.0,0.0,0.0,0.0,0.0,0.0,0.0,0.0,0.0,0.0,0.0,0.0,0.0,0.0,0.0,0.0,0.0,0.0,0.0,0.0,0.0,0.0,0.6931,0.0,0.5764,0.5163,0.3412,0.2856,0.0,0.0,0.0,0.0,0.0,0.0,0.0,0.0,0.0,0.0,0.0,0.0,0.0,0.0,0.0,0.0,0.0,0.0,0.0,0.0,0.0,0.0,0.0,0.0,0.0,0.0,0.0,0.0,0.0,0.0,0.0,0.0,0.0,0.0,0.0,0.0,0.0,0.0,0.0,0.0,0.0,0.0,0.0,0.0,0.0,0.0,0.0,0.0,0.0,0.0,0.0,0.0,0.0,0.0,0.0,0.0,0.0,0.0,0.0,0.0,0.0,0.0,0.0,0.0,0.0,0.0,0.0,0.0,0.0,0.0,0.0,0.0,0.0,0.0,0.0,0.0,0.0,0.0,0.0,0.0,0.0,0.0,0.0,0.0,0.0,0.0,0.0,0.0,0.0,0.0,0.0,0.0,0.0,0.0,0.0,0.0,0.0,0.0,0.0,0.0,0.0,0.0,0.0,0.0,0.0,0.0,0.0,0.0,0.5514,0.4777,0.4706,0.4631,0.465,0.2901,0.1974,0.0,0.0,0.0,0.0,0.0,0.0,0.0,0.0,0.0,0.0,0.0,0.0,0.0,0.0,0.0,0.0,0.0,0.0,0.0,0.0,0.0,0.0,0.0,0.0,0.0,0.0,0.0,0.0,0.0,0.0,0.0,0.0,0.0,0.0,0.0,0.0,0.0,0.0,0.0,0.0,0.0,0.0,0.0,0.0,0.0,0.0,0.0,0.0,0.0,0.0,0.0,0.0,0.0,0.0,0.0,0.0,0.0,0.0,0.0,0.0,0.0,0.0,0.0,0.0,0.0,0.0,0.0,0.0,0.0,0.0,0.0,0.0,0.0,0.0,0.0,0.0,0.0,0.0,0.0,0.0,0.0,0.0,0.0,0.0,0.0,0.0,0.0,0.0,0.0,0.0,0.0,0.0,0.0,0.0,0.0,0.0,0.0,0.0,0.0,0.0,0.0,0.0,0.0,0.0,0.0,0.0,0.0,0.0,0.0,0.4602,0.349,0.2997,0.3257,0.1582,0.1012,0.0,0.0,0.0,0.0,0.0,0.0,0.0,0.0,0.0,0.0,0.0,0.0,0.0,0.0,0.0,0.0,0.0,0.0,0.0,0.0,0.0,0.0,0.0,0.0,0.0,0.0,0.0,0.0,0.0,0.0,0.0,0.0,0.0,0.0,0.0,0.0,0.0,0.0,0.0,0.0,0.0,0.0,0.0,0.0,0.0,0.0,0.0,0.0,0.0,0.0,0.0,0.0,0.0,0.0,0.0,0.0,0.0,0.0,0.0,0.0,0.0,0.0,0.0,0.0,0.0,0.0,0.0,0.0,0.0,0.0,0.0,0.0,0.0,0.0,0.0,0.0,0.0,0.0,0.0,0.0,0.0,0.0,0.0,0.0,0.0,0.0,0.0,0.0,0.0,0.0,0.0,0.0,0.0,0.0,0.0,0.0,0.0,0.0,0.0,0.0,0.0,0.0,0.0,0.0,0.0,0.0,0.0,0.0,0.0,0.3771,0.2196,0.1397,0.1689,0.0578,0.0348,0.1102,0.0,0.0,0.0,0.0,0.0,0.0,0.0,0.0,0.0,0.0,0.0,0.0,0.0,0.0,0.0,0.0,0.0,0.0,0.0,0.0,0.0,0.0,0.0,0.0,0.0,0.0,0.0,0.0,0.0,0.0,0.0,0.0,0.0,0.0,0.0,0.0,0.0,0.0,0.0,0.0,0.0,0.0,0.0,0.0,0.0,0.0,0.0,0.0,0.0,0.0,0.0,0.0,0.0,0.0,0.0,0.0,0.0,0.0,0.0,0.0,0.0,0.0,0.0,0.0,0.0,0.0,0.0,0.0,0.0,0.0,0.0,0.0,0.0,0.0,0.0,0.0,0.0,0.0,0.0,0.0,0.0,0.0,0.0,0.0,0.0,0.0,0.0,0.0,0.0,0.0,0.0,0.0,0.0,0.0,0.0,0.0,0.0,0.0,0.0,0.0,0.0,0.0,0.0,0.0,0.0,0.0,0.0,0.0,0.2513,0.0888,0.0071,0.0204,0.0065,0.0,0.0,0.0,0.0,0.0,0.0,0.0,0.0,0.0,0.0,0.0,0.0,0.0,0.0,0.0,0.0,0.0,0.0,0.0,0.0,0.0,0.0,0.0,0.0,0.0,0.0,0.0,0.0,0.0,0.0,0.0,0.0,0.0,0.0,0.0,0.0,0.0,0.0,0.0,0.0,0.0,0.0,0.0,0.0,0.0,0.0,0.0,0.0,0.0,0.0,0.0,0.0,0.0,0.0,0.0,0.0,0.0,0.0,0.0,0.0,0.0,0.0,0.0,0.0,0.0,0.0,0.0,0.0,0.0,0.0,0.0,0.0,0.0,0.0,0.0,0.0,0.0,0.0,0.0,0.0,0.0,0.0,0.0,0.0,0.0,0.0,0.0,0.0,0.0,0.0,0.0,0.0,0.0,0.0,0.0,0.0,0.0,0.0,0.0,0.0,0.0,0.0,0.0,0.0,0.0,0.0,0.0,0.0,0.0,0.0,0.0656,0.0232,0.0625,0.1898,0.0684,0.0,0.0,0.0,0.0,0.0,0.0,0.0,0.0,0.0,0.0,0.0,0.0,0.0,0.0,0.0,0.0,0.0,0.0,0.0,0.0,0.0,0.0,0.0,0.0,0.0,0.0,0.0,0.0,0.0,0.0,0.0,0.0,0.0,0.0,0.0,0.0,0.0,0.0,0.0,0.0,0.0,0.0,0.0,0.0,0.0,0.0,0.0,0.0,0.0,0.0,0.0,0.0,0.0,0.0,0.0,0.0,0.0,0.0,0.0,0.0,0.0,0.0,0.0,0.0,0.0,0.0,0.0,0.0,0.0,0.0,0.0,0.0,0.0,0.0,0.0,0.0,0.0,0.0,0.0,0.0,0.0,0.0,0.0,0.0,0.0,0.0,0.0,0.0,0.0,0.0,0.0,0.0,0.0,0.0,0.0,0.0,0.0,0.0,0.0,0.0,0.0,0.0,0.0,0.0,0.0,0.0,0.0,0.0,0.0,0.0,0.0,0.0,0.0499,0.1561,0.0557,0.0,0.0,0.0,0.0,0.0,0.0,0.0,0.0,0.0,0.0,0.0,0.0,0.0,0.0,0.0,0.0,0.0,0.0,0.0,0.0,0.0,0.0,0.0,0.0,0.0,0.0,0.0,0.0,0.0,0.0,0.0,0.0,0.0,0.0,0.0,0.0,0.0,0.0,0.0,0.0,0.0,0.0,0.0,0.0,0.0,0.0,0.0,0.0,0.0,0.0,0.0,0.0,0.0,0.0,0.0,0.0,0.0,0.0,0.0,0.0,0.0,0.0,0.0,0.0,0.0,0.0,0.0,0.0,0.0,0.0,0.0,0.0,0.0,0.0,0.0,0.0,0.0,0.0,0.0,0.0,0.0,0.0,0.0,0.0,0.0,0.0,0.0,0.0,0.0,0.0,0.0,0.0,0.0,0.0,0.0,0.0,0.0,0.0,0.0,0.0,0.0,0.0,0.0,0.0,0.0,0.0,0.0,0.0,0.0,0.0,0.0,0.0,0.0,0.0,0.0,0.0,0.0,0.0,0.0,0.0,0.0,0.0,0.0,0.0,0.0,0.0,0.0,0.0,0.0,0.0,0.0,0.0,0.0,0.0,0.0,0.0,0.0,0.0,0.0,0.0,0.0,0.0,0.0,0.0,0.0,0.0,0.0,0.0,0.0,0.0,0.0,0.0,0.0,0.0,0.0,0.0,0.0,0.0,0.0,0.0,0.0,0.0,0.0,0.0,0.0,0.0,0.0,0.0,0.0,0.0,0.0,0.0,0.0,0.0,0.0,0.0,0.0,0.0,0.0,0.0,0.0,0.0,0.0,0.0,0.0,0.0,0.0,0.0,0.0,0.0,0.0,0.0,0.0,0.0,0.0,0.0,0.0,0.0,0.0,0.0,0.0,0.0,0.0,0.0,0.0,0.0,0.0,0.0,0.0,0.0,0.0,0.0,0.0,0.0,0.0,0.0,0.0,0.0,0.0,0.0,0.0,0.0,0.0,0.0,0.0,0.0,0.0,0.0,0.0,0.0,0.0,0.0,0.0,0.0,0.0,0.0,0.0,0.0,0.0,0.0,0.0,0.0,0.0,0.0,0.0,0.0,0.0,0.0,0.0,0.0,0.0,0.0,0.0,0.0,0.0,0.0,0.0,0.0,0.0,0.0,0.0,0.0,0.0,0.0,0.0,0.0,0.0,0.0,0.0,0.0,0.0,0.0,0.0,0.0,0.0,0.0,0.0,0.0,0.0,0.9444,0.0,0.0,0.0,0.0,0.0,0.0,0.0,0.0,0.0,0.0,0.0,0.0,0.0,0.0,0.0,0.0,0.0,0.0,0.0,0.0,0.0,0.0,0.0,0.0,0.0,0.0,0.0,0.0,0.0,0.0,0.0,0.0,0.0,0.0,0.0,0.0,0.0,0.0,0.0,0.0,0.0,0.0,0.0,0.0,0.0,0.0,0.0,0.0,0.0,0.0,0.0,0.0,0.0,0.0,0.0,0.0,0.0,0.0,0.0,0.0,0.0,0.0,0.0,0.0,0.0,0.0,0.0,0.0,0.0,0.0,0.0,0.0,0.0,0.0,0.0,0.0,0.0,0.0,0.0,0.0,0.0,0.0,0.0,0.0,0.0,0.0,0.0,0.0,0.0,0.0,0.0,0.0,0.0,0.0,0.0,0.0,0.0,0.0,0.0,0.0,0.0,0.0,0.0,0.0,0.0,0.0,0.0,0.0,0.0,0.0,0.0,0.0,0.0,0.0,0.0,0.0,0.0,0.0,0.0,0.0,0.0,0.0,0.0,0.0,0.0,0.0,0.0,0.0,0.0,0.0,0.0,0.0,0.0,0.0,0.0,0.0,0.0,0.0,0.0,0.0,0.0,0.0,0.0,0.0,0.0,0.0,0.0,0.0,0.0,0.0,0.0,0.0,0.0,0.0,0.0,0.0,0.0,0.0,0.0,0.0,0.0,0.0,0.0,0.0,0.0,0.0,0.0,0.0,0.0,0.0,0.0,0.0,0.0,0.0,0.0,0.0,0.0,0.0,0.0,0.0,0.0,0.0,0.0,0.0,0.0,0.0,0.0,0.0,0.0,0.0,0.0,0.0,0.0,0.0,0.0,0.0,0.0,0.0,0.0,0.0,0.0,0.0,0.0,0.0,0.0,0.0,0.0,0.0,0.0,0.0,0.0,0.0,0.0,0.0,0.0,0.0,0.0,0.0,0.0,0.0,0.3059,0.3347,0.0,0.0,0.0,0.0,0.0,0.0,0.0,0.0,0.8392,0.0,0.0,0.0,0.0,0.0,0.0,0.0,0.0,0.0,0.0,0.0,0.0,0.0,0.0,0.0,0.0,0.0,0.0,0.0,0.0,0.0,0.0,0.0,0.0,0.0,0.0,0.0,0.0,0.0,0.0,0.0,0.0,0.0,0.0,0.0,0.0,0.0,0.0,0.0,0.0,0.0,0.0,0.0,0.0,0.0,0.0,0.0,0.0,0.0,0.0,0.0,0.0,0.0,0.0,0.0,0.0,0.0,0.0,0.0,0.0,0.0,0.0,0.0,0.0,0.0,0.0,0.0,0.0,0.0,0.0,0.0,0.0,0.0,0.0,0.0,0.0,0.0,0.0,0.0,0.0,0.0,0.0,0.0,0.0,0.0,0.0,0.0,0.0,0.0,0.0,0.0,0.0,0.0,0.0,0.0,0.0,0.0,0.0,0.0,0.0,0.0,0.0,0.0,0.0,0.0,0.6372,0.7165,0.0,0.0,0.0,0.0,0.0,0.0,0.0,0.0,0.7353,0.0,0.0,0.0,0.0,0.0,0.0,0.0,0.0,0.0,0.0,0.0,0.0,0.0,0.0,0.0,0.0,0.0,0.0,0.0,0.0,0.0,0.0,0.0,0.0,0.0,0.0,0.0,0.0,0.0,0.0,0.0,0.0,0.0,0.0,0.0,0.0,0.0,0.0,0.0,0.0,0.0,0.0,0.0,0.0,0.0,0.0,0.0,0.0,0.0,0.0,0.0,0.0,0.0,0.0,0.0,0.0,0.0,0.0,0.0,0.0,0.0,0.0,0.0,0.0,0.0,0.0,0.0,0.0,0.0,0.0,0.0,0.0,0.0,0.0,0.0,0.0,0.0,0.0,0.0,0.0,0.0,0.0,0.0,0.0,0.0,0.0,0.0,0.0,0.0,0.0,0.0,0.0,0.0,0.0,0.0,0.0,0.0,0.0,0.0,0.0,0.0,0.0,0.0,0.0,0.685,0.6523,0.5496,0.0,0.0,0.0,0.0,0.0,0.0,0.6165,0.6418,0.0,0.0,0.0,0.0,0.0,0.0,0.0,0.0,0.0,0.0,0.0,0.0,0.0,0.0,0.0,0.0,0.0,0.0,0.0,0.0,0.0,0.0,0.0,0.0,0.0,0.0,0.0,0.0,0.0,0.0,0.0,0.0,0.0,0.0,0.0,0.0,0.0,0.0,0.0,0.0,0.0,0.0,0.0,0.0,0.0,0.0,0.0,0.0,0.0,0.0,0.0,0.0,0.0,0.0,0.0,0.0,0.0,0.0,0.0,0.0,0.0,0.0,0.0,0.0,0.0,0.0,0.0,0.0,0.0,0.0,0.0,0.0,0.0,0.0,0.0,0.0,0.0,0.0,0.0,0.0,0.0,0.0,0.0,0.0,0.0,0.0,0.0,0.0,0.0,0.0,0.0,0.0,0.0,0.0,0.0,0.0,0.0,0.0,0.0,0.0,0.0,0.0,0.0,0.0,0.0,0.5396,0.5059,0.4655,0.0,0.0,0.0,0.0,0.4805,0.4606,0.0,0.0,0.0,0.0,0.0,0.0,0.0,0.0,0.0,0.0,0.0,0.0,0.0,0.0,0.0,0.0,0.0,0.0,0.0,0.0,0.0,0.0,0.0,0.0,0.0,0.0,0.0,0.0,0.0,0.0,0.0,0.0,0.0,0.0,0.0,0.0,0.0,0.0,0.0,0.0,0.0,0.0,0.0,0.0,0.0,0.0,0.0,0.0,0.0,0.0,0.0,0.0,0.0,0.0,0.0,0.0,0.0,0.0,0.0,0.0,0.0,0.0,0.0,0.0,0.0,0.0,0.0,0.0,0.0,0.0,0.0,0.0,0.0,0.0,0.0,0.0,0.0,0.0,0.0,0.0,0.0,0.0,0.0,0.0,0.0,0.0,0.0,0.0,0.0,0.0,0.0,0.0,0.0,0.0,0.0,0.0,0.0,0.0,0.0,0.0,0.0,0.0,0.0,0.0,0.0,0.0,0.509,0.3274,0.2902,0.3358,0.0,0.0,0.3075,0.2979,0.2864,0.0,0.0,0.0,0.0,0.0,0.0,0.0,0.0,0.0,0.0,0.0,0.0,0.0,0.0,0.0,0.0,0.0,0.0,0.0,0.0,0.0,0.0,0.0,0.0,0.0,0.0,0.0,0.0,0.0,0.0,0.0,0.0,0.0,0.0,0.0,0.0,0.0,0.0,0.0,0.0,0.0,0.0,0.0,0.0,0.0,0.0,0.0,0.0,0.0,0.0,0.0,0.0,0.0,0.0,0.0,0.0,0.0,0.0,0.0,0.0,0.0,0.0,0.0,0.0,0.0,0.0,0.0,0.0,0.0,0.0,0.0,0.0,0.0,0.0,0.0,0.0,0.0,0.0,0.0,0.0,0.0,0.0,0.0,0.0,0.0,0.0,0.0,0.0,0.0,0.0,0.0,0.0,0.0,0.0,0.0,0.0,0.0,0.0,0.0,0.0,0.0,0.0,0.0,0.0,0.0,0.0,0.0,0.142,0.1972,0.0,0.0,0.0,0.2294,0.1332,0.0,0.0,0.0,0.0,0.0,0.0,0.0,0.0,0.0,0.0,0.0,0.0,0.0,0.0,0.0,0.0,0.0,0.0,0.0,0.0,0.0,0.0,0.0,0.0,0.0,0.0,0.0,0.0,0.0,0.0,0.0,0.0,0.0,0.0,0.0,0.0,0.0,0.0,0.0,0.0,0.0,0.0,0.0,0.0,0.0,0.0,0.0,0.0,0.0,0.0,0.0,0.0,0.0,0.0,0.0,0.0,0.0,0.0,0.0,0.0,0.0,0.0,0.0,0.0,0.0,0.0,0.0,0.0,0.0,0.0,0.0,0.0,0.0,0.0,0.0,0.0,0.0,0.0,0.0,0.0,0.0,0.0,0.0,0.0,0.0,0.0,0.0,0.0,0.0,0.0,0.0,0.0,0.0,0.0,0.0,0.0,0.0,0.0,0.0,0.0,0.0,0.0,0.0,0.0,0.0,0.0,0.0,0.2021,0.0248,0.116,0.1532,0.0,0.0,0.1562,0.0,0.0,0.0407,0.0,0.0,0.0,0.0,0.0,0.0,0.0,0.0,0.0,0.0,0.0,0.0,0.0,0.0,0.0,0.0,0.0,0.0,0.0,0.0,0.0,0.0,0.0,0.0,0.0,0.0,0.0,0.0,0.0,0.0,0.0,0.0,0.0,0.0,0.0,0.0,0.0,0.0,0.0,0.0,0.0,0.0,0.0,0.0,0.0,0.0,0.0,0.0,0.0,0.0,0.0,0.0,0.0,0.0,0.0,0.0,0.0,0.0,0.0,0.0,0.0,0.0,0.0,0.0,0.0,0.0,0.0,0.0,0.0,0.0,0.0,0.0,0.0,0.0,0.0,0.0,0.0,0.0,0.0,0.0,0.0,0.0,0.0,0.0,0.0,0.0,0.0,0.0,0.0,0.0,0.0,0.0,0.0,0.0,0.0,0.0,0.0,0.0,0.0,0.0,0.0,0.0,0.0,0.0,0.0,0.2042,0.0251,0.0086,0.0,0.0,0.0,0.013,0.0,0.0,0.0,0.0,0.0,0.0,0.0,0.0,0.0,0.0,0.0,0.0,0.0,0.0,0.0,0.0,0.0,0.0,0.0,0.0,0.0,0.0,0.0,0.0,0.0,0.0,0.0,0.0,0.0,0.0,0.0,0.0,0.0,0.0,0.0,0.0,0.0,0.0,0.0,0.0,0.0,0.0,0.0,0.0,0.0,0.0,0.0,0.0,0.0,0.0,0.0,0.0,0.0,0.0,0.0,0.0,0.0,0.0,0.0,0.0,0.0,0.0,0.0,0.0,0.0,0.0,0.0,0.0,0.0,0.0,0.0,0.0,0.0,0.0,0.0,0.0,0.0,0.0,0.0,0.0,0.0,0.0,0.0,0.0,0.0,0.0,0.0,0.0,0.0,0.0,0.0,0.0,0.0,0.0,0.0,0.0,0.0,0.0,0.0,0.0,0.0,0.0,0.0,0.0,0.0,0.0,0.0,0.0,0.0773,0.0,0.0,0.0,0.0,0.0,0.0,0.0,0.0,0.0,0.0,0.0,0.0,0.0,0.0,0.0,0.0,0.0,0.0,0.0,0.0,0.0,0.0,0.0,0.0,0.0,0.0,0.0,0.0,0.0,0.0,0.0,0.0,0.0,0.0,0.0,0.0,0.0,0.0,0.0,0.0,0.0,0.0,0.0,0.0,0.0,0.0,0.0,0.0,0.0,0.0,0.0,0.0,0.0,0.0,0.0,0.0,0.0,0.0,0.0,0.0,0.0,0.0,0.0,0.0,0.0,0.0,0.0,0.0,0.0,0.0,0.0,0.0,0.0,0.0,0.0,0.0,0.0,0.0,0.0,0.0,0.0,0.0,0.0,0.0,0.0,0.0,0.0,0.0,0.0,0.0,0.0,0.0,0.0,0.0,0.0,0.0,0.0,0.0,0.0,0.0,0.0,0.0,0.0,0.0,0.0,0.0,0.0,0.0,0.0,0.0,0.0,0.0,0.0,0.0,0.0,0.0,0.0,0.0,0.0,0.0,0.0,0.0,0.0,0.0,0.0,0.0,0.0,0.0,0.0,0.0,0.0,0.0,0.0,0.0,0.0,0.0,0.0,0.0,0.0,0.0,0.0,0.0,0.0,0.0,0.0,0.0,0.0,0.0,0.0,0.0,0.0,0.0,0.0,0.0,0.0,0.0,0.0,0.0,0.0,0.0,0.0,0.0,0.0,0.0,0.0,0.0,0.0,0.0,0.0,0.0,0.0,0.0,0.0,0.0,0.0,0.0,0.0,0.0,0.0,0.0,0.0,0.0,0.0,0.0,0.0,0.0,0.0,0.0,0.0,0.0,0.0,0.0,0.0,0.0,0.0,0.0,0.0,0.0,0.0,0.0,0.0,0.0,0.0,0.0,0.0,0.0,0.0,0.0,0.0,0.0,0.0,0.0,0.0,0.0,0.0,0.0,0.0,0.0,0.0,0.0,0.0,0.0,0.0,0.0,0.0,0.0,0.0,0.0,0.0,0.0,0.0,0.0,0.0,0.0,0.0,0.0,0.0,0.0,0.0,0.0,0.0,0.0,0.0,0.0,0.0,0.0,0.0,0.0,0.0,0.0,0.0,0.0,0.0,0.0,0.0,0.0,0.0,0.0,0.0,0.0,0.0,0.0,0.0,0.0,0.0,0.0,0.0,0.0,0.0,0.0,0.0,0.0,0.0,0.0,0.0,0.0,0.0,0.0,0.0,-0.515,-0.527,0.0,0.0,0.0,0.0,0.0,0.0,0.0,0.0,0.0,0.0,0.0,0.0,0.0,0.0,0.0,0.0,0.0,0.0,0.0,0.0,0.0,0.0,0.0,0.0,0.0,0.0,0.0,0.0,0.0,0.0,0.0,0.0,0.0,0.0,0.0,0.0,0.0,0.0,0.0,0.0,0.0,0.0,0.0,0.0,0.0,0.0,0.0,0.0,0.0,0.0,0.0,0.0,0.0,0.0,0.0,0.0,0.0,0.0,0.0,0.0,0.0,0.0,0.0,0.0,0.0,0.0,0.0,0.0,0.0,0.0,0.0,0.0,0.0,0.0,0.0,0.0,0.0,0.0,0.0,0.0,0.0,0.0,0.0,0.0,0.0,0.0,0.0,0.0,0.0,0.0,0.0,0.0,0.0,0.0,0.0,0.0,0.0,0.0,0.0,0.0,-0.14,-0.1447,-0.1398,0.0,0.0,0.0,0.0,0.0,0.0,0.0,0.0,-0.5421,-0.6404,-0.803,-0.8162,-0.8104,-0.8027,-0.794,-0.6143,0.0,0.0,0.0,0.0,0.0,0.0,0.0,0.0,-0.1804,-0.2599,-0.2756,-0.281,-0.2801,-0.2722,-0.2688,-0.2702,-0.2693,-0.2254,-0.1378,-0.1315,-0.0915,0.0,0.0,0.0,0.0,0.0,0.0,0.0,0.0,0.0,0.0,0.0,0.0,0.0,0.0,0.0,0.0,0.0,0.0,0.0,0.0,0.0,0.0,0.0,0.0,0.0,0.0,0.0,0.0,0.0,0.0,0.0,0.0,0.0,0.0,0.0,0.0,0.0,0.0,0.0,0.0,0.0,0.0,0.0,0.0,0.0,0.0,0.0,0.0,0.0,0.0,0.0,0.0,0.0,0.0,0.0,0.0,0.0,0.0,0.0,0.0,0.0,0.0,0.0,0.0,0.0,0.0,0.0,0.0,0.0,0.0,0.0,0.0,0.0,0.0,-0.3046,-0.4225,0.0,-0.418,0.0,0.0,0.0,0.0,-0.6753,-0.7114,0.0,0.0,-0.8312,-0.8547,-0.8791,-0.8896,-0.8809,-0.8736,-0.8741,-0.8617,-0.8365,-0.5405,-0.3791,0.0,0.0,0.0,0.0,0.0,-0.5245,-0.7391,-0.7725,-0.7952,-0.787,-0.779,-0.7715,-0.7698,-0.7557,-0.6373,-0.4064,-0.3886,-0.2791,0.0,0.0,0.0,0.0,0.0,0.0,0.0,0.0,0.0,0.0,0.0,0.0,0.0,0.0,0.0,0.0,0.0,0.0,0.0,0.0,0.0,0.0,0.0,0.0,0.0,0.0,0.0,0.0,0.0,0.0,0.0,0.0,0.0,0.0,0.0,0.0,0.0,0.0,0.0,0.0,0.0,0.0,0.0,0.0,0.0,0.0,0.0,0.0,0.0,0.0,0.0,0.0,0.0,0.0,0.0,0.0,0.0,0.0,0.0,0.0,0.0,0.0,0.0,0.0,0.0,0.0,-0.3986,0.0,0.0,0.0,0.0,-0.6036,-0.6764,-0.613,-0.6889,-0.7169,-0.7139,-0.709,0.0,0.0,0.0,0.0,0.0,0.0,-0.914,-1.1017,-1.1204,-1.2291,-1.4045,-1.4184,-1.4161,-1.4091,-1.3927,-1.3786,-1.3596,-1.0841,-0.8264,-0.5956,0.0,0.0,0.0,0.0,-0.7085,-0.7696,-0.8029,-0.8158,-0.7979,-0.7983,-0.7911,-0.7807,-0.7661,-0.7189,-0.6427,-0.6379,-0.5987,-0.5109,-0.488,0.0,0.0,0.0,0.0,0.0,0.0,0.0,0.0,0.0,0.0,0.0,0.0,0.0,0.0,0.0,0.0,0.0,0.0,0.0,0.0,0.0,0.0,0.0,0.0,0.0,0.0,0.0,0.0,0.0,0.0,0.0,0.0,0.0,0.0,0.0,0.0,0.0,0.0,0.0,0.0,0.0,0.0,0.0,0.0,0.0,0.0,0.0,0.0,0.0,0.0,0.0,0.0,0.0,0.0,0.0,0.0,0.0,0.0,0.0,0.0,0.0,0.0,0.0,0.0,-0.7092,-0.384,-0.5431,-0.6066,-0.6328,-0.8992,-0.958,-0.8657,-0.9637,-1.0055,-1.0034,-0.9957,-1.0348,-1.0982,-1.079,0.0,0.0,0.0,-1.2273,-1.3951,-1.4107,-1.5026,-1.6513,-1.6666,-1.6659,-1.6571,-1.6422,-1.63,-1.6198,-1.4428,-1.2449,-1.0226,0.0,-0.8016,-0.871,-0.9299,-1.0097,-1.1065,-1.1333,-1.1433,-1.1315,-1.1097,-1.0954,-1.0835,-1.0663,-1.0124,-0.9007,-0.8947,-0.8404,-0.7285,-0.6989,-0.6723,0.0,0.0,0.0,0.0,0.0,0.0,0.0,0.0,0.0,0.0,0.0,-0.3915,-0.2488,0.0,0.0,0.0,-0.2815,-0.2602,-0.1757,-0.1642,0.0,0.0,0.0,0.0,0.0,0.0,0.0,0.0,0.0,0.0,0.0,0.0,0.0,0.0,0.0,0.0,0.0,0.0,0.0,0.0,0.0,0.0,0.0,0.0,0.0,0.0,0.0,0.0,0.0,0.0,0.0,0.0,0.0,0.0,0.0,0.0,0.0,0.0,0.0,0.0,0.0,0.0,0.0,-1.0141,-1.0083,-0.9816,-0.9529,-0.9483,-1.1982,-1.1674,-0.9625,-1.1857,-1.2949,-1.3005,-1.2896,-1.3871,-1.5627,-1.5086,0.0,-1.5323,-1.5786,-1.6151,-1.6578,-1.6669,-1.6863,-1.6992,-1.6998,-1.6992,-1.6978,-1.6836,-1.6716,-1.6696,-1.6425,-1.6062,-1.5362,-1.0921,-0.983,-1.1951,-1.2455,-1.3795,-1.604,-1.6209,-1.6283,-1.6249,-1.5893,-1.5594,-1.5384,-1.5269,-1.4064,-1.1769,-1.1554,-1.0389,-0.8109,-0.7727,-0.7493,-0.7238,0.0,0.0,0.0,0.0,0.0,0.0,0.0,0.0,0.0,0.0,0.0,0.0,0.0,0.0,-0.663,-0.72,0.0,-0.4719,-0.4523,0.0,0.0,0.0,-0.0687,-0.0712,0.0,-0.0772,-0.0747,0.0,0.0,-0.0797,0.0,0.0,-0.0395,-0.0168,0.0,0.0,0.0,0.0,0.0,0.0,0.0,0.0,0.0,0.0,0.0,0.0,0.0,0.0,0.0,0.0,0.0,0.0,0.0,0.0,0.0,0.0,0.0,0.0,0.0,0.0,0.0,0.0,-1.6449,-1.6328,-1.6144,-1.4627,-1.2595,-1.5153,-1.5886,-1.5413,-1.5834,-1.6027,-1.5955,-1.5744,-1.5915,-1.6256,-1.6114,-1.6155,-1.6331,-1.6439,-1.6714,-1.7026,-1.7066,-1.7107,-1.7141,-1.7141,-1.7087,-1.6985,-1.6944,-1.6924,-1.6917,-1.6734,-1.652,-1.632,-1.5119,-1.4456,-1.4411,-1.5029,-1.5655,-1.6252,-1.6459,-1.6486,-1.6313,-1.609,-1.5852,-1.5588,-1.5323,-1.4779,-1.397,-1.3822,-1.3381,-1.2688,-1.2348,-1.2107,-1.1824,-1.0889,0.0,0.0,0.0,0.0,0.0,0.0,0.0,0.0,0.0,-0.876,-0.6411,0.0,-0.8607,0.0,-0.7966,-0.8006,-0.7392,-0.7434,0.0,0.0,-0.7128,-0.6846,-0.7018,-0.7105,-0.7208,-0.7334,-0.7349,-0.7338,-0.7443,-0.5269,-0.3735,-0.3719,-0.1552,0.0,0.0,0.0,0.0,0.0,0.0,0.0,0.0,0.0,0.0,0.0,0.0,0.0,0.0,0.0,0.0,0.0,0.0,0.0,0.0,0.0,0.0,0.0,0.0,0.0,0.0,0.0,0.0,-1.8816,-1.8721,-1.8504,-1.7349,-1.5759,-1.7138,-1.7684,-1.7609,-1.746,-1.7317,-1.7168,-1.7012,-1.6863,-1.6727,-1.6727,-1.6775,-1.6856,-1.6917,-1.7032,-1.7195,-1.7263,-1.729,-1.729,-1.7222,-1.7188,-1.7175,-1.7046,-1.7012,-1.7066,-1.6924,-1.6849,-1.6849,-1.6768,-1.6476,-1.6022,-1.6334,-1.6537,-1.6612,-1.67,-1.6588,-1.6408,-1.6191,-1.594,-1.56,-1.5411,-1.5113,-1.4708,-1.4613,-1.4516,-1.4306,-1.4068,-1.381,-1.3463,-1.2745,-1.225,0.0,0.0,0.0,0.0,0.0,0.0,0.0,0.0,0.0,0.0,0.0,-1.0214,-0.8387,-1.0426,-1.147,-1.0549,-1.059,-1.0726,-1.0795,-0.98,-0.916,-0.927,-0.9432,-0.9508,-0.9568,-0.967,-0.9703,-0.976,-0.8201,-0.6514,-0.514,-0.3354,-0.1633,0.0,0.0,0.0,0.0,0.0,0.0,0.0,0.0,0.0,0.0,0.0,0.0,0.0,0.0,0.0,0.0,0.0,0.0,0.0,0.0,0.0,0.0,0.0,0.0,0.0,0.0,0.0,-1.9061,-1.902,-1.8721,-1.8593,-1.8515,-1.8294,-1.8084,-1.7963,-1.7697,-1.7527,-1.7412,-1.7256,-1.7121,-1.7012,-1.6992,-1.6992,-1.7012,-1.7141,-1.7216,-1.7256,-1.7385,-1.7446,-1.7385,-1.7311,-1.7304,-1.7378,-1.7134,-1.706,-1.7154,-1.7039,-1.6978,-1.6978,-1.6978,-1.6978,-1.6971,-1.6849,-1.6842,-1.6978,-1.6849,-1.6655,-1.6551,-1.6279,-1.5988,-1.5634,-1.5479,-1.5181,-1.4721,-1.4674,-1.459,-1.4346,-1.4261,-1.4027,-1.3714,-1.3437,-1.3146,0.0,-1.282,0.0,0.0,0.0,0.0,0.0,0.0,0.0,0.0,-1.2857,-1.139,-0.9804,-1.3681,-1.5589,-1.3902,-1.3847,-1.3949,-1.3926,-1.1932,-1.058,-1.0611,-1.076,-1.0826,-1.0813,-1.0958,-1.1037,-1.1299,-1.076,-0.9288,-0.7042,-0.598,-0.4637,-0.198,0.0,0.0,0.0,0.0,0.0,0.0,0.0,0.0,0.0,0.0,0.0,0.0,0.0,0.0,0.0,0.0,0.0,0.0,0.0,0.0,0.0,0.0,0.0,0.0,0.0,0.0,-1.9461,-1.9318,-1.9027,-1.8905,-1.8891,-1.8708,-1.8484,-1.8213,-1.7941,-1.767,-1.7412,-1.7256,-1.7175,-1.7141,-1.7032,-1.7039,-1.7154,-1.7182,-1.7324,-1.7507,-1.7541,-1.7548,-1.7548,-1.7521,-1.7446,-1.7243,-1.7182,-1.7107,-1.7078,-1.7044,-1.6978,-1.6978,-1.6978,-1.6978,-1.6978,0.0,0.0,0.0,-1.6951,-1.6863,-1.6655,-1.653,-1.6239,-1.5825,-1.5432,0.0,-1.4714,-1.4579,-1.4529,-1.4482,-1.4563,0.0,0.0,0.0,0.0,0.0,0.0,0.0,0.0,0.0,0.0,0.0,-1.4992,-1.4775,-1.4613,-1.5157,-1.5353,-1.4962,-1.6261,-1.6982,-1.6635,-1.6736,-1.6908,-1.7134,-1.6928,-1.6844,-1.6986,-1.7151,-1.7426,-1.7527,-1.7511,-1.7579,-1.7387,-1.5559,-1.3553,-1.2498,-1.0532,-0.8744,-0.7919,-0.34,0.0,0.0,0.0,0.0,0.0,0.0,0.0,0.0,0.0,0.0,0.0,0.0,0.0,0.0,0.0,0.0,0.0,0.0,0.0,0.0,0.0,0.0,0.0,0.0,0.0,-1.9569,-1.9413,-1.9189,-1.9094,0.0,-1.8938,-1.8789,-1.8626,-1.8328,-1.7989,-1.7629,-1.748,-1.7378,-1.7304,-1.7229,-1.7236,-1.7311,-1.7385,-1.7446,-1.7595,-1.7669,-1.7758,-1.7751,-1.7602,-1.7534,-1.7514,-1.7297,-1.7236,-1.7297,-1.7154,-1.7087,-1.7087,-1.7012,-1.6978,-1.6978,-1.6978,-1.6978,-1.6978,-1.6978,-1.6944,-1.6863,-1.6662,-1.6422,-1.603,-1.5744,0.0,0.0,0.0,0.0,0.0,0.0,0.0,0.0,0.0,0.0,-1.4667,-1.4652,-1.474,-1.5045,-1.5269,-1.5573,-1.6094,-1.6337,-1.6243,-1.5729,-1.649,-1.6998,-1.708,-1.7494,-1.7785,-1.786,-1.8063,-1.826,-1.8416,-1.8681,-1.8898,-1.8986,-1.9176,-1.9339,-1.942,-1.9501,-1.9576,-1.9644,-1.837,-1.645,-1.4939,-1.335,-1.1629,-0.9899,-0.7042,-0.4443,-0.2696,-0.0839,0.0,0.0,0.0,0.0,0.0,0.0,0.0,0.0,0.0,0.0,0.0,0.0,0.0,0.0,0.0,0.0,0.0,0.0,0.0,0.0,0.0,0.0,-1.9651,-1.9495,-1.9318,-1.9244,-1.923,-1.9088,-1.9013,-1.8966,-1.8667,0.0,0.0,-1.7751,-1.7548,-1.7406,-1.7433,-1.7433,-1.7412,-1.7534,-1.7609,-1.7636,-1.7806,-1.7915,-1.7902,-1.7616,-1.7616,-1.7799,-1.7419,-1.7358,-1.7534,-1.7324,-1.7195,-1.7182,-1.7073,-1.7005,-1.6985,-1.6978,-1.6978,-1.6978,-1.6978,-1.6978,-1.6978,-1.6777,-1.6558,-1.6164,-1.611,-1.5778,-1.5207,-1.5242,-1.5173,-1.4774,-1.4774,-1.4835,-1.4936,-1.5079,-1.533,-1.5641,-1.5974,-1.6157,-1.6289,-1.6585,-1.6784,-1.6885,-1.7345,-1.7412,-1.6892,-1.7297,-1.7643,-1.7936,-1.8043,-1.8192,-1.8342,-1.8572,-1.88,-1.8796,-1.904,-1.9203,-1.9244,-1.9379,-1.9474,-1.9481,-1.9583,-1.9725,-1.9725,-1.9597,-1.876,-1.634,-1.5707,-1.4765,-1.2106,-1.0396,-0.8367,-0.6082,-0.3979,0.0,0.0,0.0,-0.0663,0.0,0.0,0.0,0.0,0.0,0.0,0.0,0.0,0.0,0.0,0.0,0.0,0.0,0.0,0.0,0.0,0.0,0.0,-1.9949,-1.9786,-1.9515,-1.934,-1.9326,-1.9237,-1.9101,-1.8966,-1.866,-1.8355,-1.805,-1.7901,-1.7758,-1.7554,-1.748,-1.744,-1.7561,-1.7582,-1.7717,-1.7833,-1.7908,-1.7915,-1.7915,-1.7819,-1.7758,-1.767,-1.748,-1.7405,-1.7433,-1.7283,-1.7195,-1.7195,-1.7175,-1.71,-1.6992,-1.6978,-1.6978,-1.6978,-1.6978,-1.6978,-1.6978,-1.6777,-1.6608,-1.6463,-1.6218,-1.6024,-1.5792,-1.5792,-1.5779,-1.5717,-1.584,-1.586,-1.5758,-1.5832,-1.5954,-1.6022,-1.6185,-1.6442,-1.6874,-1.6917,-1.7168,-1.765,-1.7785,-1.7745,-1.75,-1.7812,-1.8016,-1.8063,-1.8206,-1.8348,-1.8427,-1.8501,-1.8708,-1.8932,-1.9108,-1.925,-1.9379,-1.9529,-1.9624,-1.9684,-1.9705,-1.9725,-1.9725,-1.9725,-1.9529,-1.9016,-1.8469,-1.8536,-1.7144,-1.3331,-1.0066,-0.9212,-0.8789,-0.7279,-0.492,-0.4193,-0.3151,-0.0362,0.0,0.0,0.0,0.0,0.0,0.0,0.0,0.0,0.0,0.0,0.0,0.0,0.0,0.0,0.0,0.0,0.0,-2.001,-1.9916,-1.9644,-1.9556,-1.9542,-1.9305,-1.9122,-1.8972,-1.8755,-1.8538,-1.8314,-1.8084,-1.7948,-1.788,-1.7731,-1.7697,-1.7765,-1.7765,-1.7799,-1.7915,-1.7915,-1.7915,-1.7908,-1.7785,-1.7751,-1.7751,-1.7561,-1.7589,-1.7643,-1.7514,-1.7399,-1.7311,-1.7154,-1.708,-1.7093,-1.7019,-1.6978,-1.6978,-1.6978,-1.6978,-1.6978,-1.691,-1.6802,-1.6594,-1.651,-1.6334,-1.611,-1.6103,-1.6062,-1.603,-1.6042,-1.6083,-1.6103,-1.6239,-1.6395,-1.6558,-1.6707,-1.6917,-1.7202,-1.7372,-1.7663,-1.7962,-1.8138,-1.8199,-1.8082,-1.8253,-1.8328,-1.8335,-1.847,-1.862,-1.8762,-1.885,-1.8986,-1.921,-1.9359,-1.9474,-1.9549,-1.961,-1.9725,-1.9725,-1.9725,-1.9725,-1.9725,-1.9725,-1.9725,-1.9725,-1.9725,-1.9725,-1.9725,-1.7204,-1.4411,-1.2765,-1.0992,-0.9348,-0.7826,-0.7582,-0.616,-0.3154,-0.2658,-0.1927,0.0,0.0,0.0,0.0,0.0,0.0,0.0,0.0,0.0,0.0,0.0,0.0,0.0,0.0,0.0,-2.0064,-1.9915,-1.9827,-1.9752,-1.9691,-1.9332,-1.9142,-1.9027,-1.8902,-1.8694,-1.8559,-1.8308,-1.8152,-1.8084,-1.7968,-1.7949,-1.7922,-1.7915,-1.7915,-1.7915,-1.7915,-1.7915,-1.7908,-1.7745,-1.7751,-1.784,-1.7717,-1.7724,-1.7833,-1.7717,-1.7534,-1.7399,-1.7209,-1.7114,-1.7188,-1.7087,-1.7012,-1.6985,-1.6978,-1.6978,-1.6978,-1.6978,-1.6924,-1.6763,-1.675,-1.6693,-1.6476,-1.6463,-1.6408,-1.6293,-1.6286,-1.6341,-1.6456,-1.6564,-1.6748,-1.6998,-1.7127,-1.729,-1.7514,-1.7765,-1.7996,-1.8179,-1.8403,-1.8545,-1.8579,-1.8579,-1.8586,-1.8599,-1.8681,-1.8875,-1.8952,-1.9067,-1.923,-1.9346,-1.9535,-1.9603,-1.9718,-1.9725,-1.9725,-1.9725,-1.9725,-1.9725,-1.9725,-1.9725,-1.9725,-1.9725,-1.9725,-1.9725,-1.9725,-1.9725,-1.8488,-1.6332,-1.3626,-1.1963,-1.1233,-1.0844,-0.9466,-0.657,-0.5948,-0.4599,0.0,0.0,0.0,0.0,0.0,0.0,0.0,0.0,0.0,0.0,0.0,0.0,0.0,0.0,0.0,-2.022,-2.0064,-1.9915,-1.978,-1.9698,-1.9339,-1.9196,-1.9142,-1.8884,-1.882,-1.8773,-1.8565,-1.8342,-1.8111,-1.8084,-1.8002,-1.7936,-1.7922,-1.7929,-1.7929,-1.7915,-1.7915,-1.7915,-1.7902,-1.7908,-1.7902,-1.7717,-1.7731,-1.7846,-1.7717,-1.7588,-1.7554,-1.7406,-1.7311,-1.7209,-1.7175,-1.7107,-1.6985,-1.6978,-1.6978,-1.6978,-1.6978,-1.6971,-1.6958,-1.6958,-1.6951,-1.689,-1.6917,-1.691,-1.6904,-1.6876,-1.6897,-1.691,-1.6931,-1.7005,-1.7161,-1.7195,-1.7372,-1.7834,-1.7982,-1.8192,-1.8457,-1.8511,-1.8593,-1.8715,-1.8793,-1.88,-1.88,-1.8807,-1.883,-1.8966,-1.9013,-1.9156,-1.936,-1.9468,-1.9501,-1.9637,-1.9725,-1.9725,-1.9725,-1.9725,-1.9725,-1.9725,-1.9725,-1.9725,-1.9725,-1.9725,-1.9725,-1.9725,-1.9725,-1.9664,-1.9171,-1.8671,-1.7191,-1.503,-1.4153,-1.2721,-1.008,-0.9244,-0.7793,-0.5572,-0.4292,-0.3734,0.0,0.0,0.0,0.0,0.0,0.0,0.0,0.0,0.0,0.0,0.0,0.0,-2.0295,-2.022,-2.0071,-1.9922,-1.9752,-1.9468,-1.9284,-1.9183,-1.8986,-1.885,-1.882,-1.8694,-1.8552,-1.8348,-1.8267,-1.8186,-1.8131,-1.8138,-1.8084,-1.8002,-1.7996,-1.801,-1.7922,-1.7915,-1.7915,-1.7915,-1.7806,-1.7806,-1.7881,-1.7717,-1.7636,-1.7738,-1.7541,-1.7392,-1.7324,-1.7236,-1.7161,-1.7107,-1.7026,-1.7019,-1.7087,-1.7019,-1.6978,-1.6978,-1.6978,-1.6978,-1.6978,-1.6978,-1.6978,-1.6978,-1.6978,-1.7026,-1.71,-1.7107,-1.7216,-1.7439,-1.7629,-1.7799,-1.7989,-1.8219,-1.8403,-1.8467,-1.862,-1.8694,-1.8755,-1.882,-1.882,-1.882,-1.882,-1.8915,-1.9067,-1.9115,-1.9237,-1.9501,-1.9569,-1.959,-1.9711,-1.9725,-1.9725,-1.9725,-1.9725,-1.9725,-1.9725,-1.9725,-1.9725,-1.9725,-1.9725,-1.9725,-1.9725,-1.9725,-1.9725,-1.9725,-1.9725,-1.9232,-1.78,-1.7642,-1.6071,-1.3738,-1.2678,-1.1459,-0.8781,-0.784,-0.7208,-0.5776,-0.4067,-0.2969,0.0,0.0,0.0,0.0,0.0,0.0,0.0,0.0,0.0,-2.03,-2.0302,-2.0126,-1.9949,-1.9793,-1.9542,-1.9345,-1.9196,-1.9054,-1.8905,-1.8827,-1.882,-1.8701,-1.8586,-1.8443,-1.8362,-1.8321,-1.8321,-1.824,-1.8104,-1.8091,-1.8009,-1.7929,-1.7915,-1.7915,-1.7915,-1.7915,-1.7915,-1.7908,-1.7765,-1.7758,-1.7868,-1.7643,-1.7521,-1.7473,-1.7365,-1.7297,-1.7249,-1.7148,-1.7148,-1.7229,-1.7154,-1.708,-1.7039,-1.6998,-1.7019,-1.71,-1.706,-1.706,-1.71,-1.71,-1.7148,-1.7249,-1.7256,-1.7392,-1.769,-1.7989,-1.8172,-1.8206,-1.8409,-1.8552,-1.8599,-1.8701,-1.882,-1.882,-1.882,-1.882,-1.882,-1.882,-1.8871,-1.9094,-1.9176,-1.9318,-1.9563,-1.963,-1.9725,-1.9725,-1.9725,-1.9725,-1.9725,-1.9725,-1.9725,-1.9725,-1.9725,-1.9725,-1.9725,-1.9725,-1.9725,-1.9725,-1.9725,-1.9725,-1.9725,-1.9725,-1.9664,-1.9718,-1.9354,-1.8261,-1.724,-1.5988,-1.4851,-1.1898,-1.1293,-1.0169,-0.8424,-0.7137,-0.6453,-0.6246,0.0,0.0,0.0,0.0,0.0,0.0,0.0,0.0,-2.0451,-2.0295,-2.001,-1.9827,-1.9725,-1.9508,-1.9345,-1.921,-1.9061,-1.8911,-1.8841,-1.882,-1.8813,-1.8793,-1.8586,-1.845,-1.8342,-1.8342,-1.8267,-1.8131,-1.8104,-1.8016,-1.7922,-1.7915,-1.7922,-1.7922,-1.7936,-1.7929,-1.786,-1.7908,-1.7853,-1.7908,-1.7881,-1.7765,-1.7588,-1.7548,-1.7494,-1.7365,-1.7378,-1.7399,-1.7405,-1.7399,-1.7317,-1.7202,-1.706,-1.7121,-1.7331,-1.7256,-1.7243,-1.7392,-1.7385,-1.7399,-1.7412,-1.7419,-1.7561,-1.784,-1.8138,-1.8369,-1.8413,-1.8467,-1.8593,-1.8715,-1.8807,-1.882,-1.882,-1.882,-1.882,-1.882,-1.882,-1.8895,-1.9,-1.9135,-1.9278,-1.9454,-1.9583,-1.9718,-1.9725,-1.9725,-1.9725,-1.9725,-1.9725,-1.9725,-1.9725,-1.9725,-1.9725,-1.9725,-1.9725,-1.9725,-1.9725,-1.9725,-1.9725,-1.9725,-1.9725,-1.9725,-1.9711,-1.9603,-1.9509,-1.8795,-1.8,-1.7979,-1.6033,-1.4176,-1.2635,-1.1222,-1.0233,-0.972,-0.9555,0.0,0.0,-0.5812,-0.476,0.0,-0.2749,-0.0835,0.0,-2.0449,-2.0374,-2.0146,-1.999,-1.9915,-1.9685,-1.9488,-1.9339,-1.9196,-1.9047,-1.8905,-1.8861,-1.882,-1.882,-1.8701,-1.8654,-1.8606,-1.8606,-1.8518,-1.8375,-1.828,-1.8152,-1.8023,-1.8009,-1.7948,-1.7942,-1.7955,-1.801,-1.7922,-1.7915,-1.7915,-1.7915,-1.7915,-1.7792,-1.7622,-1.7595,-1.7561,-1.7507,-1.7419,-1.7412,-1.7494,-1.7473,-1.7433,-1.7473,-1.7338,-1.7311,-1.7412,-1.7365,-1.7365,-1.7419,-1.7419,-1.7412,-1.7521,-1.7751,-1.7894,-1.8016,-1.8287,-1.8477,-1.8531,-1.8626,-1.8701,-1.8807,-1.882,-1.882,-1.882,-1.882,-1.882,-1.882,-1.882,-1.8888,-1.8972,-1.9115,-1.9305,-1.9529,-1.963,-1.9725,-1.9725,-1.9725,-1.9725,-1.9725,-1.9725,-1.9725,-1.9725,-1.9725,-1.9725,-1.9725,-1.9725,-1.9725,-1.9725,-1.9725,-1.9725,-1.9725,-1.9725,-1.9725,-1.9725,-1.9691,-1.9603,-1.9624,-1.9374,-1.9118,-1.7867,-1.7502,-1.626,-1.5518,-1.4303,-1.2993,-1.2804,-1.1395,-1.003,-0.8767,-0.7812,-0.7293,-0.6409,-0.4824,-0.4043,-2.0449,-2.0374,-2.0207,-2.0071,-1.9997,-1.9827,-1.9542,-1.9359,-1.9244,-1.9094,-1.8918,-1.8861,-1.882,-1.882,-1.882,-1.882,-1.882,-1.8813,-1.8674,-1.8531,-1.843,-1.8308,-1.8186,-1.8165,-1.8084,-1.8017,-1.8038,-1.8017,-1.7936,-1.7915,-1.7915,-1.7915,-1.7915,-1.7819,-1.7731,-1.7717,-1.7717,-1.7697,-1.7616,-1.7623,-1.769,-1.7623,-1.7609,-1.7684,-1.7616,-1.7561,-1.7561,-1.7514,-1.7521,-1.7555,-1.7561,-1.7609,-1.7731,-1.8002,-1.8165,-1.8192,-1.8443,-1.8606,-1.8613,-1.8701,-1.882,-1.882,-1.882,-1.882,-1.882,-1.882,-1.882,-1.8827,-1.8816,-1.8898,-1.904,-1.9189,-1.9359,-1.9556,-1.963,-1.9725,-1.9725,-1.9725,-1.9725,-1.9725,-1.9725,-1.9725,-1.9725,-1.9725,-1.9725,-1.9725,-1.9725,-1.9725,-1.9725,-1.9725,-1.9725,-1.9725,-1.9725,-1.9725,-1.9725,-1.9705,-1.9691,-1.9711,-1.9718,-1.9725,-1.9725,-1.9725,-1.9603,-1.9232,-1.8354,-1.6918,-1.5491,-1.4071,-1.2739,-1.1516,-1.094,-1.0498,-0.9707,-0.8962,-0.7882,-2.0401,-2.0336,-2.0166,-2.0024,-1.9902,-1.9732,-1.9488,-1.9284,-1.9217,-1.9061,-1.8864,-1.8834,-1.882,-1.882,-1.882,-1.882,-1.882,-1.882,-1.8694,-1.8559,-1.8525,-1.845,-1.8328,-1.8321,-1.8253,-1.8111,-1.8004,-1.7936,-1.7942,-1.7929,-1.7922,-1.7929,-1.7929,-1.7922,-1.7922,-1.7853,-1.7902,-1.7895,-1.7874,-1.784,-1.7915,-1.7888,-1.7888,-1.7915,-1.7908,-1.7908,-1.786,-1.7731,-1.7704,-1.7874,-1.7888,-1.7908,-1.7901,-1.8152,-1.8321,-1.8362,-1.8593,-1.8793,-1.8813,-1.8827,-1.8847,-1.8827,-1.8827,-1.8841,-1.882,-1.8834,-1.8841,-1.8868,-1.8918,-1.9047,-1.9196,-1.9325,-1.9367,-1.9447,-1.959,-1.9725,-1.9725,-1.9725,-1.9725,-1.9725,-1.9725,-1.9725,-1.9725,-1.9725,-1.9725,-1.9725,-1.9725,-1.9725,-1.9725,-1.9725,-1.9725,-1.9725,-1.9725,-1.9725,-1.9725,-1.9725,-1.9725,-1.9725,-1.9725,-1.9725,-1.9725,-1.9725,-1.9725,-1.9414,-1.9414,-1.8159,-1.7937,-1.6698,-1.6229,-1.5172,-1.4572,-1.3724,-1.3038,-1.2232,-1.0939,-2.0449,-2.0381,-2.02,-2.0078,-1.9997,-1.9827,-1.9657,-1.9495,-1.9305,-1.9149,-1.904,-1.8909,-1.882,-1.882,-1.882,-1.882,-1.882,-1.882,-1.8793,-1.8674,-1.8586,-1.8518,-1.8477,-1.8464,-1.8437,-1.8355,-1.8138,-1.8023,-1.8002,-1.7976,-1.7963,-1.7982,-1.797,-1.7921,-1.8065,-1.7976,-1.7915,-1.7915,-1.7915,-1.7915,-1.7915,-1.7922,-1.797,-1.8009,-1.8023,-1.8063,-1.8158,-1.7935,-1.7826,-1.7922,-1.7922,-1.7963,-1.805,-1.8301,-1.8457,-1.8427,-1.8647,-1.882,-1.8834,-1.8857,-1.8871,-1.8875,-1.8857,-1.8857,-1.8854,-1.8922,-1.8911,-1.8932,-1.9054,-1.9196,-1.9332,-1.94,-1.9474,-1.9576,-1.9691,-1.9725,-1.9725,-1.9725,-1.9725,-1.9725,-1.9725,-1.9725,-1.9725,-1.9725,-1.9725,-1.9725,-1.9725,-1.9725,-1.9725,-1.9725,-1.9725,-1.9725,-1.9725,-1.9725,-1.9725,-1.9725,-1.9725,-1.9725,-1.9725,-1.9725,-1.9725,-1.9725,-1.9725,-1.9725,-1.9725,-1.9684,-1.9515,-1.916,-1.8417,-1.8252,-1.7457,-1.6829,-1.633,-1.5303,-1.4054,-2.0539,-2.0442,-2.0227,-2.0098,-2.0064,-1.9848,-1.9691,-1.9549,-1.9312,-1.9176,-1.9081,-1.8929,-1.882,-1.882,-1.882,-1.882,-1.882,-1.882,-1.882,-1.8807,-1.8674,-1.862,-1.8606,-1.8552,-1.8474,-1.8491,-1.8287,-1.8179,-1.8172,-1.8084,-1.8084,-1.8145,-1.8077,-1.8084,-1.8165,-1.8084,-1.8036,-1.803,-1.8036,-1.803,-1.8036,-1.803,-1.8077,-1.8158,-1.8179,-1.8226,-1.8294,-1.8077,-1.8004,-1.8004,-1.8004,-1.7996,-1.8104,-1.8355,-1.8474,-1.8515,-1.8721,-1.885,-1.8864,-1.8986,-1.9006,-1.8911,-1.8986,-1.9,-1.8911,-1.8986,-1.9054,-1.902,-1.9169,-1.9305,-1.9345,-1.9468,-1.9556,-1.9711,-1.9725,-1.9725,-1.9725,-1.9725,-1.9725,-1.9725,-1.9725,-1.9725,-1.9725,-1.9725,-1.9725,-1.9725,-1.9725,-1.9725,-1.9725,-1.9725,-1.9725,-1.9725,-1.9725,-1.9725,-1.9725,-1.9725,-1.9725,-1.9725,-1.9725,-1.9725,-1.9725,-1.9725,-1.9725,-1.9725,-1.9725,-1.9718,-1.9569,-1.9596,-1.9219,-1.9468,-1.944,-1.872,-1.7829,-1.8128,-1.7236,-2.0539,-2.0442,-2.0227,-2.0098,-2.0064,-1.9848,-1.9596,-1.9447,-1.9291,-1.9156,-1.9013,-1.8871,-1.8834,-1.8827,-1.882,-1.882,-1.882,-1.882,-1.882,-1.882,-1.88,-1.8793,-1.8721,-1.8626,-1.8572,-1.8545,-1.8403,-1.8335,-1.8328,-1.8287,-1.8321,-1.8321,-1.8294,-1.8321,-1.8314,-1.8321,-1.828,-1.8274,-1.8287,-1.8287,-1.8287,-1.8294,-1.8314,-1.8328,-1.8328,-1.8348,-1.8362,-1.8226,-1.8104,-1.8084,-1.8091,-1.8138,-1.8165,-1.8382,-1.8501,-1.8521,-1.883,-1.8945,-1.9013,-1.9128,-1.9156,-1.9033,-1.9122,-1.9156,-1.9047,-1.9128,-1.9176,-1.9094,-1.9291,-1.9393,-1.9359,-1.9481,-1.9691,-1.9718,-1.9725,-1.9725,-1.9725,-1.9725,-1.9725,-1.9725,-1.9725,-1.9725,-1.9725,-1.9725,-1.9725,-1.9725,-1.9725,-1.9725,-1.9725,-1.9725,-1.9725,-1.9725,-1.9725,-1.9725,-1.9725,-1.9725,-1.9725,-1.9725,-1.9725,-1.9725,-1.9725,-1.9725,-1.9725,-1.9725,-1.9725,-1.9718,-1.9718,-1.9718,-1.963,-1.9549,-1.9461,-1.9366,-1.9298,-1.9244,-1.9137,-2.0539,-2.0442,-2.022,-2.0098,-2.0058,-1.9848,-1.9705,-1.9583,-1.9434,-1.9278,-1.9135,-1.8993,-1.8915,-1.8827,-1.882,-1.882,-1.882,-1.882,-1.882,-1.882,-1.882,-1.882,-1.882,-1.8728,-1.8694,-1.8674,-1.8545,-1.8477,-1.8407,-1.8389,-1.8389,-1.8413,-1.8389,-1.8382,-1.845,-1.8382,-1.8321,-1.8321,-1.8321,-1.8328,-1.8335,-1.8335,-1.8375,-1.8413,-1.8477,-1.8531,-1.8613,-1.8498,-1.824,-1.7975,-1.8253,-1.8362,-1.8301,-1.8531,-1.8687,-1.8721,-1.8871,-1.8993,-1.904,-1.923,-1.9291,-1.9183,-1.9284,-1.9298,-1.9169,-1.9284,-1.9339,-1.9345,-1.9495,-1.9576,-1.9609,-1.961,-1.9718,-1.9725,-1.9725,-1.9725,-1.9725,-1.9725,-1.9725,-1.9725,-1.9725,-1.9725,-1.9725,-1.9725,-1.9725,-1.9725,-1.9725,-1.9725,-1.9725,-1.9725,-1.9725,-1.9725,-1.9725,-1.9725,-1.9725,-1.9725,-1.9725,-1.9725,-1.9725,-1.9725,-1.9725,-1.9725,-1.9725,-1.9725,-1.9725,-1.9718,-1.9718,-1.9725,-1.9671,-1.9569,-1.9563,-1.9508,-1.9434,-1.9373,-1.9305,-2.0539,-2.0449,-2.0227,-2.0098,-2.0064,-1.9786,-1.9725,-1.963,-1.9495,-1.9345,-1.9196,-1.9054,-1.8905,-1.8827,-1.882,-1.882,-1.882,-1.882,-1.882,-1.8776,-1.883,-1.8823,-1.8841,-1.882,-1.882,-1.8813,-1.8674,-1.8674,-1.8687,-1.8579,-1.8593,-1.8681,-1.8579,-1.8552,-1.862,-1.8559,-1.8504,-1.8511,-1.8504,-1.8504,-1.8504,-1.8504,-1.8538,-1.862,-1.8626,-1.866,-1.866,-1.8633,-1.8443,-1.8213,-1.8348,-1.8491,-1.8443,-1.8626,-1.8813,-1.8827,-1.8959,-1.9081,-1.9135,-1.9352,-1.944,-1.9359,-1.944,-1.9434,-1.9366,-1.944,-1.9522,-1.9387,-1.9576,-1.9617,-1.959,-1.9617,-1.9718,-1.9725,-1.9725,-1.9725,-1.9725,-1.9725,-1.9725,-1.9725,-1.9725,-1.9725,-1.9725,-1.9725,-1.9725,-1.9725,-1.9725,-1.9725,-1.9725,-1.9725,-1.9725,-1.9725,-1.9725,-1.9725,-1.9725,-1.9725,-1.9725,-1.9725,-1.9725,-1.9725,-1.9725,-1.9725,-1.9725,-1.9725,-1.9725,-1.9725,-1.9725,-1.9725,-1.9711,-1.9698,-1.9725,-1.9705,-1.9556,-1.9495,-1.9434,-2.0539,-2.0449,-2.022,-2.0098,-2.0051,-1.9793,-1.9725,-1.9698,-1.9529,-1.9386,-1.9237,-1.9101,-1.8993,-1.8868,-1.8922,-1.8868,-1.8854,-1.8902,-1.8837,-1.8877,-1.8938,-1.8959,-1.8864,-1.8881,-1.8854,-1.8834,-1.8834,-1.885,-1.8898,-1.883,-1.8877,-1.8938,-1.8857,-1.8875,-1.8823,-1.8789,-1.8841,-1.8762,-1.8779,-1.8766,-1.8708,-1.8708,-1.8715,-1.8721,-1.8793,-1.8687,-1.8654,-1.8667,-1.8677,-1.8375,-1.8484,-1.8559,-1.8579,-1.8708,-1.8803,-1.8936,-1.9081,-1.923,-1.9264,-1.9481,-1.9603,-1.9501,-1.9576,-1.9603,-1.9508,-1.9569,-1.959,-1.9495,-1.9583,-1.9596,-1.9542,-1.9596,-1.9711,-1.9725,-1.9725,-1.9725,-1.9725,-1.9725,-1.9725,-1.9732,-1.9732,-1.9745,-1.9732,-1.9745,-1.9766,-1.9732,-1.9739,-1.9766,-1.9752,-1.9725,-1.9725,-1.9725,-1.9725,-1.9725,-1.9725,-1.9725,-1.9725,-1.9725,-1.9725,-1.9725,-1.9725,-1.9725,-1.9725,-1.9725,-1.9725,-1.9725,-1.9725,-1.9725,-1.9732,-1.9725,-1.9725,-1.9725,-1.9711,-1.961,-1.9616,-2.0539,-2.0512,-2.022,-2.0098,-2.0051,-1.9854,-1.9725,-1.9718,-1.9684,-1.9515,-1.9393,-1.9339,-1.9237,-1.9094,-1.9067,-1.9054,-1.8959,-1.9033,-1.9108,-1.9115,-1.9128,-1.9149,-1.9081,-1.9006,-1.8943,-1.8895,-1.8891,-1.8959,-1.9,-1.9067,-1.9115,-1.9135,-1.9108,-1.9101,-1.9074,-1.8979,-1.8945,-1.8925,-1.8888,-1.8834,-1.8827,-1.882,-1.882,-1.882,-1.882,-1.8807,-1.8728,-1.88,-1.8786,-1.8752,-1.8694,-1.8715,-1.8742,-1.8857,-1.8979,-1.9094,-1.925,-1.9373,-1.9413,-1.9542,-1.9711,-1.963,-1.963,-1.9711,-1.9691,-1.9691,-1.9711,-1.9617,-1.9705,-1.9637,-1.9671,-1.9691,-1.9718,-1.9725,-1.9725,-1.9725,-1.9725,-1.9725,-1.9725,-1.9745,-1.9807,-1.9786,-1.9759,-1.9861,-1.9841,-1.9725,-1.9766,-1.9814,-1.9786,-1.9745,-1.9725,-1.9725,-1.9725,-1.9725,-1.9725,-1.9725,-1.9725,-1.9745,-1.9752,-1.9766,-1.9766,-1.9752,-1.9759,-1.9745,-1.9725,-1.9725,-1.9739,-1.9745,-1.9759,-1.9739,-1.9732,-1.9752,-1.9766,-1.9752,-1.9759,-2.0539,-2.0512,-2.0227,-2.0098,-2.0051,-1.9793,-1.9725,-1.9725,-1.9725,-1.9576,-1.9454,-1.9434,-1.9345,-1.9196,-1.9135,-1.9081,-1.9108,-1.9162,-1.9244,-1.9284,-1.9312,-1.9312,-1.9305,-1.923,-1.9122,-1.9006,-1.9047,-1.9115,-1.9189,-1.9203,-1.923,-1.9291,-1.9244,-1.9183,-1.9203,-1.9128,-1.9094,-1.9061,-1.8945,-1.8871,-1.8922,-1.8854,-1.882,-1.882,-1.882,-1.882,-1.8813,-1.882,-1.882,-1.8834,-1.883,-1.8871,-1.8891,-1.9006,-1.9122,-1.9203,-1.9345,-1.9468,-1.9542,-1.961,-1.9752,-1.9752,-1.9766,-1.9732,-1.9725,-1.9725,-1.9725,-1.9725,-1.9725,-1.9725,-1.9725,-1.9725,-1.9725,-1.9725,-1.9725,-1.9725,-1.9725,-1.9725,-1.9725,-1.9732,-1.978,-1.9827,-1.982,-1.9915,-1.9963,-1.9841,-1.9752,-1.9786,-1.9848,-1.98,-1.9739,-1.9725,-1.9725,-1.9725,-1.9725,-1.9725,-1.9725,-1.9759,-1.9807,-1.9834,-1.9793,-1.9766,-1.9746,-1.9793,-1.9786,-1.9759,-1.9766,-1.9773,-1.978,-1.9752,-1.9752,-1.9732,-1.9786,-1.9841,-1.9841,-2.1224,-2.1203,-2.0408,-2.0098,-2.0051,-1.9786,-1.9725,-1.9725,-2.0258,-2.0726,-2.0437,-2.0529,-2.178,-2.1042,-2.107,-2.0547,-1.9901,-1.921,-1.9271,-1.9447,-1.9468,-1.9468,-1.9461,-1.944,-1.9393,-1.9278,-1.925,-1.9305,-1.9345,-1.9345,-1.9379,-1.9434,-1.9352,-1.9325,-1.9291,-1.9244,-1.9237,-1.9223,-1.9094,-1.8993,-1.8966,-1.8922,-1.8881,-1.8875,-1.8875,-1.8875,-1.8868,-1.8847,-1.8776,-1.8803,-1.8938,-1.902,-1.9081,-1.9156,-1.9257,-1.9284,-1.9454,-1.9576,-1.9671,-1.9766,-1.982,-1.9922,-1.9807,-1.9732,-1.9725,-1.9725,-1.9725,-1.9725,-1.9725,-1.9725,-1.9725,-1.9725,-1.9725,-1.9725,-1.9725,-1.9725,-1.9725,-1.9725,-1.9725,-1.9732,-1.9786,-1.9841,-1.9793,-1.9854,-1.9915,-1.9949,-1.9793,-1.9705,-1.9827,-1.9834,-1.9759,-1.9725,-1.9725,-1.9725,-1.9725,-1.9739,-1.9739,-1.9814,-1.9807,-1.9861,-1.9902,-1.9902,-1.9881,-1.9827,-1.9807,-1.978,-1.9773,-1.9786,-1.9773,-1.9719,-1.9739,-1.98,-1.9895,-2.0003,-1.999,-2.4669,-2.4448,-2.1393,-2.0098,-2.0051,-1.9848,-1.9901,-2.0198,-2.2583,-2.3584,-2.3903,-2.6221,-2.7019,-2.7103,-2.7128,-2.5667,-2.3106,-2.119,-1.9785,-1.9865,-1.9778,-1.9603,-1.9596,-1.959,-1.959,-1.9556,-1.9701,-1.9833,-1.9775,-1.9529,-1.9798,-1.9724,-1.9637,-1.9616,-1.9508,-1.9468,-1.9393,-1.9373,-1.925,-1.9128,-1.904,-1.8986,-1.8952,-1.8952,-1.8952,-1.8952,-1.8918,-1.8843,-1.8823,-1.8945,-1.9088,-1.9217,-1.9305,-1.9366,-1.9447,-1.9549,-1.9678,-1.9773,-1.9827,-1.9827,-1.9847,-1.9841,-1.9746,-1.9732,-1.9725,-1.9725,-1.9725,-1.9725,-1.9725,-1.9725,-1.9725,-1.9725,-1.9725,-1.9725,-1.9739,-1.9739,-1.9739,-1.9745,-1.9745,-1.9759,-1.982,-1.9868,-1.9813,-1.9827,-1.9881,-1.9908,-1.9875,-1.9793,-1.9752,-1.98,-1.9745,-1.9725,-1.9725,-1.9725,-1.9725,-1.9745,-1.9766,-1.9875,-1.9888,-1.9983,-2.0024,-2.0058,-2.0037,-2.0037,-1.9956,-1.9888,-1.9881,-1.9881,-1.98,-1.9732,-1.9793,-1.9881,-1.9969,-2.0064,-2.0153,-2.5474,-2.5052,-2.1537,-2.0058,-2.0258,-2.1614,-2.2107,-2.2651,-2.5437,-2.6864,-2.7342,-2.8524,-2.9178,-2.9127,-2.8945,-2.7855,-2.6125,-2.3363,-2.2074,-2.1926,-2.0615,-1.9725,-1.9968,-1.9908,-1.978,-2.0246,-2.1117,-2.2038,-2.1979,-2.0366,-2.0962,-2.1728,-2.0787,-1.9725,-1.9711,-1.959,-1.9609,-1.9575,-1.94,-1.9291,-1.921,-1.9149,-1.9101,-1.9101,-1.9101,-1.9101,-1.9088,-1.904,-1.9027,-1.9115,-1.9244,-1.9345,-1.9427,-1.9508,-1.9576,-1.9732,-1.9854,-1.9915,-1.9949,-1.9936,-1.9902,-1.9956,-1.9793,-1.9739,-1.9725,-1.9725,-1.9725,-1.9725,-1.9725,-1.9725,-1.9725,-1.9732,-1.9725,-1.9739,-1.9725,-1.9766,-1.9827,-1.9834,-1.9834,-1.982,-1.9814,-1.9786,-1.9813,-1.9834,-1.9868,-1.9847,-1.9868,-1.9848,-1.982,-1.9786,-1.9752,-1.9725,-1.9725,-1.9745,-1.9759,-1.98,-1.98,-1.9908,-2.0003,-2.0098,-2.0166,-2.0207,-2.0275,-2.0322,-2.0214,-2.0037,-1.9983,-1.9969,-1.9854,-1.978,-1.9922,-2.0037,-2.0071,-2.0132,-2.0227,-2.7402,-2.6964,-2.347,-2.1965,-2.2222,-2.4269,-2.5377,-2.5976,-2.8762,-3.0127,-3.0245,-3.0966,-3.1439,-3.102,-3.0447,-2.99,-2.9617,-2.6715,-2.5426,-2.4957,-2.3359,-2.1873,-2.1759,-2.1562,-2.1903,-2.1735,-2.4138,-2.5182,-2.4315,-2.333,-2.3807,-2.462,-2.2866,-2.1122,-2.11,-2.1139,-2.0562,-1.9684,-1.9556,-1.9474,-1.9406,-1.9318,-1.925,-1.925,-1.925,-1.925,-1.9244,-1.9189,-1.9203,-1.9257,-1.9352,-1.938,-1.9488,-1.9596,-1.9718,-1.9745,-1.98,-1.9942,-2.0017,-1.9956,-1.9936,-2.0051,-1.9875,-1.9759,-1.9725,-1.9725,-1.9725,-1.9725,-1.9725,-1.9752,-1.978,-1.9773,-1.9793,-1.9854,-1.9868,-1.9922,-1.9922,-1.9922,-1.9922,-1.9881,-1.9793,-1.9766,-1.9793,-1.982,-1.9834,-1.982,-1.9848,-1.9895,-1.9868,-1.9773,-1.98,-1.9745,-1.9732,-1.9759,-1.98,-1.9807,-1.9908,-2.0058,-2.0159,-2.0254,-2.0315,-2.037,-2.0431,-2.0465,-2.0356,-2.02,-2.0139,-2.0017,-1.9875,-1.9861,-2.0071,-2.0153,-2.0112,-2.0193,-2.0322,-3.4147,-3.3521,-2.9987,-2.8512,-2.8108,-2.8434,-2.8653,-2.9059,-3.197,-3.3324,-3.3512,-3.6033,-3.705,-3.6391,-3.4108,-3.3222,-3.2116,-3.0042,-2.8573,-2.8395,-2.7581,-2.7002,-2.7738,-2.8312,-2.5906,-2.4957,-2.7389,-2.7125,-2.6591,-2.7371,-2.8209,-2.858,-2.794,-2.675,-2.3367,-2.3126,-2.2349,-2.0198,-1.9637,-1.9569,-1.9461,-1.942,-1.9406,-1.9346,-1.9406,-1.94,-1.9386,-1.9325,-1.9298,-1.94,-1.942,-1.9501,-1.9671,-1.9644,-1.9725,-1.9766,-1.9793,-1.9936,-2.0044,-2.0003,-1.9956,-2.0037,-1.9902,-1.9766,-1.9725,-1.9725,-1.9725,-1.9725,-1.9732,-1.9786,-1.9807,-1.9841,-1.9908,-1.9976,-2.0037,-2.0064,-2.0071,-2.0078,-2.0078,-2.0024,-1.9949,-1.9827,-1.9786,-1.978,-1.9739,-1.9793,-1.9848,-1.9902,-1.9936,-1.9861,-1.9841,-1.9868,-1.9854,-1.9868,-1.9868,-1.9922,-2.0024,-2.0187,-2.0288,-2.0327,-2.0424,-2.0458,-2.0485,-2.0492,-2.0327,-2.0275,-2.0146,-2.0003,-1.9868,-1.9888,-2.001,-2.0071,-2.0098,-2.0234,-2.0347,-3.6831,-3.4598,-3.1084,-2.9471,-2.9508,-3.1058,-3.1852,-3.2501,-3.519,-3.6617,-3.6804,-3.7936,-3.8718,-3.8258,-3.6955,-3.651,-3.573,-3.3163,-3.1849,-3.1229,-3.0434,-2.9487,-2.925,-2.9531,-2.839,-2.88,-3.0383,-3.1907,-3.0709,-2.9652,-3.0087,-3.1945,-3.0286,-2.7427,-2.5086,-2.4486,-2.247,-2.0622,-1.9718,-1.963,-1.9583,-1.9563,-1.9556,-1.9563,-1.9556,-1.9556,-1.9535,-1.9515,-1.9488,-1.9563,-1.9563,-1.959,-1.9705,-1.9732,-1.9745,-1.9854,-1.9895,-1.9942,-2.0071,-2.0098,-2.0105,-2.0044,-1.9902,-1.9759,-1.9759,-1.9732,-1.9732,-1.9725,-1.98,-1.9807,-1.9881,-1.9956,-2.0024,-2.0098,-2.0193,-2.022,-2.0227,-2.0227,-2.022,-2.0159,-2.0098,-1.9983,-1.9881,-1.9827,-1.9827,-1.9895,-1.9915,-1.9936,-1.9983,-2.001,-1.999,-1.9963,-1.9956,-1.9963,-2.0031,-2.0098,-2.0166,-2.0295,-2.0327,-2.0408,-2.0435,-2.0532,-2.0532,-2.0451,-2.0315,-2.0207,-2.0112,-2.0017,-1.9902,-1.9902,-1.9922,-2.001,-2.0119,-2.0329,-2.0408,-3.8373,-3.5717,-3.2985,-3.1727,-3.1745,-3.4111,-3.5119,-3.5424,-3.7516,-3.8602,-3.8718,-3.8718,-3.8718,-3.866,-3.8588,-3.8272,-3.8356,-3.615,-3.5307,-3.417,-3.3006,-3.2188,-3.2596,-3.234,-3.1842,-3.089,-3.4001,-3.4548,-3.3586,-3.3175,-3.3616,-3.5378,-3.3768,-2.9854,-2.6704,-2.5557,-2.4193,-2.0022,-1.9725,-1.9718,-1.9711,-1.9711,-1.9718,-1.9718,-1.9725,-1.9725,-1.9725,-1.9711,-1.9711,-1.9711,-1.9711,-1.9711,-1.9725,-1.9773,-1.982,-1.9868,-1.9949,-2.0071,-2.0132,-2.0159,-2.0166,-2.0085,-1.9969,-1.9875,-1.9752,-1.9719,-1.9745,-1.9732,-1.9786,-1.982,-1.9936,-2.0044,-2.0139,-2.0227,-2.0329,-2.0356,-2.0376,-2.0363,-2.0363,-2.0329,-2.0261,-2.0153,-2.0058,-1.9983,-1.999,-2.0058,-2.0064,-2.0051,-2.0092,-2.0153,-2.0112,-2.0085,-2.0058,-2.0078,-2.0173,-2.0248,-2.0322,-2.0383,-2.0415,-2.0462,-2.0469,-2.0526,-2.0512,-2.0397,-2.0268,-2.0173,-2.0098,-2.0017,-1.9942,-1.9875,-1.9861,-2.0024,-2.018,-2.039,-2.0449,-3.9494,-3.9203,-3.8545,-3.7905,-3.7704,-3.824,-3.8298,-3.7936,-3.8485,-3.8718,-3.8718,-3.8718,-3.8718,-3.8718,-3.8718,-3.8718,-3.866,-3.8485,-3.8007,-3.7936,-3.8007,-3.7101,-3.6924,-3.6673,-3.6345,-3.4631,-3.6509,-3.6307,-3.537,-3.638,-3.7334,-3.8492,-3.6941,-3.3804,-3.0308,-2.764,-2.4554,-2.0858,-1.9725,-1.9725,-1.9725,-1.9725,-1.9725,-1.9725,-1.9725,-1.9725,-1.9725,-1.9725,-1.9725,-1.9725,-1.9725,-1.9725,-1.9739,-1.9827,-1.9841,-1.9936,-2.0119,-2.0234,-2.0282,-2.0173,-2.0031,-2.0024,-1.9969,-1.9916,-1.9848,-1.9895,-1.9854,-1.9745,-1.9725,-1.9847,-1.9983,-2.0119,-2.0234,-2.0363,-2.0438,-2.0451,-2.0471,-2.0485,-2.0478,-2.0422,-2.0404,-2.0275,-2.0234,-2.0159,-2.0105,-2.0159,-2.0268,-2.0254,-2.0268,-2.0302,-2.0234,-2.0187,-2.0146,-2.018,-2.0288,-2.0363,-2.0404,-2.0444,-2.0512,-2.0469,-2.0539,-2.0519,-2.0512,-2.041,-2.0295,-2.0187,-2.0085,-2.0017,-1.9929,-1.9786,-1.9813,-2.0037,-2.0227,-2.0347,-2.0442,-3.9493,-3.9247,-3.8953,-3.8766,-3.8718,-3.8718,-3.8718,-3.8718,-3.8718,-3.8718,-3.8718,-3.8718,-3.8718,-3.8718,-3.8718,-3.8718,-3.8718,-3.8718,-3.8718,-3.8718,-3.8673,-3.8766,-3.89,-3.8863,-3.8316,-3.7436,-3.8479,-3.8706,-3.7451,-3.8182,-3.8454,-3.8806,-3.886,-3.6191,-3.27,-2.8236,-2.3901,-2.1161,-1.9725,-1.9725,-1.9725,-1.9725,-1.9725,-1.9725,-1.9725,-1.9725,-1.9725,-1.9725,-1.9725,-1.9725,-1.9725,-1.9725,-1.9752,-1.9807,-1.9915,-2.001,-2.022,-2.0293,-2.0374,-2.0315,-2.0248,-2.0058,-1.9963,-1.9916,-1.9868,-1.9814,-1.9793,-1.9698,-1.9746,-1.9888,-2.0051,-2.0187,-2.0322,-2.0471,-2.0539,-2.0539,-2.0539,-2.0539,-2.0532,-2.0449,-2.0451,-2.0356,-2.0336,-2.0329,-2.0282,-2.0254,-2.0307,-2.0395,-2.0444,-2.0438,-2.037,-2.0336,-2.0302,-2.0309,-2.041,-2.0451,-2.0478,-2.0505,-2.0539,-2.0539,-2.0539,-2.0539,-2.0512,-2.0417,-2.0343,-2.0268,-2.0166,-2.0044,-1.9942,-1.9861,-1.9942,-2.0126,-2.0295,-2.0388,-2.0435,-3.9367,-3.9073,-3.8838,-3.8718,-3.8718,-3.8718,-3.8718,-3.8718,-3.8718,-3.8718,-3.8718,-3.8718,-3.8718,-3.8718,-3.8718,-3.8718,-3.8718,-3.8718,-3.8718,-3.8718,-3.8744,-3.8793,-3.8913,-3.8953,-3.8796,-3.8966,-3.8953,-3.869,-3.8369,-3.866,-3.8744,-3.8744,-3.8485,-3.6629,-3.3042,-2.7759,-2.2908,-2.0497,-1.9739,-1.9725,-1.9725,-1.9725,-1.9725,-1.9725,-1.9725,-1.9725,-1.9725,-1.9725,-1.9725,-1.9725,-1.9725,-1.9725,-1.9786,-1.9827,-1.9976,-2.0119,-2.0275,-2.0374,-2.0442,-2.0408,-2.0383,-2.02,-2.0044,-1.9915,-1.982,-1.9814,-1.982,-1.9752,-1.9827,-1.9949,-2.0119,-2.0261,-2.037,-2.0499,-2.0532,-2.0539,-2.0539,-2.0539,-2.0539,-2.0469,-2.0451,-2.0363,-2.0363,-2.0349,-2.032,-2.0293,-2.0431,-2.0435,-2.0442,-2.0499,-2.0499,-2.0478,-2.0478,-2.0499,-2.0532,-2.0519,-2.0505,-2.0512,-2.0539,-2.0539,-2.0539,-2.0539,-2.0499,-2.0397,-2.0343,-2.0273,-2.0254,-2.0132,-2.0044,-1.9963,-2.0092,-2.0234,-2.037,-2.0442,-2.0449,-3.938,-3.9073,-3.8793,-3.8731,-3.8744,-3.8673,-3.8718,-3.8718,-3.8718,-3.8718,-3.8718,-3.8718,-3.8718,-3.8718,-3.8718,-3.8718,-3.8718,-3.8718,-3.8718,-3.8718,-3.8718,-3.8744,-3.8758,-3.8784,-3.8766,-3.8744,-3.8771,-3.8726,-3.8718,-3.8718,-3.8718,-3.8744,-3.8525,-3.716,-3.3583,-2.77,-2.3093,-2.0433,-2.0166,-1.9759,-1.9752,-1.9745,-1.9725,-1.9725,-1.9725,-1.9725,-1.9725,-1.9725,-1.9725,-1.9725,-1.9725,-1.9725,-1.9745,-1.9929,-2.0064,-2.0105,-2.037,-2.0449,-2.0469,-2.0347,-2.0286,-2.0295,-2.0153,-2.0071,-2.0044,-1.9956,-1.9922,-1.9861,-1.9881,-2.0024,-2.0187,-2.0329,-2.0417,-2.0492,-2.0526,-2.0539,-2.0539,-2.0539,-2.0539,-2.0539,-2.0368,-2.0273,-2.0343,-2.0356,-2.0368,-2.0401,-2.0455,-2.0539,-2.0539,-2.0539,-2.0539,-2.0539,-2.0539,-2.0539,-2.0539,-2.0539,-2.0532,-2.0539,-2.0539,-2.0539,-2.0539,-2.0539,-2.0478,-2.0383,-2.0383,-2.0397,-2.0315,-2.0214,-2.0187,-2.018,-2.0214,-2.0336,-2.0465,-2.0539,-2.0539,-3.954,-3.9087,-3.8993,-3.8953,-3.8926,-3.8798,-3.8718,-3.8718,-3.8718,-3.8718,-3.8718,-3.8718,-3.8718,-3.8718,-3.8718,-3.8718,-3.8718,-3.8718,-3.8718,-3.8718,-3.8718,-3.8718,-3.8718,-3.8718,-3.8718,-3.8718,-3.8718,-3.8718,-3.8718,-3.8718,-3.8718,-3.8744,-3.8618,-3.7202,-3.4016,-2.972,-2.6334,-2.344,-2.141,-1.98,-1.9786,-1.9786,-1.9732,-1.9732,-1.9732,-1.9725,-1.9725,-1.9725,-1.9732,-1.9739,-1.9745,-1.9745,-1.9793,-1.9963,-2.0098,-2.0166,-2.037,-2.0469,-2.0476,-2.0422,-2.0361,-2.0286,-2.0282,-2.0193,-2.0112,-1.9963,-1.9942,-1.9976,-1.9949,-2.0092,-2.0248,-2.0315,-2.0334,-2.0499,-2.0539,-2.0539,-2.0539,-2.0539,-2.0539,-2.0539,-2.0408,-2.0395,-2.0451,-2.0424,-2.0408,-2.0428,-2.0469,-2.0539,-2.0539,-2.0539,-2.0539,-2.0539,-2.0539,-2.0539,-2.0539,-2.0539,-2.0539,-2.0539,-2.0539,-2.0539,-2.0539,-2.0539,-2.0519,-2.0465,-2.0465,-2.0465,-2.041,-2.037,-2.0334,-2.0354,-2.0334,-2.0334,-2.0428,-2.0539,-2.0539,-3.9633,-3.9113,-3.91,-3.9033,-3.8926,-3.8798,-3.8718,-3.8744,-3.8766,-3.8766,-3.8758,-3.8753,-3.8753,-3.8758,-3.8718,-3.8718,-3.8718,-3.8718,-3.8718,-3.8718,-3.8718,-3.8718,-3.8718,-3.8731,-3.8718,-3.8718,-3.8718,-3.8718,-3.8718,-3.8718,-3.8718,-3.8771,-3.8873,-3.8068,-3.5332,-3.2131,-2.7863,-2.4738,-2.1988,-1.9956,-1.9915,-1.9841,-1.9746,-1.9725,-1.9759,-1.9725,-1.9725,-1.9732,-1.9745,-1.9773,-1.9793,-1.9759,-1.9861,-2.001,-2.0166,-2.0254,-2.0376,-2.0526,-2.0476,-2.0469,-2.0415,-2.0424,-2.0307,-2.0288,-2.0173,-2.0058,-2.0078,-2.0098,-2.0058,-2.018,-2.0336,-2.032,-2.0368,-2.0532,-2.0539,-2.0539,-2.0539,-2.0539,-2.0539,-2.0539,-2.0539,-2.0539,-2.0539,-2.0532,-2.0526,-2.0469,-2.0539,-2.0539,-2.0539,-2.0539,-2.0539,-2.0539,-2.0539,-2.0539,-2.0539,-2.0539,-2.0539,-2.0539,-2.0539,-2.0539,-2.0539,-2.0539,-2.0539,-2.0539,-2.0519,-2.0512,-2.0526,-2.0519,-2.0435,-2.0415,-2.0401,-2.0422,-2.0532,-2.0539,-2.0539,-3.9633,-3.914,-3.91,-3.894,-3.8771,-3.8744,-3.8718,-3.8744,-3.894,-3.89,-3.8686,-3.8926,-3.8873,-3.8744,-3.8718,-3.8718,-3.8718,-3.8718,-3.8718,-3.8744,-3.8784,-3.8758,-3.8771,-3.8811,-3.8825,-3.8758,-3.87,-3.8766,-3.8758,-3.8753,-3.8798,-3.8758,-3.8905,-3.8264,-3.6324,-3.2768,-2.8783,-2.6106,-2.2338,-2.0526,-2.0031,-1.9929,-1.9827,-1.9834,-1.978,-1.9732,-1.9725,-1.9725,-1.9739,-1.98,-1.9861,-1.9956,-2.0078,-2.0241,-2.0295,-2.037,-2.0415,-2.0455,-2.0539,-2.0539,-2.0532,-2.0485,-2.0354,-2.0356,-2.0295,-2.0207,-2.0207,-2.0261,-2.0268,-2.0376,-2.0492,-2.0499,-2.0449,-2.0539,-2.0539,-2.0539,-2.0539,-2.0539,-2.0539,-2.0539,-2.0539,-2.0539,-2.0539,-2.0539,-2.0539,-2.0539,-2.0539,-2.0539,-2.0539,-2.0539,-2.0539,-2.0539,-2.0539,-2.0539,-2.0539,-2.0539,-2.0539,-2.0539,-2.0539,-2.0539,-2.0539,-2.0539,-2.0539,-2.0539,-2.0539,-2.0539,-2.0539,-2.0539,-2.0532,-2.0455,-2.0442,-2.0449,-2.0539,-2.0539,-2.0539,-3.9633,-3.9113,-3.91,-3.9046,-3.8953,-3.8811,-3.8718,-3.8744,-3.8753,-3.8784,-3.8673,-3.8753,-3.8766,-3.8673,-3.8718,-3.8718,-3.8718,-3.8718,-3.8718,-3.8771,-3.882,-3.8793,-3.886,-3.9065,-3.9025,-3.8931,-3.886,-3.898,-3.898,-3.8966,-3.8833,-3.8713,-3.9105,-3.8308,-3.5634,-3.2251,-3.0095,-2.7295,-2.2856,-2.0846,-2.0112,-1.999,-2.0011,-2.016,-1.9868,-1.9888,-2.0125,-1.982,-1.9834,-1.9922,-1.9881,-1.9949,-2.0098,-2.0248,-2.0349,-2.0408,-2.0462,-2.0539,-2.0539,-2.0539,-2.0539,-2.0539,-2.0428,-2.0428,-2.0438,-2.0376,-2.0329,-2.032,-2.0334,-2.0451,-2.0505,-2.0532,-2.0539,-2.0539,-2.0539,-2.0539,-2.0539,-2.0539,-2.0539,-2.0539,-2.0539,-2.0539,-2.0539,-2.0539,-2.0539,-2.0539,-2.0539,-2.0539,-2.0539,-2.0539,-2.0539,-2.0539,-2.0539,-2.0539,-2.0539,-2.0539,-2.0539,-2.0539,-2.0539,-2.0539,-2.0539,-2.0539,-2.0539,-2.0539,-2.0539,-2.0539,-2.0539,-2.0539,-2.0539,-2.0539,-2.0462,-2.0469,-2.0539,-2.0539,-2.0539,-3.9527,-3.9127,-3.91,-3.9033,-3.89,-3.8798,-3.8718,-3.8744,-3.878,-3.8793,-3.8744,-3.8851,-3.8825,-3.8731,-3.8718,-3.8718,-3.8718,-3.8731,-3.8784,-3.8886,-3.8985,-3.9052,-3.9172,-3.9279,-3.9239,-3.9172,-3.9199,-3.9332,-3.926,-3.926,-3.9212,-3.9159,-3.9506,-3.755,-3.491,-3.1978,-2.97,-2.6824,-2.3685,-2.1111,-2.0241,-2.0243,-2.0622,-2.1363,-2.089,-2.0548,-2.1329,-2.0909,-2.0025,-2.0086,-2.0051,-2.0126,-2.0254,-2.0376,-2.0368,-2.0462,-2.0469,-2.0539,-2.0539,-2.0539,-2.0539,-2.0539,-2.0539,-2.0469,-2.0512,-2.0465,-2.0471,-2.0435,-2.0458,-2.0451,-2.0499,-2.0539,-2.0539,-2.0539,-2.0539,-2.0539,-2.0539,-2.0539,-2.0539,-2.0539,-2.0539,-2.0539,-2.0539,-2.0539,-2.0539,-2.0539,-2.0539,-2.0539,-2.0539,-2.0539,-2.0539,-2.0539,-2.0539,-2.0539,-2.0539,-2.0539,-2.0539,-2.0539,-2.0539,-2.0539,-2.0539,-2.0539,-2.0539,-2.0539,-2.0539,-2.0539,-2.0539,-2.0539,-2.0539,-2.0539,-2.0539,-2.0539,-2.0539,-2.0539,-2.0539,-3.9386,-3.906,-3.906,-3.8913,-3.8744,-3.8718,-3.8718,-3.8744,-3.8913,-3.8913,-3.8798,-3.8926,-3.8873,-3.8744,-3.8718,-3.8718,-3.8758,-3.8784,-3.8931,-3.91,-3.9065,-3.9145,-3.9332,-3.9327,-3.9399,-3.9519,-3.9599,-3.9599,-3.9586,-3.9586,-3.9599,-3.9613,-3.9653,-3.7736,-3.3802,-3.1591,-2.8708,-2.4699,-2.2517,-2.0408,-2.0374,-2.0748,-2.1737,-2.3868,-2.2967,-2.1785,-2.3321,-2.2565,-2.0416,-2.0393,-2.0329,-2.037,-2.0395,-2.0442,-2.0462,-2.0469,-2.0476,-2.0539,-2.0539,-2.0539,-2.0539,-2.0539,-2.0539,-2.0539,-2.0526,-2.0519,-2.0462,-2.0469,-2.0499,-2.0485,-2.0526,-2.0539,-2.0539,-2.0539,-2.0539,-2.0539,-2.0539,-2.0539,-2.0539,-2.0539,-2.0539,-2.0539,-2.0539,-2.0539,-2.0539,-2.0539,-2.0539,-2.0539,-2.0539,-2.0539,-2.0539,-2.0539,-2.0539,-2.0539,-2.0539,-2.0539,-2.0539,-2.0539,-2.0539,-2.0539,-2.0539,-2.0539,-2.0539,-2.0539,-2.0539,-2.0539,-2.0539,-2.0539,-2.0539,-2.0539,-2.0539,-2.0539,-2.0539,-2.0539,-2.0539,-3.9033,-3.8838,-3.8766,-3.8713,-3.8673,-3.8718,-3.8718,-3.8718,-3.8784,-3.8798,-3.8686,-3.8784,-3.8811,-3.8744,-3.8718,-3.8731,-3.8784,-3.8873,-3.902,-3.9193,-3.9265,-3.9399,-3.964,-3.972,-3.9553,-3.9433,-3.9527,-3.9827,-3.972,-3.9786,-3.9813,-3.9666,-3.9342,-3.6998,-3.2111,-3.0167,-2.7412,-2.2628,-2.1386,-2.0655,-2.0887,-2.0909,-2.1646,-2.3959,-2.404,-2.3871,-2.4726,-2.4356,-2.2236,-2.0971,-2.0441,-2.034,-2.0462,-2.0469,-2.0539,-2.0539,-2.0539,-2.0539,-2.0539,-2.0539,-2.0539,-2.0539,-2.0539,-2.0539,-2.0539,-2.0539,-2.0539,-2.0539,-2.0539,-2.0539,-2.0539,-2.0539,-2.0539,-2.0539,-2.0539,-2.0539,-2.0539,-2.0539,-2.0539,-2.0539,-2.0539,-2.0539,-2.0539,-2.0539,-2.0539,-2.0539,-2.0539,-2.0539,-2.0539,-2.0539,-2.0539,-2.0539,-2.0539,-2.0539,-2.0539,-2.0539,-2.0539,-2.0539,-2.0539,-2.0539,-2.0539,-2.0539,-2.0539,-2.0539,-2.0539,-2.0539,-2.0539,-2.0539,-2.0539,-2.0539,-2.0539,-2.0539,-2.0539,-2.0539,-2.0539,-3.8806,-3.8731,-3.8718,-3.8718,-3.8718,-3.8718,-3.8718,-3.8718,-3.8718,-3.8718,-3.8718,-3.8718,-3.8718,-3.8718,-3.8718,-3.8825,-3.8905,-3.9006,-3.9287,-3.9546,-3.9573,-3.9773,-3.992,-4.0014,-3.9987,-3.9853,-4.0,-4.012,-3.9893,-4.0054,-4.0134,-3.9721,-3.8838,-3.5704,-3.0578,-2.8827,-2.5917,-2.0817,-2.0508,-2.1202,-2.1696,-2.1718,-2.3363,-2.5556,-2.5291,-2.5229,-2.5787,-2.5299,-2.2143,-2.0838,-2.0494,-2.0388,-2.0462,-2.0539,-2.0539,-2.0539,-2.0539,-2.0539,-2.0539,-2.0539,-2.0539,-2.0539,-2.0539,-2.0539,-2.0539,-2.0539,-2.0539,-2.0539,-2.0539,-2.0539,-2.0539,-2.0539,-2.0539,-2.0539,-2.0539,-2.0539,-2.0539,-2.0539,-2.0539,-2.0539,-2.0539,-2.0539,-2.0539,-2.0539,-2.0539,-2.0539,-2.0539,-2.0539,-2.0539,-2.0539,-2.0539,-2.0539,-2.0539,-2.0539,-2.0539,-2.0539,-2.0539,-2.0539,-2.0539,-2.0539,-2.0539,-2.0539,-2.0539,-2.0539,-2.0539,-2.0539,-2.0539,-2.0539,-2.0539,-2.0539,-2.0539,-2.0539,-2.0539,-2.0539,-2.0539,-3.8731,-3.8718,-3.8718,-3.8718,-3.8718,-3.8718,-3.8718,-3.8718,-3.8718,-3.8718,-3.8686,-3.8713,-3.87,-3.8673,-3.8784,-3.8913,-3.9087,-3.9287,-3.958,-3.9786,-3.976,-3.9987,-4.012,-4.0174,-4.0174,-4.0227,-4.0321,-4.0254,-4.0107,-4.0294,-4.0193,-3.9756,-3.7369,-3.4178,-3.0588,-2.7529,-2.4533,-2.1701,-2.1166,-2.2701,-2.2894,-2.3001,-2.5975,-2.6573,-2.6098,-2.5416,-2.6716,-2.5533,-2.1787,-2.0532,-2.0519,-2.0462,-2.0469,-2.0539,-2.0539,-2.0539,-2.0539,-2.0539,-2.0539,-2.0539,-2.0539,-2.0539,-2.0539,-2.0539,-2.0539,-2.0539,-2.0539,-2.0539,-2.0539,-2.0539,-2.0539,-2.0539,-2.0539,-2.0539,-2.0539,-2.0539,-2.0539,-2.0539,-2.0539,-2.0539,-2.0539,-2.0539,-2.0539,-2.0539,-2.0539,-2.0539,-2.0539,-2.0539,-2.0539,-2.0539,-2.0539,-2.0539,-2.0539,-2.0539,-2.0539,-2.0539,-2.0539,-2.0539,-2.0539,-2.0539,-2.0539,-2.0539,-2.0539,-2.0539,-2.0539,-2.0539,-2.0539,-2.0539,-2.0539,-2.0539,-2.0539,-2.0539,-2.0539,-2.0539,-2.0539,-3.8718,-3.8718,-3.8718,-3.8718,-3.8718,-3.8718,-3.8718,-3.8718,-3.8718,-3.8718,-3.8713,-3.89,-3.8913,-3.8686,-3.8926,-3.9113,-3.926,-3.9527,-3.9813,-3.9974,-3.9987,-4.0201,-4.0308,-4.0254,-4.0267,-4.0294,-4.0308,-4.0241,-4.0214,-4.0361,-4.0348,-3.9933,-3.9998,-3.6201,-3.0668,-2.7982,-2.5869,-2.2874,-2.2347,-2.3871,-2.4703,-2.5901,-2.8909,-3.0077,-3.0885,-3.0015,-2.9153,-2.6591,-2.3479,-2.1414,-2.0539,-2.0539,-2.0539,-2.0539,-2.0539,-2.0539,-2.0539,-2.0539,-2.0539,-2.0539,-2.0539,-2.0539,-2.0539,-2.0539,-2.0539,-2.0539,-2.0539,-2.0539,-2.0539,-2.0539,-2.0539,-2.0539,-2.0539,-2.0539,-2.0539,-2.0539,-2.0539,-2.0539,-2.0539,-2.0539,-2.0539,-2.0539,-2.0539,-2.0539,-2.0539,-2.0539,-2.0539,-2.0539,-2.0539,-2.0539,-2.0539,-2.0539,-2.0539,-2.0539,-2.0539,-2.0539,-2.0539,-2.0539,-2.0539,-2.0539,-2.0539,-2.0539,-2.0539,-2.0539,-2.0539,-2.0539,-2.0539,-2.0539,-2.0539,-2.0539,-2.0539,-2.0539,-2.0539,-2.0539,-2.0539]},{"header":{"parameterUnit":"m.s-1","parameterCategory":1,"la1":31.0,"la2":29.5877,"lo1":-88.7671,"lo2":-86.6584,"dy":0.0162,"dx":0.0185,"nx":115,"ny":88,"refTime":"2024-06-16T18:00:00:Z","depth":0,"parameterNumber":3,"parameterNumberName":"V-component_of_WINDS"},"data":[0.0,0.0,0.0,0.0,0.0,0.0,0.0,0.0,0.0,0.0,0.0,0.0,0.0,0.0,0.0,0.0,0.0,0.0,0.0,0.0,0.0,0.0,0.0,0.0,0.0,0.0,0.0,0.0,0.0,0.0,0.0,0.0,0.0,0.0,0.0,0.0,0.0,0.0,0.0,0.0,0.0,0.0,0.0,0.0,0.0,0.0,0.0,0.0,0.0,0.0,0.0,0.0,0.0,0.0,0.0,0.0,0.0,0.0,0.0,0.0,0.0,0.0,0.0,0.0,0.0,0.0,0.0,0.0,0.0,0.0,0.0,0.0,0.0,0.0,0.0,0.0,0.0,0.0,0.0,0.0,0.0,0.0,0.0,0.0,0.0,0.0,0.0,0.0,0.0,0.0,0.0,0.0,0.0,0.0,0.0,0.0,0.0,0.0,0.0,0.0,0.0,0.0,0.0,0.0,0.0,0.0,0.0,0.0,0.0,0.0,0.0,0.0,0.0,0.0,0.0,0.0,0.0,0.0,0.0,0.0,0.0,0.0,0.0,0.0,0.0,0.0,0.0,0.0,0.0,0.0,0.0,0.0,0.0,0.0,0.0,0.0,0.0,0.0,0.0,0.0,0.0,0.0,0.0,0.0,0.0,0.0,0.0,0.0,0.0,0.0,0.0,0.0,0.0,0.0,0.0,0.0,0.0,0.0,0.0,0.0,0.0,0.0,0.0,0.0,0.0,0.0,0.0,0.0,0.0,0.0,0.0,0.0,0.0,0.0,0.0,0.0,0.0,0.0,0.0,0.0,0.0,0.0,0.0,0.0,0.0,0.0,0.0,0.0,0.0,0.0,0.0,0.0,0.0,0.0,0.0,0.0,0.0,0.0,0.0,0.0,0.0,0.0,0.0,0.0,0.0,0.0,0.0,0.0,0.0,0.0,0.0,0.0,0.0,0.0,0.0,0.0,0.0,0.0,0.0,0.0,0.0,0.0,0.0,0.0,0.0,0.0,0.0,0.0,0.0,0.0,0.0,0.0,0.0,0.0,0.0,0.0,0.0,0.0,0.0,0.0,0.0,0.0,0.0,0.0,0.0,0.0,0.0,0.0,0.0,0.0,0.0,0.0,0.0,0.0,0.0,0.0,0.0,0.0,0.0,0.0,0.0,0.0,0.0,0.0,0.0,0.0,0.0,0.0,0.0,0.0,0.0,0.0,0.0,0.0,0.0,0.0,0.0,0.0,0.0,0.0,0.0,0.0,0.0,0.0,0.0,0.0,0.0,0.0,0.0,0.0,0.0,0.0,0.0,0.0,0.0,0.0,0.0,0.0,0.0,0.0,0.0,0.0,0.0,0.0,0.0,0.0,0.0,0.0,0.0,0.0,0.0,0.0,0.0,0.0,0.0,0.0,0.0,0.0,0.0,0.0,0.0,0.0,0.0,0.0,0.0,0.0,0.0,0.0,0.0,0.0,0.0,0.0,0.0,0.0,0.0,0.0,0.0,0.0,0.0,0.0,0.0,0.0,0.0,0.0,0.0,0.0,0.0,0.0,0.0,0.0,0.0,0.0,0.0,0.0,0.0,0.0,0.0,0.0,0.0,0.0,0.0,0.0,0.0,0.0,0.0,0.0,0.0,0.0,0.0,0.0,0.0,0.0,0.0,0.0,0.0,0.0,0.0,0.0,0.0,0.0,0.0,0.0,0.0,0.0,0.0,0.0,0.0,0.0,0.0,0.0,0.0,0.0,0.0,0.0,0.0,0.0,0.0,0.0,0.0,0.0,0.0,0.0,0.0,0.0,0.0,0.0,0.0,0.0,0.0,0.0,0.0,0.0,0.0,0.0,0.0,0.0,0.0,0.0,0.0,0.0,0.0,0.0,0.0,0.0,0.0,0.0,0.0,0.0,0.0,0.0,0.0,0.0,0.0,0.0,0.0,0.0,0.0,0.0,0.0,0.0,0.0,0.0,0.0,0.0,0.0,0.0,0.0,0.0,0.0,0.0,0.0,0.0,0.0,0.0,0.0,0.0,0.0,0.0,0.0,0.0,0.0,0.0,0.0,0.0,0.0,0.0,0.0,0.0,0.0,0.0,0.0,0.0,0.0,0.0,0.0,0.0,0.0,0.0,0.0,0.0,0.0,0.0,0.0,0.0,0.0,0.0,0.0,0.0,0.0,0.0,0.0,0.0,0.0,0.0,0.0,0.0,0.0,0.0,0.0,0.0,0.0,0.0,0.0,0.0,0.0,0.0,0.0,0.0,0.0,0.0,0.0,0.0,0.0,0.0,0.0,0.0,0.0,0.0,0.0,0.0,0.0,0.0,0.0,0.0,0.0,0.0,0.0,0.0,0.0,0.0,0.0,0.0,0.0,0.0,0.0,0.0,0.0,0.0,0.0,0.0,0.0,0.0,0.0,0.0,0.0,0.0,0.0,0.0,0.0,0.0,0.0,0.0,0.0,0.0,0.0,0.0,0.0,0.0,0.0,0.0,0.0,0.0,0.0,0.0,0.0,0.0,0.0,0.0,0.0,0.0,0.0,0.0,0.0,0.0,0.0,0.0,0.0,0.0,0.0,0.0,0.0,0.0,0.0,0.0,0.0,0.0,0.0,0.0,0.0,0.0,0.0,0.0,0.0,0.0,0.0,0.0,0.0,0.0,0.0,0.0,0.0,0.0,0.0,0.0,0.0,0.0,0.0,0.0,0.0,0.0,0.0,0.0,0.0,0.0,0.0,0.0,0.0,0.0,0.0,0.0,0.0,0.0,0.0,0.0,0.0,0.0,0.0,0.0,0.0,0.0,0.0,0.0,0.0,0.0,0.0,0.0,0.0,0.0,0.0,0.0,0.0,0.0,0.0,0.0,0.0,0.0,0.0,0.0,0.0,0.0,0.0,0.0,0.0,0.0,0.0,0.0,0.0,0.0,0.0,0.0,0.0,0.0,0.0,0.0,0.0,0.0,0.0,0.0,0.0,0.0,0.0,0.0,0.0,0.0,0.0,0.0,0.0,0.0,0.0,0.0,0.0,0.0,0.0,0.0,0.0,0.0,0.0,0.0,0.0,0.0,0.0,0.0,0.0,0.0,0.0,0.0,0.0,0.0,0.0,0.0,0.0,0.0,0.0,0.0,0.0,0.0,0.0,0.0,0.0,0.0,0.0,0.0,0.0,0.0,0.0,0.0,0.0,0.0,0.0,0.0,0.0,0.0,0.0,0.0,0.0,0.0,0.0,0.0,0.0,0.0,0.0,0.0,0.0,0.0,0.0,0.0,0.0,0.0,0.0,0.0,0.0,0.0,0.0,0.0,0.0,0.0,0.0,0.0,0.0,0.0,0.0,0.0,0.0,0.0,0.0,0.0,0.0,0.0,0.0,0.0,0.0,0.0,0.0,0.0,0.0,0.0,0.0,0.0,0.0,0.0,0.0,0.0,0.0,0.0,0.0,0.0,0.0,0.0,0.0,0.0,0.0,0.0,0.0,0.0,0.0,0.0,0.0,0.0,0.0,0.0,0.0,0.0,0.0,0.0,0.0,0.0,0.0,0.0,0.0,0.0,0.0,0.0,0.0,0.0,0.0,0.0,0.0,0.0,0.0,0.0,0.0,0.0,0.0,0.0,0.0,0.0,0.0,0.0,0.0,0.0,0.0,0.0,0.0,0.0,0.0,0.0,0.0,0.0,0.0,0.0,0.0,0.0,0.0,0.0,0.0,0.0,0.0,0.0,0.0,0.0,0.0,0.0,0.0,0.0,0.0,0.0,0.0,0.0,0.0,0.0,0.0,0.0,0.0,0.0,0.0,0.0,0.0,0.0,0.0,0.0,0.0,0.0,0.0,0.0,0.0,0.0,0.0,0.0,0.0,0.0,0.0,0.0,0.0,0.0,0.0,0.0,0.0,0.0,0.0,0.0,0.0,0.0,0.0,0.0,0.0,0.0,0.0,0.0,0.0,0.0,0.0,0.0,0.0,0.0,0.0,0.0,0.0,0.0,0.0,0.0,0.0,0.0,0.0,0.0,0.0,0.0,0.0,0.0,0.0,0.0,0.0,0.0,0.0,0.0,0.0,0.0,0.0,0.0,0.0,0.0,0.0,0.0,0.0,0.0,0.0,0.0,0.0,0.0,0.0,0.0,0.0,0.0,0.0,0.0,0.0,0.0,0.0,0.0,0.0,0.0,0.0,0.0,0.0,0.0,0.0,0.0,0.0,0.0,0.0,0.0,0.0,0.0,0.0,0.0,0.0,0.0,0.0,0.0,0.0,0.0,0.0,0.0,0.0,0.0,0.0,0.0,4.6289,0.0,0.0,0.0,0.0,0.0,0.0,0.0,0.0,0.0,0.0,0.0,0.0,0.0,0.0,0.0,0.0,0.0,0.0,0.0,0.0,0.0,0.0,0.0,0.0,0.0,0.0,0.0,0.0,0.0,0.0,0.0,0.0,0.0,0.0,0.0,0.0,0.0,0.0,0.0,0.0,0.0,0.0,0.0,0.0,0.0,0.0,0.0,0.0,0.0,0.0,0.0,0.0,0.0,0.0,0.0,0.0,0.0,0.0,0.0,0.0,0.0,0.0,0.0,0.0,0.0,0.0,0.0,0.0,0.0,0.0,0.0,0.0,0.0,0.0,0.0,0.0,0.0,0.0,0.0,0.0,0.0,0.0,0.0,0.0,0.0,0.0,0.0,0.0,0.0,0.0,0.0,0.0,0.0,0.0,0.0,0.0,0.0,0.0,0.0,0.0,0.0,0.0,0.0,0.0,0.0,0.0,0.0,0.0,0.0,0.0,4.614,4.6198,4.6248,4.6289,4.6289,0.0,0.0,0.0,0.0,0.0,0.0,0.0,0.0,0.0,0.0,0.0,0.0,0.0,0.0,0.0,0.0,0.0,0.0,0.0,0.0,0.0,0.0,0.0,0.0,0.0,0.0,0.0,0.0,0.0,0.0,0.0,0.0,0.0,0.0,0.0,0.0,0.0,0.0,0.0,0.0,0.0,0.0,0.0,0.0,0.0,0.0,0.0,0.0,0.0,0.0,0.0,0.0,0.0,0.0,0.0,0.0,0.0,0.0,0.0,0.0,0.0,0.0,0.0,0.0,0.0,0.0,0.0,0.0,0.0,0.0,0.0,0.0,0.0,0.0,0.0,0.0,0.0,0.0,0.0,0.0,0.0,0.0,0.0,0.0,0.0,0.0,0.0,0.0,0.0,0.0,0.0,0.0,0.0,0.0,0.0,0.0,0.0,0.0,0.0,0.0,0.0,0.0,0.0,0.0,0.0,0.0,0.0,0.0,0.0,0.0,0.0,0.0,4.7058,4.7147,4.7187,0.0,0.0,0.0,0.0,0.0,0.0,0.0,0.0,0.0,0.0,0.0,0.0,0.0,0.0,0.0,0.0,0.0,0.0,0.0,0.0,0.0,0.0,0.0,0.0,0.0,0.0,0.0,0.0,0.0,0.0,0.0,0.0,0.0,0.0,0.0,0.0,0.0,0.0,0.0,0.0,0.0,0.0,0.0,0.0,0.0,0.0,0.0,0.0,0.0,0.0,0.0,0.0,0.0,0.0,0.0,0.0,0.0,0.0,0.0,0.0,0.0,0.0,0.0,0.0,0.0,0.0,0.0,0.0,0.0,0.0,0.0,0.0,0.0,0.0,0.0,0.0,0.0,0.0,0.0,0.0,0.0,0.0,0.0,0.0,0.0,0.0,0.0,0.0,0.0,0.0,0.0,0.0,0.0,0.0,0.0,0.0,0.0,0.0,0.0,0.0,0.0,0.0,0.0,0.0,0.0,0.0,0.0,0.0,0.0,0.0,4.7033,4.9457,4.9603,0.0,4.9844,0.0,0.0,0.0,0.0,0.0,0.0,0.0,0.0,0.0,0.0,0.0,0.0,0.0,0.0,0.0,0.0,0.0,0.0,0.0,0.0,0.0,0.0,0.0,0.0,0.0,0.0,0.0,0.0,0.0,0.0,0.0,0.0,0.0,0.0,0.0,0.0,0.0,0.0,0.0,0.0,0.0,0.0,0.0,0.0,0.0,0.0,0.0,0.0,0.0,0.0,0.0,0.0,0.0,0.0,0.0,0.0,0.0,0.0,0.0,0.0,0.0,0.0,0.0,0.0,0.0,0.0,0.0,0.0,0.0,0.0,0.0,0.0,0.0,0.0,0.0,0.0,0.0,0.0,0.0,0.0,0.0,0.0,0.0,0.0,0.0,0.0,0.0,0.0,0.0,0.0,0.0,0.0,0.0,0.0,0.0,0.0,0.0,0.0,0.0,0.0,0.0,0.0,0.0,0.0,0.0,0.0,0.0,0.0,0.0,0.0,4.8577,4.9701,4.9848,4.9952,0.0,0.0,0.0,0.0,0.0,0.0,0.0,0.0,0.0,0.0,0.0,0.0,0.0,0.0,0.0,0.0,0.0,0.0,0.0,0.0,0.0,0.0,0.0,0.0,0.0,0.0,0.0,0.0,0.0,0.0,0.0,0.0,0.0,0.0,0.0,0.0,0.0,0.0,0.0,0.0,0.0,0.0,0.0,0.0,0.0,0.0,0.0,0.0,0.0,0.0,0.0,0.0,0.0,0.0,0.0,0.0,0.0,0.0,0.0,0.0,0.0,0.0,0.0,0.0,0.0,0.0,0.0,0.0,0.0,0.0,0.0,0.0,0.0,0.0,0.0,0.0,0.0,0.0,0.0,0.0,0.0,0.0,0.0,0.0,0.0,0.0,0.0,0.0,0.0,0.0,0.0,0.0,0.0,0.0,0.0,0.0,0.0,0.0,0.0,0.0,0.0,0.0,0.0,0.0,0.0,0.0,0.0,0.0,0.0,0.0,4.89,4.9892,5.0586,5.086,5.0524,4.9586,0.0,0.0,0.0,0.0,0.0,0.0,0.0,0.0,0.0,0.0,0.0,0.0,0.0,0.0,0.0,0.0,0.0,0.0,0.0,0.0,0.0,0.0,0.0,0.0,0.0,0.0,0.0,0.0,0.0,0.0,0.0,0.0,0.0,0.0,0.0,0.0,0.0,0.0,0.0,0.0,0.0,0.0,0.0,0.0,0.0,0.0,0.0,0.0,0.0,0.0,0.0,0.0,0.0,0.0,0.0,0.0,0.0,0.0,0.0,0.0,0.0,0.0,0.0,0.0,0.0,0.0,0.0,0.0,0.0,0.0,0.0,0.0,0.0,0.0,0.0,0.0,0.0,0.0,0.0,0.0,0.0,0.0,0.0,0.0,0.0,0.0,0.0,0.0,0.0,0.0,0.0,0.0,0.0,0.0,0.0,0.0,0.0,0.0,0.0,0.0,0.0,0.0,0.0,0.0,0.0,0.0,0.0,0.0,5.2433,5.0563,5.0662,5.3137,5.3467,5.2108,0.0,0.0,0.0,0.0,0.0,0.0,0.0,0.0,0.0,0.0,0.0,0.0,0.0,0.0,0.0,0.0,0.0,0.0,0.0,0.0,0.0,0.0,0.0,0.0,0.0,0.0,0.0,0.0,0.0,0.0,0.0,0.0,0.0,0.0,0.0,0.0,0.0,0.0,0.0,0.0,0.0,0.0,0.0,0.0,0.0,0.0,0.0,0.0,0.0,0.0,0.0,0.0,0.0,0.0,0.0,0.0,0.0,0.0,0.0,0.0,0.0,0.0,0.0,0.0,0.0,0.0,0.0,0.0,0.0,0.0,0.0,0.0,0.0,0.0,0.0,0.0,0.0,0.0,0.0,0.0,0.0,0.0,0.0,0.0,0.0,0.0,0.0,0.0,0.0,0.0,0.0,0.0,0.0,0.0,0.0,0.0,0.0,0.0,0.0,0.0,0.0,0.0,0.0,0.0,0.0,0.0,0.0,0.0,0.0,4.8249,4.9071,5.1567,5.5631,5.2961,5.1211,0.0,0.0,0.0,0.0,0.0,0.0,0.0,0.0,0.0,0.0,0.0,0.0,0.0,0.0,0.0,0.0,0.0,0.0,0.0,0.0,0.0,0.0,0.0,0.0,0.0,0.0,0.0,0.0,0.0,0.0,0.0,0.0,0.0,0.0,0.0,0.0,0.0,0.0,0.0,0.0,0.0,0.0,0.0,0.0,0.0,0.0,0.0,0.0,0.0,0.0,0.0,0.0,0.0,0.0,0.0,0.0,0.0,0.0,0.0,0.0,0.0,0.0,0.0,0.0,0.0,0.0,0.0,0.0,0.0,0.0,0.0,0.0,0.0,0.0,0.0,0.0,0.0,0.0,0.0,0.0,0.0,0.0,0.0,0.0,0.0,0.0,0.0,0.0,0.0,0.0,0.0,0.0,0.0,0.0,0.0,0.0,0.0,0.0,0.0,0.0,0.0,0.0,0.0,0.0,0.0,0.0,0.0,0.0,0.0,4.8176,0.0,5.344,5.5855,5.2937,5.0779,0.0,0.0,0.0,0.0,0.0,0.0,0.0,0.0,0.0,0.0,0.0,0.0,0.0,0.0,0.0,0.0,0.0,0.0,0.0,0.0,0.0,0.0,0.0,0.0,0.0,0.0,0.0,0.0,0.0,0.0,0.0,0.0,0.0,0.0,0.0,0.0,0.0,0.0,0.0,0.0,0.0,0.0,0.0,0.0,0.0,0.0,0.0,0.0,0.0,0.0,0.0,0.0,0.0,0.0,0.0,0.0,0.0,0.0,0.0,0.0,0.0,0.0,0.0,0.0,0.0,0.0,0.0,0.0,0.0,0.0,0.0,0.0,0.0,0.0,0.0,0.0,0.0,0.0,0.0,0.0,0.0,0.0,0.0,0.0,0.0,0.0,0.0,0.0,0.0,0.0,0.0,0.0,0.0,0.0,0.0,0.0,0.0,0.0,0.0,0.0,0.0,0.0,0.0,0.0,0.0,0.0,0.0,0.0,4.8398,5.3263,5.5896,5.6098,5.3823,5.3672,5.0938,0.0,0.0,0.0,0.0,0.0,0.0,0.0,0.0,0.0,0.0,0.0,0.0,0.0,0.0,0.0,0.0,0.0,0.0,0.0,0.0,0.0,0.0,0.0,0.0,0.0,0.0,0.0,0.0,0.0,0.0,0.0,0.0,0.0,0.0,0.0,0.0,0.0,0.0,0.0,0.0,0.0,0.0,0.0,0.0,0.0,0.0,0.0,0.0,0.0,0.0,0.0,0.0,0.0,0.0,0.0,0.0,0.0,0.0,0.0,0.0,0.0,0.0,0.0,0.0,0.0,0.0,0.0,0.0,0.0,0.0,0.0,0.0,0.0,0.0,0.0,0.0,0.0,0.0,0.0,0.0,0.0,0.0,0.0,0.0,0.0,0.0,0.0,0.0,0.0,0.0,0.0,0.0,0.0,0.0,0.0,0.0,0.0,0.0,0.0,0.0,0.0,0.0,0.0,0.0,0.0,0.0,0.0,0.0,0.0,5.1004,5.4145,5.66,5.7916,5.3688,5.1513,0.0,0.0,0.0,0.0,0.0,0.0,0.0,0.0,0.0,0.0,0.0,0.0,0.0,0.0,0.0,0.0,0.0,0.0,0.0,0.0,0.0,0.0,0.0,0.0,0.0,0.0,0.0,0.0,0.0,0.0,0.0,0.0,0.0,0.0,0.0,0.0,0.0,0.0,0.0,0.0,0.0,0.0,0.0,0.0,0.0,0.0,0.0,0.0,0.0,0.0,0.0,0.0,0.0,0.0,0.0,0.0,0.0,0.0,0.0,0.0,0.0,0.0,0.0,0.0,0.0,0.0,0.0,0.0,0.0,0.0,0.0,0.0,0.0,0.0,0.0,0.0,0.0,0.0,0.0,0.0,0.0,0.0,0.0,0.0,0.0,0.0,0.0,0.0,0.0,0.0,0.0,0.0,0.0,0.0,0.0,0.0,0.0,0.0,0.0,0.0,0.0,0.0,0.0,0.0,0.0,0.0,0.0,0.0,0.0,5.4792,5.7497,5.9554,6.0719,5.5778,5.3124,5.3153,0.0,0.0,0.0,0.0,0.0,0.0,0.0,0.0,0.0,0.0,0.0,0.0,0.0,0.0,0.0,0.0,0.0,0.0,0.0,0.0,0.0,0.0,0.0,0.0,0.0,0.0,0.0,0.0,0.0,0.0,0.0,0.0,0.0,0.0,0.0,0.0,0.0,0.0,0.0,0.0,0.0,0.0,0.0,0.0,0.0,0.0,0.0,0.0,0.0,0.0,0.0,0.0,0.0,0.0,0.0,0.0,0.0,0.0,0.0,0.0,0.0,0.0,0.0,0.0,0.0,0.0,0.0,0.0,0.0,0.0,0.0,0.0,0.0,0.0,0.0,0.0,0.0,0.0,0.0,0.0,0.0,0.0,0.0,0.0,0.0,0.0,0.0,0.0,0.0,0.0,0.0,0.0,0.0,0.0,0.0,0.0,0.0,0.0,0.0,0.0,0.0,0.0,0.0,0.0,0.0,0.0,0.0,0.0,6.3075,6.5111,6.4922,6.2304,5.9492,5.5703,0.0,0.0,0.0,0.0,0.0,0.0,0.0,0.0,0.0,0.0,0.0,0.0,0.0,0.0,0.0,0.0,0.0,0.0,0.0,0.0,0.0,0.0,0.0,0.0,0.0,0.0,0.0,0.0,0.0,0.0,0.0,0.0,0.0,0.0,0.0,0.0,0.0,0.0,0.0,0.0,0.0,0.0,0.0,0.0,0.0,0.0,0.0,0.0,0.0,0.0,0.0,0.0,0.0,0.0,0.0,0.0,0.0,0.0,0.0,0.0,0.0,0.0,0.0,0.0,0.0,0.0,0.0,0.0,0.0,0.0,0.0,0.0,0.0,0.0,0.0,0.0,0.0,0.0,0.0,0.0,0.0,0.0,0.0,0.0,0.0,0.0,0.0,0.0,0.0,0.0,0.0,0.0,0.0,0.0,0.0,0.0,0.0,0.0,0.0,0.0,0.0,0.0,0.0,0.0,0.0,0.0,0.0,0.0,0.0,6.6793,7.0976,7.1599,6.8216,6.273,5.8555,0.0,0.0,0.0,0.0,0.0,0.0,0.0,0.0,0.0,0.0,0.0,0.0,0.0,0.0,0.0,0.0,0.0,0.0,0.0,0.0,0.0,0.0,0.0,0.0,0.0,0.0,0.0,0.0,0.0,0.0,0.0,0.0,0.0,0.0,0.0,0.0,0.0,0.0,0.0,0.0,0.0,0.0,0.0,0.0,0.0,0.0,0.0,0.0,0.0,0.0,0.0,0.0,0.0,0.0,0.0,0.0,0.0,0.0,0.0,0.0,0.0,0.0,0.0,0.0,0.0,0.0,0.0,0.0,0.0,0.0,0.0,0.0,0.0,0.0,0.0,0.0,0.0,0.0,0.0,0.0,0.0,0.0,0.0,0.0,0.0,0.0,0.0,0.0,0.0,0.0,0.0,0.0,0.0,0.0,0.0,0.0,0.0,0.0,0.0,0.0,0.0,0.0,0.0,0.0,0.0,0.0,0.0,0.0,6.707,7.082,7.5195,7.617,7.3382,6.8123,6.3086,0.0,0.0,0.0,0.0,0.0,0.0,0.0,0.0,0.0,0.0,0.0,0.0,0.0,0.0,0.0,0.0,0.0,0.0,0.0,0.0,0.0,0.0,0.0,0.0,0.0,0.0,0.0,0.0,0.0,0.0,0.0,0.0,0.0,0.0,0.0,0.0,0.0,0.0,0.0,0.0,0.0,0.0,0.0,0.0,0.0,0.0,0.0,0.0,0.0,0.0,0.0,0.0,0.0,0.0,0.0,0.0,0.0,0.0,0.0,0.0,0.0,0.0,0.0,0.0,0.0,0.0,0.0,0.0,0.0,0.0,0.0,0.0,0.0,0.0,0.0,0.0,0.0,0.0,0.0,0.0,0.0,0.0,0.0,0.0,0.0,0.0,0.0,0.0,0.0,0.0,0.0,0.0,0.0,0.0,0.0,0.0,0.0,0.0,0.0,0.0,0.0,0.0,0.0,0.0,0.0,0.0,0.0,0.0,7.0586,7.4648,7.8164,7.9219,7.7539,7.3906,6.7969,0.0,0.0,0.0,0.0,0.0,0.0,0.0,0.0,0.0,0.0,0.0,0.0,0.0,0.0,0.0,0.0,0.0,0.0,0.0,0.0,0.0,0.0,0.0,0.0,0.0,0.0,0.0,0.0,0.0,0.0,0.0,0.0,0.0,0.0,0.0,0.0,0.0,0.0,0.0,0.0,0.0,0.0,0.0,0.0,0.0,0.0,0.0,0.0,0.0,0.0,0.0,0.0,0.0,0.0,0.0,0.0,0.0,0.0,0.0,0.0,0.0,0.0,0.0,0.0,0.0,0.0,0.0,0.0,0.0,0.0,0.0,0.0,0.0,0.0,0.0,0.0,0.0,0.0,0.0,0.0,0.0,0.0,0.0,0.0,0.0,0.0,0.0,0.0,0.0,0.0,0.0,0.0,0.0,0.0,0.0,0.0,0.0,0.0,0.0,0.0,0.0,0.0,0.0,0.0,0.0,0.0,0.0,0.0,7.2617,7.5586,7.9648,8.125,8.0195,7.418,6.789,0.0,0.0,0.0,0.0,0.0,0.0,0.0,0.0,0.0,0.0,0.0,0.0,0.0,0.0,0.0,0.0,0.0,0.0,0.0,0.0,0.0,0.0,0.0,0.0,0.0,0.0,0.0,0.0,0.0,0.0,0.0,0.0,0.0,0.0,0.0,0.0,0.0,0.0,0.0,0.0,0.0,0.0,0.0,0.0,0.0,0.0,0.0,0.0,5.3905,0.0,0.0,0.0,0.0,0.0,0.0,0.0,0.0,0.0,0.0,0.0,0.0,0.0,0.0,0.0,0.0,0.0,0.0,0.0,0.0,0.0,0.0,0.0,0.0,0.0,0.0,0.0,0.0,0.0,0.0,0.0,0.0,0.0,0.0,0.0,0.0,0.0,0.0,0.0,0.0,0.0,0.0,0.0,0.0,0.0,0.0,0.0,0.0,0.0,0.0,0.0,0.0,0.0,0.0,0.0,0.0,0.0,0.0,0.0,7.5078,7.7656,8.0703,8.1875,8.0859,7.5898,7.0312,0.0,0.0,0.0,0.0,0.0,0.0,0.0,0.0,0.0,0.0,0.0,0.0,0.0,0.0,0.0,0.0,0.0,0.0,0.0,0.0,0.0,0.0,0.0,0.0,0.0,0.0,0.0,0.0,0.0,0.0,0.0,0.0,0.0,0.0,0.0,0.0,0.0,0.0,0.0,0.0,0.0,0.0,0.0,0.0,0.0,0.0,0.0,0.0,0.0,0.0,0.0,0.0,0.0,0.0,0.0,0.0,0.0,0.0,0.0,0.0,0.0,0.0,0.0,0.0,0.0,0.0,0.0,0.0,0.0,0.0,0.0,0.0,0.0,0.0,0.0,0.0,0.0,0.0,0.0,0.0,0.0,0.0,0.0,0.0,0.0,0.0,0.0,0.0,0.0,0.0,0.0,0.0,0.0,0.0,0.0,0.0,0.0,0.0,0.0,0.0,0.0,0.0,0.0,0.0,0.0,0.0,0.0,7.2109,7.6875,8.0,8.1523,8.1953,8.1172,7.789,7.3281,6.7305,0.0,0.0,0.0,0.0,0.0,0.0,0.0,0.0,0.0,0.0,0.0,0.0,0.0,0.0,0.0,0.0,0.0,0.0,0.0,0.0,0.0,0.0,0.0,0.0,0.0,0.0,0.0,0.0,0.0,0.0,0.0,0.0,0.0,0.0,0.0,0.0,0.0,0.0,5.7184,5.9515,0.0,0.0,0.0,0.0,0.0,0.0,0.0,0.0,5.7437,0.0,0.0,0.0,0.0,0.0,0.0,0.0,0.0,0.0,0.0,0.0,0.0,0.0,0.0,0.0,0.0,0.0,0.0,0.0,0.0,0.0,0.0,0.0,0.0,0.0,0.0,0.0,0.0,0.0,0.0,0.0,0.0,0.0,0.0,0.0,0.0,0.0,0.0,0.0,0.0,0.0,0.0,0.0,0.0,0.0,0.0,0.0,0.0,0.0,0.0,0.0,0.0,0.0,0.0,0.0,0.0,7.2695,7.2734,7.5625,8.1679,8.2148,8.2226,8.1992,7.8789,7.414,6.8164,0.0,0.0,0.0,0.0,0.0,0.0,0.0,0.0,0.0,0.0,0.0,0.0,0.0,0.0,0.0,0.0,0.0,0.0,0.0,0.0,0.0,0.0,0.0,0.0,0.0,0.0,0.0,0.0,0.0,0.0,0.0,0.0,0.0,0.0,0.0,0.0,0.0,0.0,0.0,6.3627,6.4447,0.0,0.0,0.0,0.0,0.0,0.0,0.0,0.0,5.7303,0.0,0.0,0.0,0.0,0.0,0.0,0.0,0.0,0.0,0.0,0.0,0.0,0.0,0.0,0.0,0.0,0.0,0.0,0.0,0.0,0.0,0.0,0.0,0.0,0.0,0.0,0.0,0.0,0.0,0.0,0.0,0.0,0.0,0.0,0.0,0.0,0.0,0.0,0.0,0.0,0.0,0.0,0.0,0.0,0.0,0.0,0.0,0.0,0.0,0.0,0.0,0.0,0.0,0.0,0.0,7.1484,7.457,7.8047,8.2109,8.2304,8.2304,8.2187,7.7226,7.25,0.0,0.0,0.0,0.0,0.0,0.0,0.0,0.0,0.0,0.0,0.0,0.0,0.0,0.0,0.0,0.0,0.0,0.0,0.0,0.0,0.0,0.0,0.0,0.0,0.0,0.0,0.0,0.0,0.0,0.0,0.0,0.0,0.0,0.0,0.0,0.0,0.0,0.0,0.0,0.0,6.4834,6.5496,6.5277,0.0,0.0,0.0,0.0,0.0,0.0,5.9918,5.9498,0.0,0.0,0.0,0.0,0.0,0.0,0.0,0.0,0.0,0.0,0.0,0.0,0.0,0.0,0.0,0.0,0.0,0.0,0.0,0.0,0.0,0.0,0.0,0.0,0.0,0.0,0.0,0.0,0.0,0.0,0.0,0.0,0.0,0.0,0.0,0.0,0.0,0.0,0.0,0.0,0.0,0.0,0.0,0.0,0.0,0.0,0.0,0.0,0.0,0.0,0.0,0.0,0.0,0.0,0.0,6.9648,7.5937,8.0273,8.2422,8.2578,8.25,8.2187,7.6289,7.1445,0.0,0.0,0.0,0.0,0.0,0.0,0.0,0.0,0.0,0.0,0.0,0.0,0.0,0.0,0.0,0.0,0.0,0.0,0.0,0.0,0.0,0.0,0.0,0.0,0.0,0.0,0.0,0.0,0.0,0.0,0.0,0.0,0.0,0.0,0.0,0.0,0.0,0.0,0.0,0.0,0.0,6.6696,6.7584,6.5538,0.0,0.0,0.0,0.0,6.2354,6.3387,0.0,0.0,0.0,0.0,0.0,0.0,0.0,0.0,0.0,0.0,0.0,0.0,0.0,0.0,0.0,0.0,0.0,0.0,0.0,0.0,0.0,0.0,0.0,0.0,0.0,0.0,0.0,0.0,0.0,0.0,0.0,0.0,0.0,0.0,0.0,0.0,0.0,0.0,0.0,0.0,0.0,0.0,0.0,0.0,0.0,0.0,0.0,0.0,0.0,0.0,0.0,0.0,0.0,0.0,0.0,0.0,7.0351,7.5117,7.9453,8.3203,8.3437,8.3086,8.2265,7.8594,7.3594,0.0,0.0,0.0,0.0,0.0,0.0,0.0,0.0,0.0,0.0,0.0,0.0,0.0,0.0,0.0,0.0,0.0,0.0,0.0,0.0,0.0,0.0,0.0,0.0,0.0,0.0,0.0,0.0,0.0,0.0,0.0,0.0,0.0,0.0,0.0,0.0,0.0,0.0,0.0,0.0,0.0,7.005,6.8163,6.818,6.8355,0.0,0.0,6.7078,6.9976,6.998,0.0,0.0,0.0,0.0,0.0,0.0,0.0,0.0,0.0,0.0,0.0,0.0,0.0,0.0,0.0,0.0,0.0,0.0,0.0,0.0,0.0,0.0,0.0,0.0,0.0,0.0,0.0,0.0,0.0,0.0,0.0,0.0,0.0,0.0,0.0,0.0,0.0,0.0,0.0,0.0,0.0,0.0,0.0,0.0,0.0,0.0,0.0,0.0,0.0,0.0,0.0,0.0,0.0,0.0,0.0,6.4297,7.1328,7.7148,8.125,8.3476,8.3594,8.3203,8.2304,7.707,7.1719,0.0,0.0,0.0,0.0,0.0,0.0,0.0,0.0,0.0,0.0,0.0,0.0,0.0,0.0,0.0,0.0,0.0,0.0,0.0,0.0,0.0,0.0,0.0,0.0,0.0,0.0,0.0,0.0,0.0,0.0,0.0,0.0,0.0,0.0,0.0,0.0,0.0,0.0,0.0,0.0,0.0,0.0,7.2291,7.2278,0.0,0.0,0.0,7.1252,7.1823,0.0,0.0,0.0,0.0,0.0,0.0,0.0,0.0,0.0,0.0,0.0,0.0,0.0,0.0,0.0,0.0,0.0,0.0,0.0,0.0,0.0,0.0,0.0,0.0,0.0,0.0,0.0,0.0,0.0,0.0,0.0,0.0,0.0,0.0,0.0,0.0,0.0,0.0,0.0,0.0,0.0,0.0,0.0,0.0,0.0,0.0,0.0,0.0,0.0,0.0,0.0,0.0,0.0,0.0,0.0,0.0,0.0,7.2265,7.9336,8.3359,8.4179,8.4062,8.3515,8.2539,7.6562,0.0,0.0,0.0,0.0,0.0,0.0,0.0,0.0,0.0,0.0,0.0,0.0,0.0,0.0,0.0,0.0,0.0,0.0,0.0,0.0,0.0,0.0,0.0,0.0,0.0,0.0,0.0,4.9062,0.0,0.0,0.0,0.0,0.0,0.0,0.0,0.0,0.0,0.0,0.0,0.0,0.0,0.0,7.2628,7.5781,7.5928,7.5922,0.0,0.0,7.5374,7.4414,7.5703,7.4608,0.0,0.0,0.0,0.0,0.0,0.0,0.0,0.0,0.0,0.0,0.0,0.0,0.0,0.0,0.0,0.0,0.0,0.0,0.0,0.0,0.0,0.0,0.0,0.0,0.0,0.0,0.0,0.0,0.0,0.0,0.0,0.0,0.0,0.0,0.0,0.0,0.0,0.0,0.0,0.0,0.0,0.0,0.0,0.0,0.0,0.0,0.0,0.0,0.0,0.0,0.0,0.0,0.0,0.0,6.7187,7.3242,8.082,8.5117,8.5976,8.5234,8.4414,8.3476,7.918,7.3672,0.0,0.0,0.0,0.0,0.0,0.0,0.0,0.0,0.0,0.0,0.0,0.0,0.0,0.0,0.0,0.0,0.0,0.0,0.0,0.0,0.0,0.0,0.0,0.0,0.0,0.0,0.0,0.0,0.0,0.0,0.0,0.0,0.0,0.0,0.0,0.0,0.0,0.0,0.0,0.0,0.0,7.4855,7.6835,7.8398,7.9922,0.0,8.039,7.9609,8.0273,8.1836,8.039,7.2773,0.0,0.0,0.0,0.0,0.0,0.0,0.0,0.0,0.0,0.0,0.0,0.0,0.0,0.0,0.0,0.0,0.0,0.0,0.0,0.0,0.0,0.0,0.0,0.0,0.0,0.0,0.0,0.0,0.0,0.0,0.0,0.0,0.0,0.0,0.0,0.0,0.0,0.0,0.0,0.0,0.0,0.0,0.0,0.0,0.0,0.0,0.0,0.0,0.0,0.0,0.0,0.0,0.0,6.8359,7.4844,8.1484,8.5586,8.6914,8.6172,8.5039,8.3633,8.0429,7.5273,0.0,0.0,0.0,0.0,0.0,0.0,0.0,0.0,0.0,0.0,0.0,0.0,0.0,0.0,0.0,0.0,0.0,0.0,0.0,0.0,0.0,0.0,0.0,0.0,0.0,0.0,0.0,0.0,5.6015,5.664,5.7148,0.0,0.0,0.0,0.0,0.0,0.0,0.0,0.0,0.0,0.0,7.8707,8.1523,8.25,0.0,0.0,8.414,8.3633,8.3437,8.3515,8.1523,7.539,7.3242,0.0,0.0,0.0,0.0,0.0,0.0,0.0,0.0,0.0,0.0,0.0,0.0,0.0,0.0,0.0,0.0,0.0,0.0,0.0,0.0,0.0,0.0,0.0,0.0,0.0,0.0,4.8672,4.7851,0.0,0.0,0.0,0.0,0.0,0.0,0.0,0.0,0.0,0.0,0.0,0.0,0.0,0.0,0.0,0.0,0.0,0.0,0.0,0.0,0.0,0.0,0.0,0.0,6.9648,7.6211,8.2226,8.6094,8.7812,8.6797,8.5625,8.4336,8.1601,7.6836,0.0,0.0,0.0,0.0,0.0,0.0,0.0,0.0,0.0,0.0,0.0,0.0,0.0,0.0,0.0,0.0,0.0,0.0,0.0,0.0,0.0,0.0,0.0,0.0,0.0,0.0,0.0,0.0,5.8515,5.8789,5.914,0.0,0.0,0.0,0.0,0.0,0.0,0.0,0.0,0.0,0.0,8.2304,8.5273,8.5859,8.625,8.6875,8.6523,8.5976,8.539,8.4765,8.2617,7.75,0.0,0.0,0.0,0.0,0.0,0.0,0.0,0.0,0.0,0.0,0.0,0.0,0.0,0.0,0.0,0.0,0.0,0.0,0.0,0.0,0.0,0.0,0.0,0.0,0.0,0.0,0.0,5.1328,0.0,0.0,4.8867,0.0,0.0,0.0,0.0,0.0,0.0,0.0,0.0,0.0,0.0,0.0,0.0,0.0,0.0,0.0,0.0,0.0,0.0,0.0,0.0,0.0,0.0,7.1133,7.7148,8.3125,8.6992,8.8594,8.707,8.6211,8.6015,8.2812,7.8515,7.3242,0.0,0.0,0.0,0.0,0.0,0.0,0.0,0.0,0.0,0.0,0.0,0.0,0.0,0.0,0.0,0.0,0.0,0.0,0.0,0.0,0.0,0.0,0.0,0.0,0.0,0.0,5.918,5.9883,6.0039,0.0,0.0,0.0,0.0,0.0,0.0,0.0,0.0,0.0,7.8867,8.2578,8.5469,8.7226,8.8125,8.8672,8.8711,8.7344,8.6289,8.6328,8.6172,8.4375,0.0,0.0,0.0,0.0,0.0,0.0,0.0,0.0,0.0,0.0,0.0,0.0,0.0,0.0,0.0,0.0,0.0,0.0,0.0,0.0,0.0,0.0,0.0,0.0,0.0,0.0,0.0,6.039,5.8203,0.0,0.0,0.0,0.0,0.0,0.0,0.0,0.0,0.0,0.0,0.0,7.2512,7.4775,0.0,0.0,0.0,0.0,0.0,0.0,0.0,0.0,0.0,0.0,0.0,0.0,7.2851,7.8789,8.4297,8.7851,8.9492,8.8476,8.7344,8.6211,8.4531,8.0078,7.2656,0.0,0.0,0.0,0.0,0.0,0.0,0.0,0.0,0.0,0.0,0.0,0.0,0.0,0.0,0.0,0.0,0.0,0.0,0.0,0.0,0.0,0.0,0.0,0.0,0.0,6.0,0.0,0.0,0.0,0.0,0.0,0.0,0.0,0.0,0.0,0.0,7.4961,7.9258,8.2695,8.6601,8.957,9.0742,9.1133,9.1484,0.0,0.0,0.0,0.0,0.0,0.0,0.0,0.0,0.0,0.0,0.0,0.0,0.0,0.0,8.5859,7.6719,7.4805,7.4453,7.3867,0.0,0.0,0.0,0.0,0.0,0.0,0.0,0.0,0.0,0.0,0.0,0.0,0.0,0.0,6.7524,6.6312,6.4086,0.0,0.0,0.0,0.0,0.0,0.0,0.0,0.0,7.6918,7.9704,8.0185,8.2409,8.1826,7.885,7.7995,7.3925,0.0,0.0,0.0,0.0,0.0,0.0,0.0,0.0,7.5173,8.0739,8.562,8.8783,9.0073,8.9099,8.7967,8.6872,8.5113,8.1023,7.4323,7.0886,6.7103,0.0,0.0,0.0,0.0,0.0,0.0,0.0,0.0,0.0,0.0,0.0,0.0,0.0,0.0,0.0,0.0,0.0,0.0,0.0,0.0,0.0,0.0,0.0,6.1055,0.0,0.0,0.0,0.0,0.0,0.0,0.0,0.0,0.0,7.625,8.0742,8.5117,8.7695,9.0703,9.2851,9.3437,0.0,0.0,0.0,0.0,0.0,0.0,0.0,8.9687,8.9609,8.8789,8.8086,8.8047,9.0586,9.2383,9.1484,0.0,0.0,8.3867,8.1875,8.1484,8.0898,8.125,8.1797,8.2383,8.289,8.3203,0.0,0.0,0.0,0.0,7.2383,0.0,0.0,0.0,7.443,7.4411,0.0,7.2223,0.0,0.0,0.0,0.0,6.5983,7.3877,0.0,0.0,8.6319,8.9279,8.9255,8.9324,8.894,8.8201,8.875,8.6525,8.1289,7.1162,6.4889,0.0,0.0,0.0,0.0,0.0,7.8066,8.2913,8.7197,8.9765,9.0518,8.9035,8.8179,8.7984,8.4781,8.1548,7.8371,7.6542,7.3072,6.7422,6.4609,0.0,0.0,0.0,0.0,0.0,0.0,0.0,0.0,0.0,0.0,0.0,0.0,0.0,0.0,0.0,0.0,0.0,0.0,0.0,0.0,6.2031,0.0,0.0,0.0,0.0,0.0,0.0,0.0,0.0,0.0,8.5195,8.2148,8.6601,9.1133,9.3554,0.0,0.0,0.0,0.0,9.5039,9.4297,9.414,9.3867,9.3047,9.3476,9.3398,9.1914,0.0,0.0,9.4375,9.6094,9.6914,9.4609,9.6172,9.6992,9.4375,9.164,9.0078,8.9961,8.8828,8.8515,8.9844,9.0195,9.0508,8.4906,0.0,0.0,0.0,0.0,8.0046,8.2496,8.6306,8.5151,8.3521,8.1602,8.0038,0.0,0.0,0.0,0.0,0.0,0.0,8.1402,8.4755,8.7685,8.9945,9.1585,9.2157,9.2002,9.1223,9.0813,8.957,8.7386,8.2691,7.584,6.7237,0.0,0.0,0.0,0.0,8.1489,8.4768,8.8974,9.0963,9.0626,9.0116,8.9299,8.8131,8.5948,8.3754,8.1661,7.9941,7.7151,7.3064,6.9242,0.0,0.0,0.0,0.0,0.0,0.0,0.0,0.0,0.0,0.0,0.0,0.0,0.0,0.0,0.0,0.0,0.0,0.0,0.0,6.2969,6.3633,6.5195,0.0,0.0,0.0,0.0,0.0,0.0,0.0,0.0,0.0,9.2812,9.3867,9.4922,0.0,0.0,9.7695,9.707,9.7539,9.8047,9.8398,9.8437,0.0,9.8125,9.6758,9.6211,9.75,9.8554,9.9023,9.8554,9.9062,9.9336,9.8554,9.9062,9.9297,9.8594,9.6875,9.539,9.4844,9.5156,9.5781,9.6328,9.6875,9.7187,9.4735,8.9058,8.5726,8.541,8.7075,8.6919,8.8821,9.2015,9.0739,8.9554,8.8495,8.6971,8.3895,7.9716,7.8323,0.0,0.0,0.0,8.5964,8.9347,9.0667,9.2261,9.395,9.4518,9.448,9.398,9.3133,9.2441,9.1864,8.9825,8.4557,7.6389,0.0,7.5474,7.5711,8.0834,8.4909,8.7742,9.0661,9.1869,9.1333,9.0376,8.9213,8.785,8.6454,8.5142,8.3932,8.2524,8.0382,7.7431,7.385,7.0226,0.0,0.0,0.0,0.0,0.0,0.0,0.0,0.0,0.0,0.0,0.0,6.2338,5.9205,0.0,0.0,0.0,6.3688,6.6238,6.8532,6.9981,0.0,0.0,0.0,0.0,0.0,0.0,0.0,9.164,9.5312,9.8164,10.0039,10.0156,9.9804,9.914,9.9609,9.9844,9.9336,0.0,10.0117,10.0273,10.0586,10.082,10.082,9.9804,9.9687,10.1523,10.1836,10.1992,10.2304,10.2344,10.2344,10.2344,10.2109,10.1953,10.2304,10.1211,9.9765,9.8359,9.8789,9.9492,9.9531,9.9922,10.0117,10.2389,10.1806,9.5395,9.3107,9.3662,9.3375,9.3807,9.455,9.28,9.3246,9.517,9.2859,9.0782,8.891,8.5833,0.0,8.6901,8.9239,9.1595,9.4018,9.4835,9.5634,9.6365,9.6403,9.6365,9.6288,9.548,9.5104,9.4989,9.345,9.1095,8.7965,8.4374,8.3053,8.4037,8.5898,8.8343,9.1257,9.2219,9.2642,9.245,9.0133,8.844,8.7525,8.6594,8.5768,8.5088,8.4211,8.2749,8.053,7.8017,7.4821,7.0724,0.0,0.0,0.0,0.0,0.0,0.0,0.0,0.0,0.0,0.0,0.0,0.0,0.0,0.0,6.6938,7.0728,0.0,7.5791,7.8894,0.0,0.0,0.0,8.402,8.7028,9.0742,9.4372,9.7848,0.0,0.0,10.4411,10.5195,10.5078,10.3476,10.2461,10.1875,10.1836,10.1875,10.1601,10.1015,10.1445,10.1914,10.2109,10.25,10.3164,10.3984,10.4297,10.4453,10.5117,10.5312,10.5429,10.5273,10.4804,10.4453,10.5351,10.457,10.3554,10.1172,10.0703,10.0625,10.0586,10.0625,10.0664,10.4969,10.4197,10.1932,10.0109,9.8573,9.7738,9.7543,9.7658,9.6562,9.6094,9.5987,9.4716,9.3538,9.2488,9.168,9.1911,9.2911,9.3527,9.4788,9.6557,9.6788,9.7019,9.7211,9.7211,9.6903,9.6326,9.6095,9.598,9.5942,9.4903,9.3989,9.3151,9.1573,8.9069,8.583,8.9211,9.1403,9.2172,9.3642,9.3796,9.2518,9.1248,8.9902,8.8402,8.6901,8.545,8.4042,8.3156,8.216,8.0965,7.9081,7.6983,7.4655,6.8752,0.0,0.0,0.0,0.0,0.0,0.0,0.0,0.0,0.0,7.0709,6.4016,0.0,7.3403,0.0,7.54,7.8224,7.9971,8.0909,0.0,0.0,8.811,9.0131,9.6581,9.7045,9.8447,10.2472,10.4272,10.5761,10.7281,10.7253,10.6966,10.6497,10.5379,10.4336,10.3711,10.414,10.4492,10.4258,10.4297,10.457,10.4531,10.4726,10.4922,10.5156,10.5195,10.5273,10.5469,10.5508,10.5508,10.5508,10.5351,10.5273,10.5508,10.5312,10.5039,10.4336,10.3711,10.3047,10.2422,10.2265,10.2265,10.6713,10.6174,10.4943,10.3675,10.2388,10.1057,10.0289,9.9865,9.9019,9.8211,9.7365,9.648,9.5634,9.4864,9.4864,9.5134,9.5595,9.5942,9.6596,9.7519,9.7904,9.8057,9.8057,9.7673,9.748,9.7403,9.6673,9.648,9.6788,9.598,9.5557,9.5557,9.5095,9.3441,9.0864,9.2633,9.3787,9.421,9.4711,9.4373,9.3056,9.1825,9.0402,8.8756,8.7401,8.5709,8.3678,8.3139,8.2324,8.1131,7.9785,7.8323,7.6599,7.2283,6.9475,0.0,0.0,0.0,0.0,0.0,0.0,0.0,0.0,0.0,0.0,0.0,7.8242,7.897,8.2311,8.5326,8.7491,8.906,9.1482,9.521,9.5239,9.6794,10.1491,10.1437,10.2254,10.5387,10.6515,10.7532,10.8821,10.8753,10.8437,10.8237,10.7838,10.6901,10.5234,10.5508,10.5937,10.5586,10.5508,10.5664,10.5976,10.6015,10.6172,10.6484,10.6289,10.6172,10.6523,10.6601,10.6601,10.6601,10.6289,10.6172,10.6523,10.625,10.6054,10.5976,10.5664,10.5039,10.4258,10.4062,10.4062,10.8098,10.7867,10.6174,10.5443,10.5338,10.3751,10.2558,10.1548,10.0683,9.9721,9.875,9.7865,9.7096,9.648,9.6365,9.6365,9.648,9.7211,9.7634,9.7865,9.8596,9.8942,9.8913,9.8173,9.8134,9.8557,9.7173,9.6749,9.7288,9.6634,9.6288,9.6288,9.6288,9.6288,9.6249,9.5557,9.5518,9.6288,9.5557,9.4758,9.3864,9.2326,9.0671,8.8949,8.7786,8.6094,8.3755,8.3486,8.2747,8.1362,8.0623,7.9554,7.8023,7.6207,7.4553,0.0,7.2706,0.0,0.0,0.0,0.0,0.0,0.0,0.0,0.0,8.1175,8.3011,8.6045,8.9863,9.3158,9.5517,9.8524,10.0442,10.0682,10.1764,10.2816,10.3677,10.4565,10.5775,10.7386,10.8235,10.9013,10.9811,10.9865,10.9607,10.9265,10.9524,10.8925,10.6778,10.6836,10.707,10.6133,10.5976,10.6523,10.6992,10.707,10.7304,10.789,10.7422,10.7148,10.7773,10.7929,10.7969,10.789,10.7344,10.7148,10.789,10.7344,10.6875,10.6875,10.6836,10.6484,10.5625,10.5195,10.539,11.0367,10.956,10.7905,10.7213,10.7136,10.6097,10.4828,10.3289,10.175,10.0212,9.875,9.7865,9.7403,9.7211,9.6596,9.6634,9.7288,9.7442,9.825,9.9606,9.9798,9.9837,9.9837,9.9683,9.8942,9.7788,9.7442,9.7019,9.6548,9.6355,9.6288,9.6288,9.6288,9.6288,9.6288,0.0,0.0,0.0,9.6134,9.5634,9.4758,9.3749,9.2095,8.9748,8.7517,0.0,8.3717,8.2947,8.2401,8.2131,8.2593,0.0,0.0,0.0,0.0,0.0,0.0,0.0,0.0,0.0,0.0,0.0,8.5294,8.4063,8.3139,8.7922,9.1137,9.1242,9.4945,9.7556,9.8091,9.9342,10.07,10.2048,10.3587,10.4867,10.5754,10.7151,10.8492,10.9504,10.9784,11.0208,11.095,11.0709,11.0382,11.0231,11.0005,10.9573,10.897,10.9322,10.9453,10.875,10.8437,10.8593,10.8789,10.8789,10.8789,10.8945,10.832,10.7851,10.7969,10.8008,10.8008,10.8008,10.7851,10.7773,10.7969,10.7851,10.7695,10.7734,10.7734,10.7304,10.582,10.4922,10.4648,11.0983,11.0098,10.8829,10.829,0.0,10.7405,10.6559,10.5636,10.3943,10.202,9.9981,9.9135,9.8557,9.8134,9.7711,9.775,9.8173,9.8596,9.9259,10.0106,10.0529,10.0712,10.0673,9.9827,9.9442,9.9327,9.8096,9.775,9.8096,9.7288,9.6903,9.6903,9.648,9.6288,9.6288,9.6288,9.6288,9.6288,9.6288,9.6095,9.5634,9.4797,9.3133,9.0624,8.9286,0.0,0.0,0.0,0.0,0.0,0.0,0.0,0.0,0.0,0.0,8.3447,8.3093,8.3593,8.5324,8.6594,8.8603,9.1565,9.295,9.2411,8.9487,9.3518,9.6403,9.6865,9.9211,10.0866,10.1289,10.2443,10.3558,10.4443,10.5944,10.7175,10.7675,10.8752,10.9675,11.0137,11.0598,11.1021,11.1406,11.1267,11.0896,11.0676,11.0721,11.064,11.0377,11.0205,11.0027,10.981,10.9879,10.9922,10.9922,10.9922,10.9765,10.9375,10.8945,10.8515,10.8047,10.8008,10.8008,10.8008,10.8008,10.8008,10.8008,10.8008,10.8008,10.8008,10.8008,10.7773,10.6875,10.6406,10.6172,11.1445,11.056,10.956,10.9136,10.906,10.8252,10.7829,10.7559,10.5867,0.0,0.0,10.0673,9.9837,9.9029,9.8865,9.8865,9.9067,9.976,10.0183,10.0337,10.0981,10.1279,10.1202,9.9904,9.9904,10.0943,9.8788,9.8442,9.976,9.825,9.7519,9.7442,9.6826,9.6442,9.6326,9.6288,9.6288,9.6288,9.6288,9.6288,9.6288,9.5451,9.3903,9.1672,9.1364,8.9479,8.597,8.644,8.5778,8.3785,8.3785,8.4132,8.4709,8.5517,8.694,8.8987,9.0594,9.1633,9.2086,9.4057,9.5489,9.6066,9.8682,9.9067,9.6105,9.8096,10.0058,10.1394,10.2327,10.3174,10.402,10.5328,10.628,10.6597,10.7982,10.8906,10.9136,10.9906,11.0444,11.0483,11.106,11.1511,11.1511,11.1494,11.136,11.0991,11.1319,11.1684,11.11,11.0488,11.0151,11.0301,11.0475,11.0664,11.0742,11.0742,11.0427,10.9726,10.9414,10.9023,10.8437,10.8125,10.8047,10.8281,10.8125,10.8008,10.8008,10.8008,10.8008,10.8008,10.8008,10.8008,10.8008,10.8008,10.789,11.3137,11.2214,11.0675,11.0032,10.9955,10.9098,10.8329,10.7559,10.5828,10.4097,10.2366,10.152,10.0712,9.9875,9.9135,9.9221,9.9913,10.0029,10.0481,10.1135,10.1241,10.1279,10.1279,10.1058,10.0712,10.0212,9.9135,9.8711,9.8865,9.8019,9.7519,9.7519,9.7403,9.698,9.6365,9.6288,9.6288,9.6288,9.6288,9.6288,9.6288,9.5451,9.4489,9.3364,9.1979,9.0586,8.9278,8.9278,8.9201,8.8855,8.9547,8.9663,8.9086,8.9787,9.0479,9.0864,9.1787,9.3249,9.5394,9.5942,9.7365,10.0096,10.0866,10.0635,9.9567,10.1019,10.2174,10.2443,10.3251,10.4059,10.4838,10.5261,10.6097,10.7367,10.8367,10.9175,10.9906,11.0752,11.1291,11.128,11.1395,11.1511,11.1511,11.1511,11.1466,11.1396,11.1488,11.1517,11.1383,11.1078,11.0872,11.0868,11.0902,11.1051,11.1297,11.1366,11.1088,11.0507,10.9843,10.9414,10.9179,10.8554,10.8359,10.8984,10.8515,10.8125,10.8047,10.8008,10.8164,10.8203,10.8203,10.8086,10.8086,10.8086,10.8008,11.3483,11.2588,11.1406,11.0906,11.0829,10.9483,10.8444,10.7598,10.6367,10.5136,10.3866,10.2558,10.1789,10.1404,10.0558,10.0366,10.075,10.075,10.0943,10.1279,10.1279,10.1279,10.1241,10.0866,10.0673,10.0673,9.9913,9.975,10.0058,9.9327,9.8673,9.8173,9.7288,9.6865,9.6942,9.6519,9.6288,9.6288,9.6288,9.6288,9.6288,9.5903,9.5288,9.4412,9.3633,9.2633,9.1364,9.1325,9.1095,9.0624,9.0979,9.121,9.1325,9.2095,9.2979,9.3903,9.4749,9.5942,9.7557,9.8519,9.9856,10.1866,10.2866,10.3212,10.2876,10.352,10.3943,10.3982,10.4751,10.5597,10.6405,10.6905,10.7675,10.8944,10.979,11.0444,11.0868,11.1214,11.1511,11.1511,11.1511,11.1511,11.1511,11.1511,11.1511,11.1511,11.1511,11.1511,11.1511,11.1374,11.1337,11.1498,11.1608,11.1758,11.1914,11.1931,11.1705,11.1166,11.0749,11.0374,11.0078,10.9297,10.8984,10.9179,10.8945,10.875,10.8711,10.914,10.9336,10.9375,10.8984,10.8789,10.8672,10.8359,10.8047,11.3791,11.2945,11.2088,11.1665,11.1318,10.9637,10.8559,10.7905,10.6856,10.602,10.5251,10.3828,10.2943,10.2558,10.1904,10.1471,10.1317,10.1279,10.1279,10.1279,10.1279,10.1279,10.1241,10.0635,10.0673,10.1173,10.0481,10.0519,10.1135,10.0481,9.976,9.899,9.7596,9.7057,9.748,9.6903,9.648,9.6326,9.6288,9.6288,9.6288,9.6288,9.598,9.5374,9.5297,9.4672,9.3441,9.3364,9.3056,9.2402,9.2364,9.2672,9.3326,9.3941,9.498,9.6403,9.7134,9.8057,9.9327,10.075,10.2058,10.3097,10.4366,10.5174,10.5366,10.5366,10.5405,10.5482,10.5944,10.6703,10.7482,10.8136,10.906,11.007,11.0791,11.1175,11.1472,11.1511,11.1511,11.1511,11.1511,11.1511,11.1511,11.1511,11.1511,11.1511,11.1511,11.1511,11.1511,11.1511,11.1604,11.1782,11.1986,11.2058,11.2173,11.1976,11.1709,11.1408,11.1169,11.0881,11.0586,11.0078,10.9765,10.9843,10.9726,10.9492,10.9414,10.9961,11.0195,10.9843,10.9336,10.9218,10.8867,10.8633,10.832,11.4676,11.3791,11.2945,11.2175,11.1357,10.9675,10.8867,10.8559,10.7098,10.6395,10.6126,10.529,10.402,10.2712,10.2558,10.2097,10.1394,10.1317,10.1356,10.1356,10.1279,10.1279,10.1279,10.1202,10.1241,10.1202,10.0481,10.0558,10.1212,10.0481,10.0067,9.9875,9.9029,9.8173,9.7596,9.7403,9.7019,9.6326,9.6288,9.6288,9.6288,9.6288,9.6249,9.6172,9.6172,9.6134,9.5788,9.5942,9.5903,9.5865,9.5711,9.5826,9.5903,9.6019,9.6442,9.7326,9.7519,9.8519,10.0817,10.1981,10.3174,10.4674,10.4982,10.5443,10.6136,10.6241,10.628,10.628,10.6318,10.679,10.7559,10.7829,10.8636,11.0147,11.0406,11.0598,11.1368,11.1511,11.1511,11.1511,11.1511,11.1511,11.1511,11.1511,11.1511,11.1511,11.1511,11.1511,11.1511,11.1511,11.1522,11.1568,11.1573,11.1692,11.1807,11.1252,11.111,11.1027,11.0512,11.0585,11.0954,11.0776,11.0366,11.0781,11.0859,11.0234,10.9843,10.9922,11.0156,10.9726,10.9414,10.9179,10.8515,10.8672,10.9023,11.5099,11.4676,11.383,11.2983,11.2022,11.0406,10.9367,10.879,10.7675,10.6905,10.6395,10.602,10.5213,10.4059,10.3597,10.3135,10.2828,10.2866,10.2558,10.2097,10.2058,10.1818,10.1317,10.1279,10.1279,10.1279,10.0981,10.0981,10.1087,10.0481,10.0337,10.0596,9.9481,9.8634,9.825,9.775,9.7326,9.7019,9.6557,9.6519,9.6903,9.6519,9.6288,9.6288,9.6288,9.6288,9.6288,9.6288,9.6288,9.6288,9.6288,9.6557,9.698,9.7019,9.7634,9.8904,9.9981,10.0943,10.202,10.3328,10.4366,10.5069,10.5597,10.602,10.6367,10.6395,10.6395,10.6395,10.6395,10.6933,10.8136,10.8406,10.9098,11.0598,11.0983,11.1098,11.1434,11.1511,11.1511,11.1511,11.1511,11.1511,11.1511,11.1511,11.1511,11.1511,11.1511,11.1511,11.1511,11.1511,11.1511,11.1511,11.1511,11.1557,11.1597,11.1385,11.1267,11.1382,11.1272,11.1365,11.1569,11.1247,11.0899,11.1374,11.1254,11.1054,11.0742,11.1445,11.1797,11.0859,11.0508,11.0468,10.9062,10.9062,10.9414,11.5495,11.5138,11.4137,11.3137,11.2252,11.0829,10.9713,10.8867,10.8059,10.7213,10.6433,10.6395,10.6059,10.5405,10.4597,10.4135,10.3905,10.3905,10.3443,10.2674,10.2597,10.2135,10.1356,10.1279,10.1279,10.1279,10.1279,10.1279,10.1241,10.075,10.0712,10.101,10.0058,9.9365,9.9096,9.8481,9.8096,9.7827,9.725,9.725,9.7711,9.7288,9.6865,9.6634,9.6403,9.6519,9.698,9.6749,9.6749,9.698,9.698,9.725,9.7827,9.7865,9.8634,10.0327,10.202,10.3058,10.3251,10.4405,10.5213,10.5482,10.6059,10.6395,10.6395,10.6395,10.6395,10.6395,10.6395,10.7021,10.829,10.8752,10.956,11.0944,11.1329,11.1511,11.1511,11.1511,11.1511,11.1511,11.1511,11.1511,11.1511,11.1511,11.1511,11.1511,11.1511,11.1511,11.1511,11.1511,11.1511,11.1511,11.1511,11.1522,11.1472,11.1179,11.1364,11.1606,11.1555,11.1397,11.2026,11.1539,11.1333,11.1714,11.1686,11.1493,11.1074,11.1914,11.2461,11.2226,11.1679,11.0781,10.9453,10.9336,10.9531,11.5984,11.5099,11.3483,11.2445,11.1511,11.0637,10.9713,10.8944,10.8098,10.7251,10.651,10.6395,10.6356,10.6241,10.5405,10.4636,10.402,10.402,10.3597,10.2828,10.2674,10.2174,10.1317,10.1279,10.1317,10.1317,10.1394,10.1356,10.1289,10.1241,10.125,10.1241,10.1087,10.075,10.0067,9.9837,9.9529,9.8798,9.8557,9.8673,9.8711,9.8673,9.8211,9.7557,9.6749,9.7096,9.8288,9.7865,9.7788,9.8634,9.8596,9.8673,9.875,9.8788,9.9596,10.1173,10.2866,10.4174,10.4761,10.5069,10.5443,10.6136,10.6318,10.6395,10.6395,10.6395,10.6395,10.6395,10.6395,10.6818,10.7752,10.8521,10.9329,11.0329,11.106,11.1472,11.1511,11.1511,11.1511,11.1511,11.1511,11.1511,11.1511,11.1511,11.1511,11.1511,11.1511,11.1511,11.1511,11.1511,11.1511,11.1511,11.1511,11.1511,11.1434,11.1175,11.0994,11.1196,11.1288,11.0777,11.143,11.1918,11.1984,11.2056,11.2033,11.1805,11.1309,11.1093,11.1172,11.0902,11.0405,10.957,10.9536,10.9372,10.9375,11.6341,11.5918,11.4253,11.3368,11.2945,11.1637,11.0521,10.9675,10.8867,10.8021,10.7213,10.6626,10.6395,10.6395,10.6059,10.579,10.552,10.552,10.502,10.4212,10.3674,10.2943,10.2212,10.2135,10.1789,10.1433,10.1827,10.1818,10.1317,10.1279,10.1279,10.1279,10.1279,10.0904,10.026,10.0106,9.9913,9.9606,9.9106,9.9067,9.9529,9.9096,9.8865,9.9096,9.8327,9.8173,9.875,9.8481,9.8481,9.8788,9.8788,9.9067,9.9683,10.0673,10.1481,10.2174,10.3712,10.4789,10.5097,10.5636,10.6059,10.6318,10.6395,10.6395,10.6395,10.6395,10.6395,10.6395,10.6395,10.678,10.7598,10.8406,10.9483,11.0752,11.1329,11.1511,11.1511,11.1511,11.1511,11.1511,11.1511,11.1511,11.1511,11.1511,11.1511,11.1511,11.1511,11.1511,11.1511,11.1511,11.1511,11.1511,11.1511,11.1511,11.1511,11.1318,11.1175,11.1291,11.1295,11.126,11.1626,11.1684,11.1713,11.174,11.1941,11.1865,11.1297,11.1332,11.115,11.0629,10.9996,10.9445,10.9695,10.9112,10.8948,11.6341,11.5918,11.4599,11.383,11.3407,11.2088,11.0829,10.979,10.9136,10.829,10.729,10.6626,10.6395,10.6395,10.6395,10.6395,10.6395,10.6356,10.5905,10.5097,10.452,10.3828,10.3135,10.302,10.2558,10.1856,10.1971,10.1856,10.1394,10.1279,10.1279,10.1279,10.1279,10.1058,10.0558,10.0481,10.0481,10.0366,9.9904,9.9942,10.0327,9.9942,9.9865,10.0289,9.9904,9.9596,9.9596,9.9327,9.9365,9.9558,9.9596,9.9865,10.0558,10.2097,10.302,10.3174,10.4597,10.552,10.5559,10.6059,10.6395,10.6395,10.6395,10.6395,10.6395,10.6395,10.6395,10.6433,10.6713,10.7175,10.7982,10.8829,10.979,11.0906,11.1329,11.1511,11.1511,11.1511,11.1511,11.1511,11.1511,11.1511,11.1511,11.1511,11.1511,11.1511,11.1511,11.1511,11.1511,11.1511,11.1511,11.1511,11.1511,11.1511,11.1511,11.1395,11.1318,11.1434,11.1472,11.1511,11.1511,11.1511,11.1532,11.1557,11.1547,11.1536,11.1546,11.1577,11.1265,11.0731,10.9847,10.9027,10.8904,10.8576,10.8464,11.6072,11.533,11.4368,11.356,11.2868,11.1906,11.0521,10.9367,10.8983,10.8098,10.6982,10.6472,10.6395,10.6395,10.6395,10.6395,10.6395,10.6395,10.602,10.5251,10.5059,10.4636,10.3943,10.3905,10.352,10.2712,10.1779,10.1394,10.1433,10.1356,10.1317,10.1356,10.1356,10.1317,10.1317,10.125,10.1202,10.1164,10.1048,10.1173,10.1279,10.1125,10.1125,10.1279,10.1241,10.1241,10.1289,10.0558,10.0404,10.1048,10.1125,10.1241,10.152,10.2943,10.3905,10.4135,10.5443,10.6241,10.6356,10.6433,10.6549,10.6433,10.6433,10.651,10.6395,10.6472,10.651,10.6664,10.729,10.8021,10.8867,10.9598,11.0186,11.0291,11.1098,11.1511,11.1511,11.1511,11.1511,11.1511,11.1511,11.1511,11.1511,11.1511,11.1511,11.1511,11.1511,11.1511,11.1511,11.1511,11.1511,11.1511,11.1511,11.1511,11.1511,11.1511,11.1511,11.1511,11.1511,11.1511,11.1511,11.1511,11.1511,11.1526,11.1526,11.1499,11.0902,11.0898,11.0652,11.0131,10.9306,10.8825,10.8634,10.8413,10.8041,11.6341,11.5957,11.4561,11.3868,11.3407,11.2088,11.1126,11.056,10.9483,10.8598,10.7982,10.6895,10.6395,10.6395,10.6395,10.6395,10.6395,10.6395,10.6241,10.5905,10.5405,10.502,10.4789,10.4713,10.4559,10.4097,10.2866,10.2212,10.2097,10.1625,10.1548,10.1981,10.1587,10.1635,10.2125,10.1625,10.1279,10.1279,10.1279,10.1279,10.1279,10.1317,10.1587,10.2135,10.2212,10.2443,10.2981,10.1712,10.1096,10.1317,10.1317,10.1548,10.2366,10.3789,10.4674,10.4838,10.5751,10.6395,10.6472,10.6944,10.7021,10.6703,10.6944,10.6944,10.6587,10.6972,10.7251,10.7367,10.8059,10.8867,10.9637,11.0021,11.0444,11.1021,11.1318,11.1511,11.1511,11.1511,11.1511,11.1511,11.1511,11.1511,11.1511,11.1511,11.1511,11.1511,11.1511,11.1511,11.1511,11.1511,11.1511,11.1511,11.1511,11.1511,11.1511,11.1511,11.1511,11.1511,11.1511,11.1511,11.1511,11.1511,11.1511,11.1511,11.1511,11.128,11.0675,11.042,11.0428,11.0178,10.9832,10.9337,10.886,10.8457,10.8114,11.6484,11.6303,11.4714,11.3984,11.3791,11.2203,11.1318,11.0868,10.9521,10.8752,10.8213,10.701,10.6395,10.6395,10.6395,10.6395,10.6395,10.6395,10.6395,10.6318,10.5905,10.5597,10.552,10.5213,10.5107,10.4866,10.3712,10.3097,10.3058,10.2558,10.2558,10.2904,10.252,10.2558,10.302,10.2558,10.2289,10.2251,10.2289,10.2251,10.2289,10.2251,10.252,10.2981,10.3097,10.3366,10.3751,10.252,10.1779,10.1779,10.1779,10.2058,10.2674,10.4097,10.5107,10.5338,10.6174,10.6905,10.6982,10.7675,10.779,10.7251,10.7675,10.7752,10.7251,10.7675,10.8059,10.7867,10.8713,10.9483,10.9713,11.0406,11.0906,11.1434,11.1511,11.1511,11.1511,11.1511,11.1511,11.1511,11.1511,11.1511,11.1511,11.1511,11.1511,11.1511,11.1511,11.1511,11.1511,11.1511,11.1511,11.1511,11.1511,11.1511,11.1511,11.1511,11.1511,11.1511,11.1511,11.1511,11.1511,11.1511,11.1511,11.1511,11.1511,11.1472,11.0983,11.1137,11.1123,11.0763,11.0252,10.9663,10.9099,10.8694,10.8443,11.6484,11.6303,11.4714,11.3984,11.3791,11.2203,11.1137,11.0291,10.9406,10.8636,10.7829,10.7021,10.6472,10.6433,10.6395,10.6395,10.6395,10.6395,10.6395,10.6395,10.628,10.6241,10.6174,10.5636,10.5328,10.5174,10.4366,10.3982,10.3943,10.3712,10.3905,10.3905,10.3751,10.3905,10.3866,10.3905,10.3674,10.3635,10.3712,10.3712,10.3712,10.3751,10.3866,10.3943,10.3943,10.4059,10.4135,10.3366,10.2674,10.2558,10.2597,10.2866,10.302,10.4251,10.5261,10.5377,10.679,10.7444,10.7829,10.8482,10.8636,10.7944,10.8444,10.8636,10.8021,10.8482,10.8752,10.829,10.9406,10.9983,10.979,11.0483,11.1318,11.1472,11.1511,11.1511,11.1511,11.1511,11.1511,11.1511,11.1511,11.1511,11.1511,11.1511,11.1511,11.1511,11.1511,11.1511,11.1511,11.1511,11.1511,11.1511,11.1511,11.1511,11.1511,11.1511,11.1511,11.1511,11.1511,11.1511,11.1511,11.1511,11.1511,11.1511,11.1511,11.1472,11.1472,11.1472,11.1329,11.0868,11.0367,10.9829,10.9444,10.9136,10.8878,11.6484,11.6303,11.4676,11.3984,11.3753,11.2203,11.1395,11.106,11.0214,10.9329,10.8521,10.7713,10.6933,10.6433,10.6395,10.6395,10.6395,10.6395,10.6395,10.6395,10.6395,10.6395,10.6395,10.6213,10.602,10.5905,10.5174,10.4789,10.4723,10.4289,10.4289,10.4761,10.4289,10.4251,10.4636,10.4251,10.3905,10.3905,10.3905,10.3943,10.3982,10.3982,10.4212,10.4761,10.4789,10.5097,10.5559,10.4905,10.3443,10.1943,10.352,10.4135,10.3789,10.5097,10.5982,10.6174,10.7021,10.7713,10.7982,10.906,10.9406,10.879,10.9367,10.9444,10.8713,10.9367,10.9675,10.9713,11.056,11.1021,11.0857,11.1214,11.1472,11.1511,11.1511,11.1511,11.1511,11.1511,11.1511,11.1511,11.1511,11.1511,11.1511,11.1511,11.1511,11.1511,11.1511,11.1511,11.1511,11.1511,11.1511,11.1511,11.1511,11.1511,11.1511,11.1511,11.1511,11.1511,11.1511,11.1511,11.1511,11.1511,11.1511,11.1511,11.1511,11.1472,11.1472,11.1511,11.1203,11.0983,11.0944,11.0637,11.0214,10.9867,10.9483,11.6484,11.6341,11.4714,11.3984,11.3791,11.2214,11.1511,11.1329,11.056,10.9713,10.8867,10.8059,10.7213,10.6433,10.6395,10.6395,10.6395,10.6395,10.6395,10.6482,10.679,10.6751,10.651,10.6395,10.6395,10.6356,10.5905,10.5905,10.5982,10.5366,10.5443,10.5944,10.5366,10.5213,10.5597,10.5251,10.4943,10.4982,10.4943,10.4943,10.4943,10.4943,10.5136,10.5597,10.5636,10.5828,10.5828,10.5674,10.4597,10.3289,10.4059,10.4866,10.4597,10.5636,10.6356,10.6433,10.7521,10.8213,10.8521,10.9752,11.0252,10.979,11.0252,11.0214,10.9829,11.0252,11.0714,11.0301,11.1021,11.1252,11.1098,11.1252,11.1472,11.1511,11.1511,11.1511,11.1511,11.1511,11.1511,11.1511,11.1511,11.1511,11.1511,11.1511,11.1511,11.1511,11.1511,11.1511,11.1511,11.1511,11.1511,11.1511,11.1511,11.1511,11.1511,11.1511,11.1511,11.1511,11.1511,11.1511,11.1511,11.1511,11.1511,11.1511,11.1511,11.1511,11.1511,11.1511,11.1434,11.1357,11.1511,11.1395,11.0906,11.056,11.0214,11.6484,11.6341,11.4676,11.3984,11.3714,11.2252,11.1511,11.1357,11.0752,10.9944,10.9098,10.8329,10.7713,10.6664,10.6972,10.6664,10.6587,10.6856,10.6828,10.7059,10.7405,10.7521,10.6982,10.6741,10.6587,10.6472,10.6472,10.6905,10.7175,10.679,10.7059,10.7405,10.6944,10.6703,10.6751,10.6559,10.651,10.6405,10.6164,10.6087,10.6097,10.6097,10.6136,10.6174,10.6241,10.5982,10.579,10.5867,10.5587,10.4212,10.4828,10.5251,10.5366,10.6097,10.6636,10.7049,10.8213,10.906,10.9252,11.0483,11.1175,11.0598,11.1021,11.1175,11.0637,11.0983,11.1098,11.056,11.106,11.1137,11.0829,11.1137,11.1434,11.1511,11.1511,11.1511,11.1511,11.1511,11.1511,11.1549,11.1549,11.1626,11.1549,11.1626,11.1742,11.1549,11.1588,11.1742,11.1665,11.1511,11.1511,11.1511,11.1511,11.1511,11.1511,11.1511,11.1511,11.1511,11.1511,11.1511,11.1511,11.1511,11.1511,11.1511,11.1511,11.1511,11.1511,11.1511,11.1549,11.1511,11.1511,11.1511,11.1434,11.1214,11.0895,11.6484,11.633,11.4676,11.3984,11.3714,11.2242,11.1511,11.1472,11.128,11.0675,10.9983,10.9675,10.9098,10.829,10.8136,10.8059,10.7521,10.7944,10.8367,10.8406,10.8482,10.8598,10.8213,10.779,10.7087,10.6818,10.7136,10.7521,10.7752,10.8136,10.8406,10.8521,10.8367,10.8329,10.8175,10.7636,10.7444,10.7328,10.678,10.6472,10.6433,10.6395,10.6395,10.6395,10.6395,10.6318,10.6213,10.628,10.6203,10.601,10.602,10.6136,10.629,10.6944,10.7636,10.829,10.9175,10.9867,11.0098,11.0829,11.1434,11.1329,11.1329,11.1434,11.1318,11.1318,11.1434,11.1252,11.1395,11.1368,11.1203,11.1318,11.1472,11.1511,11.1511,11.1511,11.1511,11.1511,11.1511,11.1626,11.1972,11.2214,11.1703,11.2637,11.2522,11.1868,11.1742,11.2011,11.1857,11.1626,11.1511,11.1511,11.1511,11.1511,11.1511,11.1511,11.1511,11.1626,11.1665,11.1742,11.1742,11.1665,11.1703,11.1626,11.1511,11.1511,11.1588,11.1626,11.1703,11.1588,11.1549,11.1665,11.1742,11.1665,11.1703,11.6484,11.633,11.4714,11.3984,11.3714,11.2252,11.1511,11.1511,11.1511,11.1021,11.0329,11.0214,10.9713,10.8867,10.8521,10.8213,10.8367,10.8675,10.9136,10.9367,10.9521,10.9521,10.9483,10.906,10.8444,10.779,10.8021,10.8406,10.8829,10.8906,10.906,10.9406,10.9136,10.879,10.8906,10.8482,10.829,10.8098,10.7444,10.7021,10.6972,10.6587,10.6395,10.6395,10.6395,10.6395,10.6356,10.6395,10.6395,10.6472,10.679,10.7021,10.7136,10.779,10.8444,10.8906,10.9713,11.0406,11.0829,11.1214,11.1665,11.2022,11.1742,11.1549,11.1511,11.1511,11.1511,11.1511,11.1511,11.1511,11.1511,11.1511,11.1511,11.1511,11.1511,11.1511,11.1511,11.1511,11.1511,11.1549,11.1819,11.2088,11.2406,11.2945,11.3214,11.2522,11.1665,11.1857,11.2203,11.1934,11.1588,11.1511,11.1511,11.1511,11.1511,11.1511,11.1511,11.1703,11.1972,11.2126,11.2252,11.2099,11.1983,11.1895,11.1857,11.1703,11.1742,11.178,11.1819,11.1665,11.1665,11.1906,11.2214,11.2522,11.2522,11.6282,11.6167,11.4643,11.3984,11.3714,11.2214,11.1511,11.1511,11.1336,11.0813,11.027,11.0094,10.9495,10.8884,10.8082,10.8223,10.8701,10.8944,10.929,11.0291,11.0406,11.0406,11.0367,11.0252,10.9983,10.9329,10.9175,10.9483,10.9713,10.9713,10.9906,11.0214,10.9752,10.9598,10.9406,10.9136,10.9098,10.9021,10.829,10.7713,10.7559,10.6972,10.6741,10.6703,10.6703,10.6703,10.6664,10.6549,10.6482,10.6636,10.7405,10.7867,10.8213,10.8636,10.9213,10.9367,11.0329,11.1021,11.156,11.1742,11.2049,11.2626,11.1972,11.1549,11.1511,11.1511,11.1511,11.1511,11.1511,11.1511,11.1511,11.1511,11.1511,11.1511,11.1511,11.1511,11.1511,11.1511,11.1511,11.1549,11.1857,11.2165,11.2252,11.2599,11.2945,11.3137,11.2252,11.1752,11.2088,11.2126,11.1703,11.1511,11.1511,11.1511,11.1511,11.1588,11.1588,11.2011,11.2329,11.2637,11.2868,11.2868,11.2753,11.2445,11.2329,11.2175,11.2137,11.2214,11.2137,11.1829,11.1945,11.2291,11.2829,11.3445,11.3368,11.544,11.5328,11.4383,11.3984,11.3714,11.2203,11.144,11.1347,11.0688,11.036,11.0091,10.9482,10.9127,10.8703,10.8053,10.8208,10.8704,10.9014,10.9754,11.0891,11.1105,11.1175,11.1137,11.1098,11.1098,11.0906,11.0325,11.0023,11.0391,11.0752,11.0863,11.1154,11.1011,11.0895,11.0637,11.0406,10.9983,10.9867,10.9175,10.8482,10.7982,10.7675,10.7482,10.7482,10.7482,10.7482,10.729,10.6867,10.6751,10.7444,10.8252,10.8983,10.9483,10.9829,11.0291,11.0868,11.1598,11.2137,11.2445,11.2445,11.256,11.2522,11.1983,11.1549,11.1511,11.1511,11.1511,11.1511,11.1511,11.1511,11.1511,11.1511,11.1511,11.1511,11.1588,11.1588,11.1588,11.1626,11.1626,11.1703,11.2049,11.2319,11.2368,11.2445,11.2753,11.2906,11.2357,11.1895,11.2022,11.1934,11.1626,11.1511,11.1511,11.1511,11.1511,11.1626,11.1742,11.2357,11.2791,11.333,11.356,11.3753,11.3637,11.3637,11.3176,11.2791,11.2753,11.2753,11.2291,11.1906,11.2252,11.2753,11.3253,11.3791,11.4291,11.4905,11.4478,11.4118,11.3753,11.3082,11.1518,11.0824,11.0714,10.9907,10.9527,10.9408,10.9066,10.8893,10.8704,10.8025,10.7948,10.8299,10.9328,11.0034,11.086,11.123,11.1511,11.1467,11.1478,11.1819,11.1616,11.0898,11.0479,11.081,11.1237,11.1404,11.1456,11.1477,11.1511,11.1434,11.1098,11.0857,11.0665,11.0021,10.9406,10.8944,10.8598,10.8329,10.8329,10.8329,10.8329,10.8252,10.7982,10.7905,10.8406,10.9136,10.9713,11.0175,11.0637,11.1021,11.1549,11.2242,11.2945,11.3137,11.306,11.2868,11.3176,11.2252,11.1588,11.1511,11.1511,11.1511,11.1511,11.1511,11.1511,11.1511,11.1549,11.1511,11.1588,11.1868,11.2099,11.2088,11.2126,11.2126,11.2049,11.2011,11.2214,11.2368,11.2483,11.2676,11.256,11.2319,11.2203,11.2049,11.1857,11.1665,11.1511,11.1511,11.1626,11.1703,11.1934,11.2291,11.2906,11.3445,11.3984,11.4368,11.4599,11.4984,11.5253,11.4638,11.3637,11.333,11.3253,11.2599,11.2175,11.2983,11.3637,11.383,11.4176,11.4714,11.4139,11.3401,11.3457,11.3002,11.2036,11.0611,10.9921,10.9781,10.9003,10.8634,10.8601,10.8438,10.8302,10.8179,10.7733,10.7359,10.7478,10.892,10.9589,11.0017,11.0487,11.091,11.0973,11.125,11.1382,11.1495,11.0879,11.0727,11.1401,11.1252,11.1111,11.1053,11.1149,11.1255,11.1139,11.1013,11.128,11.128,11.0906,11.0444,11.006,10.956,10.9175,10.9175,10.9175,10.9175,10.9136,10.8829,10.8906,10.9213,10.9752,11.0263,11.0521,11.1137,11.1472,11.1626,11.2291,11.3099,11.3522,11.3176,11.306,11.3714,11.2357,11.1703,11.1511,11.1511,11.1511,11.1511,11.1511,11.1665,11.1819,11.178,11.1895,11.2242,11.2676,11.2983,11.2983,11.2983,11.2983,11.2753,11.2252,11.2099,11.2252,11.2049,11.2126,11.2406,11.2203,11.2472,11.2319,11.2137,11.1934,11.1626,11.1549,11.1703,11.1934,11.2329,11.2906,11.3753,11.433,11.4868,11.5215,11.5522,11.5869,11.6061,11.5445,11.4561,11.4214,11.3522,11.2714,11.2637,11.383,11.4291,11.406,11.4522,11.5253,11.2347,11.1598,11.1669,11.1248,11.0424,10.9453,10.9072,10.8925,10.8147,10.7737,10.772,10.7109,10.6844,10.6823,10.6754,10.6583,10.6921,10.7644,10.8528,10.9059,10.9349,10.9573,10.947,10.9968,11.056,11.0858,11.0363,11.1112,11.1562,11.081,11.0317,11.0262,11.0265,11.0359,11.0525,11.0576,11.0776,11.1347,11.1368,11.0983,11.0367,11.0137,11.006,11.007,11.006,11.0021,10.9944,10.9598,10.9444,11.0021,11.0137,11.0598,11.1203,11.1406,11.1511,11.1742,11.2252,11.306,11.3676,11.3445,11.3176,11.3637,11.2511,11.1742,11.1511,11.1511,11.1511,11.1511,11.1549,11.1857,11.2329,11.2522,11.2906,11.3291,11.3637,11.3791,11.383,11.3868,11.3868,11.356,11.3137,11.2445,11.2214,11.1819,11.1588,11.1895,11.2203,11.2511,11.2703,11.2637,11.2522,11.2319,11.2242,11.2319,11.2676,11.2983,11.356,11.4484,11.5061,11.5649,11.583,11.6022,11.6176,11.6215,11.5649,11.4984,11.4253,11.3445,11.2676,11.2791,11.3483,11.383,11.3984,11.4753,11.5764,11.0879,11.0573,11.0678,11.0229,10.9411,10.8534,10.8181,10.7988,10.7307,10.6911,10.6888,10.6574,10.6376,10.6376,10.6381,10.641,10.6593,10.7215,10.7735,10.8241,10.8589,10.9093,10.9642,10.9971,11.0271,11.0367,11.0022,10.9915,11.0499,11.0181,10.9415,10.9376,10.9441,10.975,11.0028,11.0163,11.0751,11.1269,11.1472,11.1329,11.106,11.0944,11.0906,11.0944,11.0906,11.0906,11.0791,11.0675,11.0521,11.0944,11.0944,11.1098,11.1395,11.1549,11.1626,11.2242,11.2472,11.3099,11.383,11.3984,11.4022,11.3676,11.2868,11.206,11.1703,11.1549,11.1549,11.1511,11.1934,11.2329,11.2753,11.3176,11.356,11.3984,11.4522,11.4676,11.4714,11.4714,11.4676,11.433,11.3984,11.333,11.2753,11.2445,11.2445,11.2829,11.2945,11.306,11.333,11.3483,11.3368,11.3214,11.3176,11.3214,11.3599,11.3984,11.4368,11.5099,11.5649,11.611,11.6264,11.6446,11.6446,11.5984,11.5215,11.4599,11.406,11.3522,11.2868,11.2868,11.2983,11.3483,11.4099,11.5291,11.611,10.9692,10.9723,10.9597,10.9073,10.8254,10.7573,10.7289,10.723,10.6681,10.6418,10.6376,10.6376,10.6376,10.6397,10.6381,10.6413,10.6465,10.707,10.7268,10.7554,10.7958,10.8449,10.8735,10.9178,10.969,11.0449,10.9081,10.895,10.9005,10.8723,10.826,10.8478,10.854,10.9033,10.9646,10.9879,11.0267,11.1418,11.1511,11.1472,11.1434,11.1434,11.1472,11.1472,11.1511,11.1511,11.1511,11.1434,11.1434,11.1434,11.1434,11.1434,11.1511,11.178,11.2049,11.2676,11.3137,11.383,11.4176,11.433,11.4368,11.3907,11.3253,11.2357,11.2022,11.1829,11.1626,11.1549,11.1857,11.2406,11.306,11.3676,11.4214,11.4714,11.5291,11.5445,11.5561,11.5484,11.5484,11.5291,11.4907,11.4291,11.3753,11.333,11.3368,11.3753,11.3791,11.3714,11.3945,11.4291,11.406,11.3907,11.3753,11.3868,11.4407,11.483,11.5253,11.5599,11.6149,11.6418,11.6457,11.6407,11.633,11.5676,11.4945,11.4407,11.3984,11.3522,11.3099,11.2714,11.2637,11.356,11.4445,11.5638,11.6341,10.8878,10.8817,10.8099,10.7414,10.6657,10.6507,10.6486,10.6574,10.646,10.6376,10.6376,10.6376,10.6376,10.6376,10.6376,10.6376,10.6397,10.646,10.659,10.6574,10.659,10.6992,10.7425,10.7841,10.8035,10.8186,10.7938,10.7923,10.7659,10.7363,10.7283,10.7579,10.7667,10.8242,10.8827,10.9333,11.0188,11.1185,11.1511,11.1511,11.1511,11.1511,11.1511,11.1511,11.1511,11.1511,11.1511,11.1511,11.1511,11.1511,11.1511,11.1511,11.1588,11.2088,11.2522,11.306,11.4099,11.4753,11.5022,11.4407,11.3599,11.356,11.3253,11.2588,11.2203,11.2472,11.2242,11.1626,11.1868,11.256,11.333,11.4099,11.4753,11.5484,11.5907,11.5984,11.6099,11.6176,11.6138,11.6187,11.5715,11.4984,11.4753,11.433,11.4022,11.433,11.4945,11.4868,11.4945,11.5138,11.4753,11.4484,11.4253,11.4445,11.5061,11.5484,11.5715,11.5945,11.633,11.6457,11.6484,11.6369,11.633,11.5753,11.5099,11.4484,11.3907,11.3522,11.3022,11.2214,11.2368,11.3637,11.4714,11.5764,11.6303,10.8505,10.8012,10.7205,10.6691,10.6376,10.6376,10.6376,10.6376,10.6376,10.6376,10.6376,10.6376,10.6376,10.6376,10.6376,10.6376,10.6376,10.6376,10.6376,10.6376,10.6434,10.6691,10.7058,10.7321,10.7641,10.7578,10.7542,10.7253,10.687,10.6528,10.6555,10.6801,10.6948,10.7385,10.801,10.9181,11.0371,11.1128,11.1511,11.1511,11.1511,11.1511,11.1511,11.1511,11.1511,11.1511,11.1511,11.1511,11.1511,11.1511,11.1511,11.1511,11.1665,11.2329,11.2945,11.3483,11.4676,11.5456,11.5918,11.5215,11.483,11.3753,11.3214,11.2588,11.2319,11.2011,11.1895,11.1714,11.1983,11.2791,11.3714,11.4484,11.5253,11.6099,11.6484,11.6484,11.6484,11.6484,11.6446,11.6341,11.5984,11.5445,11.533,11.5291,11.5022,11.4868,11.5533,11.6034,11.5945,11.5907,11.5522,11.533,11.5138,11.5176,11.5753,11.5984,11.6138,11.6292,11.6484,11.6484,11.6484,11.6484,11.633,11.5792,11.5368,11.4945,11.4368,11.3676,11.3099,11.2637,11.3099,11.4137,11.5099,11.5995,11.6264,10.8343,10.7535,10.6706,10.6376,10.6376,10.6376,10.6376,10.6376,10.6376,10.6376,10.6376,10.6376,10.6376,10.6376,10.6376,10.6376,10.6376,10.6376,10.6376,10.6376,10.6449,10.6764,10.7095,10.7205,10.7137,10.7241,10.7205,10.6843,10.6502,10.6397,10.6449,10.6449,10.646,10.6948,10.7865,10.9303,11.0741,11.161,11.1588,11.1511,11.1511,11.1511,11.1511,11.1511,11.1511,11.1511,11.1511,11.1511,11.1511,11.1511,11.1511,11.1511,11.1857,11.2445,11.3291,11.4099,11.4984,11.5918,11.6303,11.611,11.5599,11.4561,11.3676,11.2945,11.2406,11.2011,11.2049,11.2022,11.2445,11.3137,11.4099,11.4907,11.5522,11.6253,11.6446,11.6484,11.6484,11.6484,11.6484,11.6457,11.5984,11.5484,11.5484,11.5407,11.561,11.5456,11.5869,11.6264,11.6303,11.6253,11.6253,11.6138,11.6138,11.6253,11.6446,11.6369,11.6292,11.633,11.6484,11.6484,11.6484,11.6484,11.6253,11.5676,11.5368,11.5341,11.4868,11.4176,11.3676,11.3214,11.3945,11.4753,11.5522,11.6303,11.6341,10.838,10.7535,10.6764,10.6413,10.6449,10.6434,10.6376,10.6376,10.6376,10.6376,10.6376,10.6376,10.6376,10.6376,10.6376,10.6376,10.6376,10.6376,10.6376,10.6376,10.6376,10.6449,10.6486,10.6559,10.6691,10.6449,10.6523,10.6581,10.6376,10.6376,10.6376,10.6449,10.657,10.6971,10.7739,10.9318,11.1022,11.2297,11.1868,11.1703,11.1665,11.1626,11.1511,11.1511,11.1511,11.1511,11.1511,11.1511,11.1511,11.1511,11.1511,11.1511,11.1626,11.3022,11.3791,11.4022,11.5522,11.6341,11.6457,11.5764,11.5418,11.5099,11.4291,11.383,11.3676,11.3176,11.2626,11.2637,11.2753,11.356,11.4484,11.5291,11.5792,11.6215,11.6407,11.6484,11.6484,11.6484,11.6484,11.6484,11.588,11.5341,11.5368,11.5445,11.588,11.6072,11.638,11.6484,11.6484,11.6484,11.6484,11.6484,11.6484,11.6484,11.6484,11.6484,11.6446,11.6484,11.6484,11.6484,11.6484,11.6484,11.6138,11.5599,11.5599,11.5676,11.5215,11.4638,11.4484,11.4445,11.4638,11.533,11.6061,11.6484,11.6484,10.882,10.7572,10.7315,10.7205,10.7131,10.6596,10.6376,10.6376,10.6376,10.6376,10.6376,10.6376,10.6376,10.6376,10.6376,10.6376,10.6376,10.6376,10.6376,10.6376,10.6376,10.6376,10.6376,10.6376,10.6376,10.6376,10.6376,10.6376,10.6376,10.6376,10.6376,10.6449,10.6827,10.766,10.8504,10.9718,11.1021,11.2386,11.2433,11.2291,11.2214,11.1857,11.1549,11.1549,11.1549,11.1511,11.1511,11.1511,11.1549,11.1588,11.1626,11.1626,11.1895,11.3214,11.3984,11.4368,11.5522,11.6457,11.6495,11.6187,11.5841,11.5418,11.5022,11.4522,11.406,11.3214,11.3099,11.3291,11.3137,11.3945,11.483,11.5215,11.5687,11.6253,11.6484,11.6484,11.6484,11.6484,11.6484,11.6484,11.611,11.6034,11.5984,11.583,11.611,11.6226,11.6457,11.6484,11.6484,11.6484,11.6484,11.6484,11.6484,11.6484,11.6484,11.6484,11.6484,11.6484,11.6484,11.6484,11.6484,11.6484,11.6369,11.6061,11.6061,11.6061,11.5753,11.5522,11.5687,11.5803,11.5687,11.5687,11.6226,11.6484,11.6484,10.9077,10.7645,10.7609,10.7425,10.7131,10.6596,10.6376,10.6449,10.6691,10.6691,10.6486,10.6654,10.6654,10.6486,10.6376,10.6376,10.6376,10.6376,10.6376,10.6376,10.6376,10.6376,10.6376,10.6413,10.6376,10.6376,10.6376,10.6376,10.6376,10.6376,10.6376,10.6523,10.6984,10.7688,10.874,11.0013,11.1493,11.2748,11.3117,11.3176,11.2945,11.2522,11.1983,11.1868,11.1703,11.1511,11.1511,11.1549,11.1626,11.178,11.1895,11.206,11.2637,11.3483,11.4368,11.4868,11.5561,11.6407,11.6495,11.6457,11.6149,11.583,11.5533,11.5061,11.4407,11.3753,11.3868,11.3984,11.3753,11.4445,11.533,11.561,11.588,11.6446,11.6484,11.6484,11.6484,11.6484,11.6484,11.6484,11.6484,11.6484,11.6484,11.6446,11.6407,11.6457,11.6484,11.6484,11.6484,11.6484,11.6484,11.6484,11.6484,11.6484,11.6484,11.6484,11.6484,11.6484,11.6484,11.6484,11.6484,11.6484,11.6484,11.6484,11.6369,11.633,11.6407,11.6369,11.6264,11.6149,11.6072,11.6187,11.6446,11.6484,11.6484,10.9077,10.7719,10.7609,10.7168,10.6523,10.6449,10.6376,10.6449,10.7168,10.7058,10.647,10.7131,10.6984,10.6449,10.6376,10.6376,10.6376,10.6376,10.6376,10.6449,10.6559,10.6486,10.6523,10.6633,10.667,10.6486,10.6507,10.6691,10.6486,10.6654,10.6596,10.6486,10.689,10.7867,10.9154,11.0844,11.2307,11.3361,11.3924,11.3868,11.3599,11.3022,11.2445,11.2126,11.1819,11.1549,11.1511,11.1511,11.1945,11.2291,11.2637,11.3176,11.3868,11.4791,11.5099,11.5522,11.6149,11.638,11.6484,11.6484,11.6446,11.6176,11.5803,11.5445,11.5099,11.4599,11.4599,11.4907,11.4945,11.5561,11.6215,11.6253,11.6341,11.6484,11.6484,11.6484,11.6484,11.6484,11.6484,11.6484,11.6484,11.6484,11.6484,11.6484,11.6484,11.6484,11.6484,11.6484,11.6484,11.6484,11.6484,11.6484,11.6484,11.6484,11.6484,11.6484,11.6484,11.6484,11.6484,11.6484,11.6484,11.6484,11.6484,11.6484,11.6484,11.6484,11.6484,11.6484,11.6446,11.638,11.6303,11.6341,11.6484,11.6484,11.6484,10.9077,10.7645,10.7609,10.7462,10.7205,10.6633,10.6376,10.6449,10.6654,10.6559,10.6434,10.6654,10.6691,10.6434,10.6376,10.6376,10.6376,10.6376,10.6376,10.6523,10.6838,10.6764,10.6948,10.733,10.722,10.6963,10.6948,10.7278,10.7278,10.7241,10.6874,10.6544,10.744,10.8556,11.0079,11.2012,11.3055,11.3964,11.4578,11.4564,11.406,11.3368,11.2769,11.2187,11.1962,11.172,11.1638,11.1692,11.2126,11.2626,11.2753,11.3137,11.3984,11.483,11.5407,11.611,11.6418,11.6484,11.6484,11.6484,11.6484,11.6484,11.6226,11.6226,11.5907,11.5561,11.5291,11.561,11.5687,11.5984,11.6292,11.6446,11.6484,11.6484,11.6484,11.6484,11.6484,11.6484,11.6484,11.6484,11.6484,11.6484,11.6484,11.6484,11.6484,11.6484,11.6484,11.6484,11.6484,11.6484,11.6484,11.6484,11.6484,11.6484,11.6484,11.6484,11.6484,11.6484,11.6484,11.6484,11.6484,11.6484,11.6484,11.6484,11.6484,11.6484,11.6484,11.6484,11.6484,11.6484,11.6418,11.6457,11.6484,11.6484,11.6484,10.8783,10.7682,10.7609,10.7425,10.7058,10.6596,10.6376,10.6449,10.6727,10.6764,10.6449,10.6743,10.667,10.6413,10.6376,10.6376,10.6376,10.6413,10.6559,10.7021,10.711,10.7294,10.7624,10.7918,10.7807,10.7624,10.7697,10.8064,10.8049,10.8049,10.7734,10.7587,10.8542,10.944,11.072,11.2212,11.3563,11.4477,11.5128,11.531,11.4791,11.4077,11.3334,11.2521,11.2371,11.2236,11.201,11.213,11.2846,11.3549,11.3714,11.4137,11.4868,11.5561,11.588,11.6418,11.6457,11.6484,11.6484,11.6484,11.6484,11.6484,11.6484,11.6457,11.633,11.6061,11.6099,11.6264,11.6022,11.5984,11.6253,11.6484,11.6484,11.6484,11.6484,11.6484,11.6484,11.6484,11.6484,11.6484,11.6484,11.6484,11.6484,11.6484,11.6484,11.6484,11.6484,11.6484,11.6484,11.6484,11.6484,11.6484,11.6484,11.6484,11.6484,11.6484,11.6484,11.6484,11.6484,11.6484,11.6484,11.6484,11.6484,11.6484,11.6484,11.6484,11.6484,11.6484,11.6484,11.6484,11.6484,11.6484,11.6484,11.6484,11.6484,10.8211,10.7498,10.7498,10.7095,10.6449,10.6376,10.6376,10.6449,10.7095,10.7095,10.6596,10.7131,10.6984,10.6449,10.6376,10.6376,10.6486,10.6559,10.6963,10.7609,10.733,10.7551,10.8064,10.8233,10.8248,10.8578,10.8799,10.8799,10.8762,10.8762,10.8799,10.8835,10.8945,10.9789,11.1431,11.2484,11.3818,11.5274,11.5839,11.611,11.5918,11.5455,11.4835,11.3813,11.352,11.3395,11.3049,11.3441,11.4324,11.4923,11.5291,11.5522,11.6034,11.6303,11.6418,11.6457,11.6495,11.6484,11.6484,11.6484,11.6484,11.6484,11.6484,11.6484,11.6407,11.6369,11.6418,11.6457,11.6253,11.6176,11.6407,11.6484,11.6484,11.6484,11.6484,11.6484,11.6484,11.6484,11.6484,11.6484,11.6484,11.6484,11.6484,11.6484,11.6484,11.6484,11.6484,11.6484,11.6484,11.6484,11.6484,11.6484,11.6484,11.6484,11.6484,11.6484,11.6484,11.6484,11.6484,11.6484,11.6484,11.6484,11.6484,11.6484,11.6484,11.6484,11.6484,11.6484,11.6484,11.6484,11.6484,11.6484,11.6484,11.6484,11.6484,10.7425,10.6706,10.6691,10.6544,10.6434,10.6376,10.6376,10.6376,10.6559,10.6596,10.647,10.6559,10.6633,10.6449,10.6376,10.6413,10.6559,10.6984,10.7388,10.7866,10.7881,10.8248,10.8909,10.9129,10.8857,10.8526,10.8783,10.9423,10.9129,10.9312,10.9386,10.8982,10.939,11.0576,11.2215,11.3076,11.4177,11.5738,11.6093,11.6027,11.5509,11.5267,11.4694,11.3634,11.3098,11.3214,11.299,11.307,11.4063,11.4898,11.5192,11.5726,11.6418,11.6457,11.6484,11.6484,11.6484,11.6484,11.6484,11.6484,11.6484,11.6484,11.6484,11.6484,11.6484,11.6484,11.6484,11.6484,11.6484,11.6484,11.6484,11.6484,11.6484,11.6484,11.6484,11.6484,11.6484,11.6484,11.6484,11.6484,11.6484,11.6484,11.6484,11.6484,11.6484,11.6484,11.6484,11.6484,11.6484,11.6484,11.6484,11.6484,11.6484,11.6484,11.6484,11.6484,11.6484,11.6484,11.6484,11.6484,11.6484,11.6484,11.6484,11.6484,11.6484,11.6484,11.6484,11.6484,11.6484,11.6484,11.6484,11.6484,11.6484,11.6484,11.6484,10.6801,10.6413,10.6376,10.6376,10.6376,10.6376,10.6376,10.6376,10.6376,10.6376,10.6376,10.6376,10.6376,10.6376,10.6376,10.667,10.689,10.7352,10.8123,10.8652,10.8725,10.9276,10.9679,10.9936,10.9863,10.9496,10.99,11.023,10.9606,11.0047,11.0267,10.9877,11.044,11.1329,11.2885,11.3506,11.4245,11.5839,11.5934,11.5452,11.4962,11.5078,11.4835,11.3806,11.3785,11.3799,11.3674,11.3824,11.4917,11.5597,11.5857,11.5995,11.6418,11.6484,11.6484,11.6484,11.6484,11.6484,11.6484,11.6484,11.6484,11.6484,11.6484,11.6484,11.6484,11.6484,11.6484,11.6484,11.6484,11.6484,11.6484,11.6484,11.6484,11.6484,11.6484,11.6484,11.6484,11.6484,11.6484,11.6484,11.6484,11.6484,11.6484,11.6484,11.6484,11.6484,11.6484,11.6484,11.6484,11.6484,11.6484,11.6484,11.6484,11.6484,11.6484,11.6484,11.6484,11.6484,11.6484,11.6484,11.6484,11.6484,11.6484,11.6484,11.6484,11.6484,11.6484,11.6484,11.6484,11.6484,11.6484,11.6484,11.6484,11.6484,11.6484,10.6413,10.6376,10.6376,10.6376,10.6376,10.6376,10.6376,10.6376,10.6376,10.6376,10.647,10.6544,10.6507,10.6434,10.6559,10.7095,10.7572,10.8123,10.893,10.9312,10.9239,10.9863,11.023,11.0377,11.0377,11.0524,11.0781,11.0597,11.0193,11.0707,11.0993,11.1109,11.1481,11.2011,11.2923,11.3305,11.3592,11.4644,11.4902,11.445,11.477,11.5306,11.4793,11.4816,11.5045,11.5238,11.4863,11.5172,11.6138,11.6446,11.6369,11.6418,11.6457,11.6484,11.6484,11.6484,11.6484,11.6484,11.6484,11.6484,11.6484,11.6484,11.6484,11.6484,11.6484,11.6484,11.6484,11.6484,11.6484,11.6484,11.6484,11.6484,11.6484,11.6484,11.6484,11.6484,11.6484,11.6484,11.6484,11.6484,11.6484,11.6484,11.6484,11.6484,11.6484,11.6484,11.6484,11.6484,11.6484,11.6484,11.6484,11.6484,11.6484,11.6484,11.6484,11.6484,11.6484,11.6484,11.6484,11.6484,11.6484,11.6484,11.6484,11.6484,11.6484,11.6484,11.6484,11.6484,11.6484,11.6484,11.6484,11.6484,11.6484,11.6484,11.6484,10.6376,10.6376,10.6376,10.6376,10.6376,10.6376,10.6376,10.6376,10.6376,10.6376,10.6544,10.7058,10.7095,10.647,10.7131,10.7645,10.8049,10.8783,10.9386,10.9826,10.9863,11.045,11.0744,11.0597,11.0634,11.0707,11.0744,11.056,11.0487,11.0891,11.0854,11.0464,11.1022,11.1415,11.1767,11.2228,11.2894,11.3698,11.3644,11.3214,11.3475,11.3888,11.4089,11.3989,11.3773,11.4005,11.4269,11.4892,11.5728,11.6247,11.6484,11.6484,11.6484,11.6484,11.6484,11.6484,11.6484,11.6484,11.6484,11.6484,11.6484,11.6484,11.6484,11.6484,11.6484,11.6484,11.6484,11.6484,11.6484,11.6484,11.6484,11.6484,11.6484,11.6484,11.6484,11.6484,11.6484,11.6484,11.6484,11.6484,11.6484,11.6484,11.6484,11.6484,11.6484,11.6484,11.6484,11.6484,11.6484,11.6484,11.6484,11.6484,11.6484,11.6484,11.6484,11.6484,11.6484,11.6484,11.6484,11.6484,11.6484,11.6484,11.6484,11.6484,11.6484,11.6484,11.6484,11.6484,11.6484,11.6484,11.6484,11.6484,11.6484,11.6484,11.6484]}]]